[[{"header":{"parameterUnit":"m.s-1","parameterCategory":1,"la1":31.0,"la2":29.5877,"lo1":-88.7671,"lo2":-86.6584,"dx":0.0162,"dy":0.0185,"nx":115,"ny":88,"refTime":"2023-01-06T06:00:00:Z","depth":0,"parameterNumber":2,"parameterNumberName":"U-component_of_WINDS"},"data":[0.0,0.0,0.0,0.0,0.0,0.0,0.0,0.0,0.0,0.0,0.0,0.0,0.0,0.0,0.0,0.0,0.0,0.0,0.0,0.0,0.0,0.0,0.0,0.0,0.0,0.0,0.0,0.0,0.0,0.0,0.0,0.0,0.0,0.0,0.0,0.0,0.0,0.0,0.0,0.0,0.0,0.0,0.0,0.0,0.0,0.0,0.0,0.0,0.0,0.0,0.0,0.0,0.0,0.0,0.0,0.0,0.0,0.0,0.0,0.0,0.0,0.0,0.0,0.0,0.0,0.0,0.0,0.0,0.0,0.0,0.0,0.0,0.0,0.0,0.0,0.0,0.0,0.0,0.0,0.0,0.0,0.0,0.0,0.0,0.0,0.0,0.0,0.0,0.0,0.0,0.0,0.0,0.0,0.0,0.0,0.0,0.0,0.0,0.0,0.0,0.0,0.0,0.0,0.0,0.0,0.0,0.0,0.0,0.0,0.0,0.0,0.0,0.0,0.0,0.0,0.0,0.0,0.0,0.0,0.0,0.0,0.0,0.0,0.0,0.0,0.0,0.0,0.0,0.0,0.0,0.0,0.0,0.0,0.0,0.0,0.0,0.0,0.0,0.0,0.0,0.0,0.0,0.0,0.0,0.0,0.0,0.0,0.0,0.0,0.0,0.0,0.0,0.0,0.0,0.0,0.0,0.0,0.0,0.0,0.0,0.0,0.0,0.0,0.0,0.0,0.0,0.0,0.0,0.0,0.0,0.0,0.0,0.0,0.0,0.0,0.0,0.0,0.0,0.0,0.0,0.0,0.0,0.0,0.0,0.0,0.0,0.0,0.0,0.0,0.0,0.0,0.0,0.0,0.0,0.0,0.0,0.0,0.0,0.0,0.0,0.0,0.0,0.0,0.0,0.0,0.0,0.0,0.0,0.0,0.0,0.0,0.0,0.0,0.0,0.0,0.0,0.0,0.0,0.0,0.0,0.0,0.0,0.0,0.0,0.0,0.0,0.0,0.0,0.0,0.0,0.0,0.0,0.0,0.0,0.0,0.0,0.0,0.0,0.0,0.0,0.0,0.0,0.0,0.0,0.0,0.0,0.0,0.0,0.0,0.0,0.0,0.0,0.0,0.0,0.0,0.0,0.0,0.0,0.0,0.0,0.0,0.0,0.0,0.0,0.0,0.0,0.0,0.0,0.0,0.0,0.0,0.0,0.0,0.0,0.0,0.0,0.0,0.0,0.0,0.0,0.0,0.0,0.0,0.0,0.0,0.0,0.0,0.0,0.0,0.0,0.0,0.0,0.0,0.0,0.0,0.0,0.0,0.0,0.0,0.0,0.0,0.0,0.0,0.0,0.0,0.0,0.0,0.0,0.0,0.0,0.0,0.0,0.0,0.0,0.0,0.0,0.0,0.0,0.0,0.0,0.0,0.0,0.0,0.0,0.0,0.0,0.0,0.0,0.0,0.0,0.0,0.0,0.0,0.0,0.0,0.0,0.0,0.0,0.0,0.0,0.0,0.0,0.0,0.0,0.0,0.0,0.0,0.0,0.0,0.0,0.0,0.0,0.0,0.0,0.0,0.0,0.0,0.0,0.0,0.0,0.0,0.0,0.0,0.0,0.0,0.0,0.0,0.0,0.0,0.0,0.0,0.0,0.0,0.0,0.0,0.0,0.0,0.0,0.0,0.0,0.0,0.0,0.0,0.0,0.0,0.0,0.0,0.0,0.0,0.0,0.0,0.0,0.0,0.0,0.0,0.0,0.0,0.0,0.0,0.0,0.0,0.0,0.0,0.0,0.0,0.0,0.0,0.0,0.0,0.0,0.0,0.0,0.0,0.0,0.0,0.0,0.0,0.0,0.0,0.0,0.0,0.0,0.0,0.0,0.0,0.0,0.0,0.0,0.0,0.0,0.0,0.0,0.0,0.0,0.0,0.0,0.0,0.0,0.0,0.0,0.0,0.0,0.0,0.0,0.0,0.0,0.0,0.0,0.0,0.0,0.0,0.0,0.0,0.0,0.0,0.0,0.0,0.0,0.0,0.0,0.0,0.0,0.0,0.0,0.0,0.0,0.0,0.0,0.0,0.0,0.0,0.0,0.0,0.0,0.0,0.0,0.0,0.0,0.0,0.0,0.0,0.0,0.0,0.0,0.0,0.0,0.0,0.0,0.0,0.0,0.0,0.0,0.0,0.0,0.0,0.0,0.0,0.0,0.0,0.0,0.0,0.0,0.0,0.0,0.0,0.0,0.0,0.0,0.0,0.0,0.0,0.0,0.0,0.0,0.0,0.0,0.0,0.0,0.0,0.0,0.0,0.0,0.0,0.0,0.0,0.0,0.0,0.0,0.0,0.0,0.0,0.0,0.0,0.0,0.0,0.0,0.0,0.0,0.0,0.0,0.0,0.0,0.0,0.0,0.0,0.0,0.0,0.0,0.0,0.0,0.0,0.0,0.0,0.0,0.0,0.0,0.0,0.0,0.0,0.0,0.0,0.0,0.0,0.0,0.0,0.0,0.0,0.0,0.0,0.0,0.0,0.0,0.0,0.0,0.0,0.0,0.0,0.0,0.0,0.0,0.0,0.0,0.0,0.0,0.0,0.0,0.0,0.0,0.0,0.0,0.0,0.0,0.0,0.0,0.0,0.0,0.0,0.0,0.0,0.0,0.0,0.0,0.0,0.0,0.0,0.0,0.0,0.0,0.0,0.0,0.0,0.0,0.0,0.0,0.0,0.0,0.0,0.0,0.0,0.0,0.0,0.0,0.0,0.0,0.0,0.0,0.0,0.0,0.0,0.0,0.0,0.0,0.0,0.0,0.0,0.0,0.0,0.0,0.0,0.0,0.0,0.0,0.0,0.0,0.0,0.0,0.0,0.0,0.0,0.0,0.0,0.0,0.0,0.0,0.0,0.0,0.0,0.0,0.0,0.0,0.0,0.0,0.0,0.0,0.0,0.0,0.0,0.0,0.0,0.0,0.0,0.0,0.0,0.0,0.0,0.0,0.0,0.0,0.0,0.0,0.0,0.0,0.0,0.0,0.0,0.0,0.0,0.0,0.0,0.0,0.0,0.0,0.0,0.0,0.0,0.0,0.0,0.0,0.0,0.0,0.0,0.0,0.0,0.0,0.0,0.0,0.0,0.0,0.0,0.0,0.0,0.0,0.0,0.0,0.0,0.0,0.0,0.0,0.0,0.0,0.0,0.0,0.0,0.0,0.0,0.0,0.0,0.0,0.0,0.0,0.0,0.0,0.0,0.0,0.0,0.0,0.0,0.0,0.0,0.0,0.0,0.0,0.0,0.0,0.0,0.0,0.0,0.0,0.0,0.0,0.0,0.0,0.0,0.0,0.0,0.0,0.0,0.0,0.0,0.0,0.0,0.0,0.0,0.0,0.0,0.0,0.0,0.0,0.0,0.0,0.0,0.0,0.0,0.0,0.0,0.0,0.0,0.0,0.0,0.0,0.0,0.0,0.0,0.0,0.0,0.0,0.0,0.0,0.0,0.0,0.0,0.0,0.0,0.0,0.0,0.0,0.0,0.0,0.0,0.0,0.0,0.0,0.0,0.0,0.0,0.0,0.0,0.0,0.0,0.0,0.0,0.0,0.0,0.0,0.0,0.0,0.0,0.0,0.0,0.0,0.0,0.0,0.0,0.0,0.0,0.0,0.0,0.0,0.0,0.0,0.0,0.0,0.0,0.0,0.0,0.0,0.0,0.0,0.0,0.0,0.0,0.0,0.0,0.0,0.0,0.0,0.0,0.0,0.0,0.0,0.0,0.0,0.0,0.0,0.0,0.0,0.0,0.0,0.0,0.0,0.0,0.0,0.0,0.0,0.0,0.0,0.0,0.0,0.0,0.0,0.0,0.0,0.0,0.0,0.0,0.0,0.0,0.0,0.0,0.0,0.0,0.0,0.0,0.0,0.0,0.0,0.0,0.0,0.0,0.0,0.0,0.0,0.0,0.0,0.0,0.0,0.0,0.0,0.0,0.0,0.0,0.0,0.0,0.0,0.0,0.0,0.0,0.0,0.0,0.0,0.0,0.0,0.0,0.0,0.0,0.0,0.0,0.0,0.0,0.0,0.0,0.0,0.0,0.0,0.0,0.0,0.0,0.0,0.0,0.0,0.0,0.0,0.0,0.0,0.0,0.0,0.0,0.0,0.0,0.0,0.0,0.0,0.0,0.0,0.0,0.0,0.0,0.0,0.0,0.0,0.0,0.0,0.0,0.0,0.0,0.0,0.0,0.0,0.0,0.0,0.0,0.0,1.4504,0.0,0.0,0.0,1.4495,0.0,0.0,0.0,0.0,0.0,0.0,0.0,0.0,0.0,0.0,0.0,0.0,0.0,0.0,0.0,0.0,0.0,0.0,0.0,0.0,0.0,0.0,0.0,0.0,0.0,0.0,0.0,0.0,0.0,0.0,0.0,0.0,0.0,0.0,0.0,0.0,0.0,0.0,0.0,0.0,0.0,0.0,0.0,0.0,0.0,0.0,0.0,0.0,0.0,0.0,0.0,0.0,0.0,0.0,0.0,0.0,0.0,0.0,0.0,0.0,0.0,0.0,0.0,0.0,0.0,0.0,0.0,0.0,0.0,0.0,0.0,0.0,0.0,0.0,0.0,0.0,0.0,0.0,0.0,0.0,0.0,0.0,0.0,0.0,0.0,0.0,0.0,0.0,0.0,0.0,0.0,0.0,0.0,0.0,0.0,0.0,0.0,0.0,0.0,0.0,0.0,0.0,0.0,0.0,0.0,0.0,0.0,0.0,0.0,0.0,1.4508,1.4506,1.4498,1.4488,1.4488,0.0,0.0,0.0,0.0,0.0,0.0,0.0,0.0,0.0,0.0,0.0,0.0,0.0,0.0,0.0,0.0,0.0,0.0,0.0,0.0,0.0,0.0,0.0,0.0,0.0,0.0,0.0,0.0,0.0,0.0,0.0,0.0,0.0,0.0,0.0,0.0,0.0,0.0,0.0,0.0,0.0,0.0,0.0,0.0,0.0,0.0,0.0,0.0,0.0,0.0,0.0,0.0,0.0,0.0,0.0,0.0,0.0,0.0,0.0,0.0,0.0,0.0,0.0,0.0,0.0,0.0,0.0,0.0,0.0,0.0,0.0,0.0,0.0,0.0,0.0,0.0,0.0,0.0,0.0,0.0,0.0,0.0,0.0,0.0,0.0,0.0,0.0,0.0,0.0,0.0,0.0,0.0,0.0,0.0,0.0,0.0,0.0,0.0,0.0,0.0,0.0,0.0,0.0,0.0,0.0,0.0,0.0,0.0,0.0,0.0,0.0,0.0,1.4488,1.4488,1.4488,0.0,0.0,0.0,0.0,0.0,0.0,0.0,0.0,0.0,0.0,0.0,0.0,0.0,0.0,0.0,0.0,0.0,0.0,0.0,0.0,0.0,0.0,0.0,0.0,0.0,0.0,0.0,0.0,0.0,0.0,0.0,0.0,0.0,0.0,0.0,0.0,0.0,0.0,0.0,0.0,0.0,0.0,0.0,0.0,0.0,0.0,0.0,0.0,0.0,0.0,0.0,0.0,0.0,0.0,0.0,0.0,0.0,0.0,0.0,0.0,0.0,0.0,0.0,0.0,0.0,0.0,0.0,0.0,0.0,0.0,0.0,0.0,0.0,0.0,0.0,0.0,0.0,0.0,0.0,0.0,0.0,0.0,0.0,0.0,0.0,0.0,0.0,0.0,0.0,0.0,0.0,0.0,0.0,0.0,0.0,0.0,0.0,0.0,0.0,0.0,0.0,0.0,0.0,0.0,0.0,0.0,0.0,0.0,0.0,0.0,1.4488,1.4488,1.4488,0.0,1.4488,0.0,0.0,0.0,0.0,0.0,0.0,0.0,0.0,0.0,0.0,0.0,0.0,0.0,0.0,0.0,0.0,0.0,0.0,0.0,0.0,0.0,0.0,0.0,0.0,0.0,0.0,0.0,0.0,0.0,0.0,0.0,0.0,0.0,0.0,0.0,0.0,0.0,0.0,0.0,0.0,0.0,0.0,0.0,0.0,0.0,0.0,0.0,0.0,0.0,0.0,0.0,0.0,0.0,0.0,0.0,0.0,0.0,0.0,0.0,0.0,0.0,0.0,0.0,0.0,0.0,0.0,0.0,0.0,0.0,0.0,0.0,0.0,0.0,0.0,0.0,0.0,0.0,0.0,0.0,0.0,0.0,0.0,0.0,0.0,0.0,0.0,0.0,0.0,0.0,0.0,0.0,0.0,0.0,0.0,0.0,0.0,0.0,0.0,0.0,0.0,0.0,0.0,0.0,0.0,0.0,0.0,0.0,0.0,0.0,0.0,1.4488,1.4488,1.4488,1.4488,0.0,0.0,0.0,0.0,0.0,0.0,0.0,0.0,0.0,0.0,0.0,0.0,0.0,0.0,0.0,0.0,0.0,0.0,0.0,0.0,0.0,0.0,0.0,0.0,0.0,0.0,0.0,0.0,0.0,0.0,0.0,0.0,0.0,0.0,0.0,0.0,0.0,0.0,0.0,0.0,0.0,0.0,0.0,0.0,0.0,0.0,0.0,0.0,0.0,0.0,0.0,0.0,0.0,0.0,0.0,0.0,0.0,0.0,0.0,0.0,0.0,0.0,0.0,0.0,0.0,0.0,0.0,0.0,0.0,0.0,0.0,0.0,0.0,0.0,0.0,0.0,0.0,0.0,0.0,0.0,0.0,0.0,0.0,0.0,0.0,0.0,0.0,0.0,0.0,0.0,0.0,0.0,0.0,0.0,0.0,0.0,0.0,0.0,0.0,0.0,0.0,0.0,0.0,0.0,0.0,0.0,0.0,0.0,0.0,0.0,1.4488,1.4488,1.4488,1.4488,1.4488,1.4488,0.0,0.0,0.0,0.0,0.0,0.0,0.0,0.0,0.0,0.0,0.0,0.0,0.0,0.0,0.0,0.0,0.0,0.0,0.0,0.0,0.0,0.0,0.0,0.0,0.0,0.0,0.0,0.0,0.0,0.0,0.0,0.0,0.0,0.0,0.0,0.0,0.0,0.0,0.0,0.0,0.0,0.0,0.0,0.0,0.0,0.0,0.0,0.0,0.0,0.0,0.0,0.0,0.0,0.0,0.0,0.0,0.0,0.0,0.0,0.0,0.0,0.0,0.0,0.0,0.0,0.0,0.0,0.0,0.0,0.0,0.0,0.0,0.0,0.0,0.0,0.0,0.0,0.0,0.0,0.0,0.0,0.0,0.0,0.0,0.0,0.0,0.0,0.0,0.0,0.0,0.0,0.0,0.0,0.0,0.0,0.0,0.0,0.0,0.0,0.0,0.0,0.0,0.0,0.0,0.0,0.0,0.0,0.0,1.4488,1.4526,1.4527,1.4526,1.4488,1.4488,0.0,0.0,0.0,0.0,0.0,0.0,0.0,0.0,0.0,0.0,0.0,0.0,0.0,0.0,0.0,0.0,0.0,0.0,0.0,0.0,0.0,0.0,0.0,0.0,0.0,0.0,0.0,0.0,0.0,0.0,0.0,0.0,0.0,0.0,0.0,0.0,0.0,0.0,0.0,0.0,0.0,0.0,0.0,0.0,0.0,0.0,0.0,0.0,0.0,0.0,0.0,0.0,0.0,0.0,0.0,0.0,0.0,0.0,0.0,0.0,0.0,0.0,0.0,0.0,0.0,0.0,0.0,0.0,0.0,0.0,0.0,0.0,0.0,0.0,0.0,0.0,0.0,0.0,0.0,0.0,0.0,0.0,0.0,0.0,0.0,0.0,0.0,0.0,0.0,0.0,0.0,0.0,0.0,0.0,0.0,0.0,0.0,0.0,0.0,0.0,0.0,0.0,0.0,0.0,0.0,0.0,0.0,0.0,0.0,1.4528,1.4974,1.5269,1.5268,1.5268,1.5049,0.0,0.0,0.0,0.0,0.0,0.0,0.0,0.0,0.0,0.0,0.0,0.0,0.0,0.0,0.0,0.0,0.0,0.0,0.0,0.0,0.0,0.0,0.0,0.0,0.0,0.0,0.0,0.0,0.0,0.0,0.0,0.0,0.0,0.0,0.0,0.0,0.0,0.0,0.0,0.0,0.0,0.0,0.0,0.0,0.0,0.0,0.0,0.0,0.0,0.0,0.0,0.0,0.0,0.0,0.0,0.0,0.0,0.0,0.0,0.0,0.0,0.0,0.0,0.0,0.0,0.0,0.0,0.0,0.0,0.0,0.0,0.0,0.0,0.0,0.0,0.0,0.0,0.0,0.0,0.0,0.0,0.0,0.0,0.0,0.0,0.0,0.0,0.0,0.0,0.0,0.0,0.0,0.0,0.0,0.0,0.0,0.0,0.0,0.0,0.0,0.0,0.0,0.0,0.0,0.0,0.0,0.0,0.0,0.0,1.49,1.5672,1.607,1.6076,1.5821,1.5457,0.0,0.0,0.0,0.0,0.0,0.0,0.0,0.0,0.0,0.0,0.0,0.0,0.0,0.0,0.0,0.0,0.0,0.0,0.0,0.0,0.0,0.0,0.0,0.0,0.0,0.0,0.0,0.0,0.0,0.0,0.0,0.0,0.0,0.0,0.0,0.0,0.0,0.0,0.0,0.0,0.0,0.0,0.0,0.0,0.0,0.0,0.0,0.0,0.0,0.0,0.0,0.0,0.0,0.0,0.0,0.0,0.0,0.0,0.0,0.0,0.0,0.0,0.0,0.0,0.0,0.0,0.0,0.0,0.0,0.0,0.0,0.0,0.0,0.0,0.0,0.0,0.0,0.0,0.0,0.0,0.0,0.0,0.0,0.0,0.0,0.0,0.0,0.0,0.0,0.0,0.0,0.0,0.0,0.0,0.0,0.0,0.0,0.0,0.0,0.0,0.0,0.0,0.0,0.0,0.0,0.0,0.0,0.0,1.4972,1.5749,1.6548,1.6982,1.6904,1.622,1.5754,0.0,0.0,0.0,0.0,0.0,0.0,0.0,0.0,0.0,0.0,0.0,0.0,0.0,0.0,0.0,0.0,0.0,0.0,0.0,0.0,0.0,0.0,0.0,0.0,0.0,0.0,0.0,0.0,0.0,0.0,0.0,0.0,0.0,0.0,0.0,0.0,0.0,0.0,0.0,0.0,0.0,0.0,0.0,0.0,0.0,0.0,0.0,0.0,0.0,0.0,0.0,0.0,0.0,0.0,0.0,0.0,0.0,0.0,0.0,0.0,0.0,0.0,0.0,0.0,0.0,0.0,0.0,0.0,0.0,0.0,0.0,0.0,0.0,0.0,0.0,0.0,0.0,0.0,0.0,0.0,0.0,0.0,0.0,0.0,0.0,0.0,0.0,0.0,0.0,0.0,0.0,0.0,0.0,0.0,0.0,0.0,0.0,0.0,0.0,0.0,0.0,0.0,0.0,0.0,0.0,0.0,0.0,0.0,0.0,1.8174,1.8428,1.8537,1.8541,1.8321,1.7403,0.0,0.0,0.0,0.0,0.0,0.0,0.0,0.0,0.0,0.0,0.0,0.0,0.0,0.0,0.0,0.0,0.0,0.0,0.0,0.0,0.0,0.0,0.0,0.0,0.0,0.0,0.0,0.0,0.0,0.0,0.0,0.0,0.0,0.0,0.0,0.0,0.0,0.0,0.0,0.0,0.0,0.0,0.0,0.0,0.0,0.0,0.0,0.0,0.0,0.0,0.0,0.0,0.0,0.0,0.0,0.0,0.0,0.0,0.0,0.0,0.0,0.0,0.0,0.0,0.0,0.0,0.0,0.0,0.0,0.0,0.0,0.0,0.0,0.0,0.0,0.0,0.0,0.0,0.0,0.0,0.0,0.0,0.0,0.0,0.0,0.0,0.0,0.0,0.0,0.0,0.0,0.0,0.0,0.0,0.0,0.0,0.0,0.0,0.0,0.0,0.0,0.0,0.0,0.0,0.0,0.0,0.0,0.0,0.0,2.1521,2.1258,2.1107,2.1146,2.0564,1.9094,1.6706,0.0,0.0,0.0,0.0,0.0,0.0,0.0,0.0,0.0,0.0,0.0,0.0,0.0,0.0,0.0,0.0,0.0,0.0,0.0,0.0,0.0,0.0,0.0,0.0,0.0,0.0,0.0,0.0,0.0,0.0,0.0,0.0,0.0,0.0,0.0,0.0,0.0,0.0,0.0,0.0,0.0,0.0,0.0,0.0,0.0,0.0,0.0,0.0,0.0,0.0,0.0,0.0,0.0,0.0,0.0,0.0,0.0,0.0,0.0,0.0,0.0,0.0,0.0,0.0,0.0,0.0,0.0,0.0,0.0,0.0,0.0,0.0,0.0,0.0,0.0,0.0,0.0,0.0,0.0,0.0,0.0,0.0,0.0,0.0,0.0,0.0,0.0,0.0,0.0,0.0,0.0,0.0,0.0,0.0,0.0,0.0,0.0,0.0,0.0,0.0,0.0,0.0,0.0,0.0,0.0,0.0,0.0,0.0,2.549,2.4932,2.452,2.4373,2.2841,2.0856,0.0,0.0,0.0,0.0,0.0,0.0,0.0,0.0,0.0,0.0,0.0,0.0,0.0,0.0,0.0,0.0,0.0,0.0,0.0,0.0,0.0,0.0,0.0,0.0,0.0,0.0,0.0,0.0,0.0,0.0,0.0,0.0,0.0,0.0,0.0,0.0,0.0,0.0,0.0,0.0,0.0,0.0,0.0,0.0,0.0,0.0,0.0,0.0,0.0,0.0,0.0,0.0,0.0,0.0,0.0,0.0,0.0,0.0,0.0,0.0,0.0,0.0,0.0,0.0,0.0,0.0,0.0,0.0,0.0,0.0,0.0,0.0,0.0,0.0,0.0,0.0,0.0,0.0,0.0,0.0,0.0,0.0,0.0,0.0,0.0,0.0,0.0,0.0,0.0,0.0,0.0,0.0,0.0,0.0,0.0,0.0,0.0,0.0,0.0,0.0,0.0,0.0,0.0,0.0,0.0,0.0,0.0,0.0,0.0,2.7099,2.871,2.8675,2.6909,2.5301,2.3323,0.0,0.0,0.0,0.0,0.0,0.0,0.0,0.0,0.0,0.0,0.0,0.0,0.0,0.0,0.0,0.0,0.0,0.0,0.0,0.0,0.0,0.0,0.0,0.0,0.0,0.0,0.0,0.0,0.0,0.0,0.0,0.0,0.0,0.0,0.0,0.0,0.0,0.0,0.0,0.0,0.0,0.0,0.0,0.0,0.0,0.0,0.0,0.0,0.0,0.0,0.0,0.0,0.0,0.0,0.0,0.0,0.0,0.0,0.0,0.0,0.0,0.0,0.0,0.0,0.0,0.0,0.0,0.0,0.0,0.0,0.0,0.0,0.0,0.0,0.0,0.0,0.0,0.0,0.0,0.0,0.0,0.0,0.0,0.0,0.0,0.0,0.0,0.0,0.0,0.0,0.0,0.0,0.0,0.0,0.0,0.0,0.0,0.0,0.0,0.0,0.0,0.0,0.0,0.0,0.0,0.0,0.0,0.0,2.6911,2.9264,3.1352,3.1901,3.0863,2.7941,2.5115,0.0,0.0,0.0,0.0,0.0,0.0,0.0,0.0,0.0,0.0,0.0,0.0,0.0,0.0,0.0,0.0,0.0,0.0,0.0,0.0,0.0,0.0,0.0,0.0,0.0,0.0,0.0,0.0,0.0,0.0,0.0,0.0,0.0,0.0,0.0,0.0,0.0,0.0,0.0,0.0,0.0,0.0,0.0,0.0,0.0,0.0,0.0,0.0,0.0,0.0,0.0,0.0,0.0,0.0,0.0,0.0,0.0,0.0,0.0,0.0,0.0,0.0,0.0,0.0,0.0,0.0,0.0,0.0,0.0,0.0,0.0,0.0,0.0,0.0,0.0,0.0,0.0,0.0,0.0,0.0,0.0,0.0,0.0,0.0,0.0,0.0,0.0,0.0,0.0,0.0,0.0,0.0,0.0,0.0,0.0,0.0,0.0,0.0,0.0,0.0,0.0,0.0,0.0,0.0,0.0,0.0,0.0,0.0,2.9188,3.1501,3.3071,3.4277,3.4814,3.0496,2.6577,0.0,0.0,0.0,0.0,0.0,0.0,0.0,0.0,0.0,0.0,0.0,0.0,0.0,0.0,0.0,0.0,0.0,0.0,0.0,0.0,0.0,0.0,0.0,0.0,0.0,0.0,0.0,0.0,0.0,0.0,0.0,0.0,0.0,0.0,0.0,0.0,0.0,0.0,0.0,0.0,0.0,0.0,0.0,0.0,0.0,0.0,0.0,0.0,0.0,0.0,0.0,0.0,0.0,0.0,0.0,0.0,0.0,0.0,0.0,0.0,0.0,0.0,0.0,0.0,0.0,0.0,0.0,0.0,0.0,0.0,0.0,0.0,0.0,0.0,0.0,0.0,0.0,0.0,0.0,0.0,0.0,0.0,0.0,0.0,0.0,0.0,0.0,0.0,0.0,0.0,0.0,0.0,0.0,0.0,0.0,0.0,0.0,0.0,0.0,0.0,0.0,0.0,0.0,0.0,0.0,0.0,0.0,0.0,3.0575,3.2335,3.3909,3.4819,3.4964,3.1558,2.8482,0.0,0.0,0.0,0.0,0.0,0.0,0.0,0.0,0.0,0.0,0.0,0.0,0.0,0.0,0.0,0.0,0.0,0.0,0.0,0.0,0.0,0.0,0.0,0.0,0.0,0.0,0.0,0.0,0.0,0.0,0.0,0.0,0.0,0.0,0.0,0.0,0.0,0.0,0.0,0.0,0.0,0.0,0.0,0.0,0.0,0.0,0.0,0.0,2.0183,0.0,0.0,0.0,0.0,0.0,0.0,0.0,0.0,0.0,0.0,0.0,0.0,0.0,0.0,0.0,0.0,0.0,0.0,0.0,0.0,0.0,0.0,0.0,0.0,0.0,0.0,0.0,0.0,0.0,0.0,0.0,0.0,0.0,0.0,0.0,0.0,0.0,0.0,0.0,0.0,0.0,0.0,0.0,0.0,0.0,0.0,0.0,0.0,0.0,0.0,0.0,0.0,0.0,0.0,0.0,0.0,0.0,0.0,0.0,3.1938,3.4239,3.4786,3.5373,3.6044,3.3401,3.0574,0.0,0.0,0.0,0.0,0.0,0.0,0.0,0.0,0.0,0.0,0.0,0.0,0.0,0.0,0.0,0.0,0.0,0.0,0.0,0.0,0.0,0.0,0.0,0.0,0.0,0.0,0.0,0.0,0.0,0.0,0.0,0.0,0.0,0.0,0.0,0.0,0.0,0.0,0.0,0.0,0.0,0.0,0.0,0.0,0.0,0.0,0.0,0.0,0.0,0.0,0.0,0.0,0.0,0.0,0.0,0.0,0.0,0.0,0.0,0.0,0.0,0.0,0.0,0.0,0.0,0.0,0.0,0.0,0.0,0.0,0.0,0.0,0.0,0.0,0.0,0.0,0.0,0.0,0.0,0.0,0.0,0.0,0.0,0.0,0.0,0.0,0.0,0.0,0.0,0.0,0.0,0.0,0.0,0.0,0.0,0.0,0.0,0.0,0.0,0.0,0.0,0.0,0.0,0.0,0.0,0.0,0.0,3.0214,3.3223,3.6125,3.556,3.5894,3.7233,3.5023,3.2412,2.9427,0.0,0.0,0.0,0.0,0.0,0.0,0.0,0.0,0.0,0.0,0.0,0.0,0.0,0.0,0.0,0.0,0.0,0.0,0.0,0.0,0.0,0.0,0.0,0.0,0.0,0.0,0.0,0.0,0.0,0.0,0.0,0.0,0.0,0.0,0.0,0.0,0.0,0.0,1.6928,1.8626,0.0,0.0,0.0,0.0,0.0,0.0,0.0,0.0,2.4289,0.0,0.0,0.0,0.0,0.0,0.0,0.0,0.0,0.0,0.0,0.0,0.0,0.0,0.0,0.0,0.0,0.0,0.0,0.0,0.0,0.0,0.0,0.0,0.0,0.0,0.0,0.0,0.0,0.0,0.0,0.0,0.0,0.0,0.0,0.0,0.0,0.0,0.0,0.0,0.0,0.0,0.0,0.0,0.0,0.0,0.0,0.0,0.0,0.0,0.0,0.0,0.0,0.0,0.0,0.0,0.0,2.9543,3.2117,3.4359,3.6237,3.6156,3.6228,3.6452,3.4728,3.2928,3.0987,0.0,0.0,0.0,0.0,0.0,0.0,0.0,0.0,0.0,0.0,0.0,0.0,0.0,0.0,0.0,0.0,0.0,0.0,0.0,0.0,0.0,0.0,0.0,0.0,0.0,0.0,0.0,0.0,0.0,0.0,0.0,0.0,0.0,0.0,0.0,0.0,0.0,0.0,0.0,2.1738,2.3648,0.0,0.0,0.0,0.0,0.0,0.0,0.0,0.0,2.5753,0.0,0.0,0.0,0.0,0.0,0.0,0.0,0.0,0.0,0.0,0.0,0.0,0.0,0.0,0.0,0.0,0.0,0.0,0.0,0.0,0.0,0.0,0.0,0.0,0.0,0.0,0.0,0.0,0.0,0.0,0.0,0.0,0.0,0.0,0.0,0.0,0.0,0.0,0.0,0.0,0.0,0.0,0.0,0.0,0.0,0.0,0.0,0.0,0.0,0.0,0.0,0.0,0.0,0.0,0.0,3.0207,3.3849,3.6306,3.7474,3.7555,3.7551,3.751,3.5936,3.3922,0.0,0.0,0.0,0.0,0.0,0.0,0.0,0.0,0.0,0.0,0.0,0.0,0.0,0.0,0.0,0.0,0.0,0.0,0.0,0.0,0.0,0.0,0.0,0.0,0.0,0.0,0.0,0.0,0.0,0.0,0.0,0.0,0.0,0.0,0.0,0.0,0.0,0.0,0.0,0.0,2.407,2.6036,2.7723,0.0,0.0,0.0,0.0,0.0,0.0,2.8979,2.7756,0.0,0.0,0.0,0.0,0.0,0.0,0.0,0.0,0.0,0.0,0.0,0.0,0.0,0.0,0.0,0.0,0.0,0.0,0.0,0.0,0.0,0.0,0.0,0.0,0.0,0.0,0.0,0.0,0.0,0.0,0.0,0.0,0.0,0.0,0.0,0.0,0.0,0.0,0.0,0.0,0.0,0.0,0.0,0.0,0.0,0.0,0.0,0.0,0.0,0.0,0.0,0.0,0.0,0.0,0.0,3.0942,3.51,3.7707,3.8648,3.8536,3.8469,3.8428,3.6885,3.4653,0.0,0.0,0.0,0.0,0.0,0.0,0.0,0.0,0.0,0.0,0.0,0.0,0.0,0.0,0.0,0.0,0.0,0.0,0.0,0.0,0.0,0.0,0.0,0.0,0.0,0.0,0.0,0.0,0.0,0.0,0.0,0.0,0.0,0.0,0.0,0.0,0.0,0.0,0.0,0.0,0.0,2.803,3.0531,3.0249,0.0,0.0,0.0,0.0,3.0804,3.0489,0.0,0.0,0.0,0.0,0.0,0.0,0.0,0.0,0.0,0.0,0.0,0.0,0.0,0.0,0.0,0.0,0.0,0.0,0.0,0.0,0.0,0.0,0.0,0.0,0.0,0.0,0.0,0.0,0.0,0.0,0.0,0.0,0.0,0.0,0.0,0.0,0.0,0.0,0.0,0.0,0.0,0.0,0.0,0.0,0.0,0.0,0.0,0.0,0.0,0.0,0.0,0.0,0.0,0.0,0.0,0.0,3.326,3.5389,3.7189,3.8575,3.7997,3.7637,3.7597,3.6041,3.4304,0.0,0.0,0.0,0.0,0.0,0.0,0.0,0.0,0.0,0.0,0.0,0.0,0.0,0.0,0.0,0.0,0.0,0.0,0.0,0.0,0.0,0.0,0.0,0.0,0.0,0.0,0.0,0.0,0.0,0.0,0.0,0.0,0.0,0.0,0.0,0.0,0.0,0.0,0.0,0.0,0.0,2.9727,3.2272,3.2432,3.2498,0.0,0.0,3.4361,3.5051,3.3766,0.0,0.0,0.0,0.0,0.0,0.0,0.0,0.0,0.0,0.0,0.0,0.0,0.0,0.0,0.0,0.0,0.0,0.0,0.0,0.0,0.0,0.0,0.0,0.0,0.0,0.0,0.0,0.0,0.0,0.0,0.0,0.0,0.0,0.0,0.0,0.0,0.0,0.0,0.0,0.0,0.0,0.0,0.0,0.0,0.0,0.0,0.0,0.0,0.0,0.0,0.0,0.0,0.0,0.0,0.0,3.0353,3.3767,3.7257,3.9166,3.9388,3.9029,3.8625,3.8181,3.6597,3.4751,0.0,0.0,0.0,0.0,0.0,0.0,0.0,0.0,0.0,0.0,0.0,0.0,0.0,0.0,0.0,0.0,0.0,0.0,0.0,0.0,0.0,0.0,0.0,0.0,0.0,0.0,0.0,0.0,0.0,0.0,0.0,0.0,0.0,0.0,0.0,0.0,0.0,0.0,0.0,0.0,0.0,0.0,3.2391,3.3302,0.0,0.0,0.0,3.435,3.4256,0.0,0.0,0.0,0.0,0.0,0.0,0.0,0.0,0.0,0.0,0.0,0.0,0.0,0.0,0.0,0.0,0.0,0.0,0.0,0.0,0.0,0.0,0.0,0.0,0.0,0.0,0.0,0.0,0.0,0.0,0.0,0.0,0.0,0.0,0.0,0.0,0.0,0.0,0.0,0.0,0.0,0.0,0.0,0.0,0.0,0.0,0.0,0.0,0.0,0.0,0.0,0.0,0.0,0.0,0.0,0.0,0.0,3.473,3.8722,4.0594,4.0192,3.9833,3.9317,3.8687,3.752,0.0,0.0,0.0,0.0,0.0,0.0,0.0,0.0,0.0,0.0,0.0,0.0,0.0,0.0,0.0,0.0,0.0,0.0,0.0,0.0,0.0,0.0,0.0,0.0,0.0,0.0,0.0,1.5929,0.0,0.0,0.0,0.0,0.0,0.0,0.0,0.0,0.0,0.0,0.0,0.0,0.0,0.0,3.1836,3.3094,3.4221,3.4937,0.0,0.0,3.428,3.364,3.4411,3.4378,0.0,0.0,0.0,0.0,0.0,0.0,0.0,0.0,0.0,0.0,0.0,0.0,0.0,0.0,0.0,0.0,0.0,0.0,0.0,0.0,0.0,0.0,0.0,0.0,0.0,0.0,0.0,0.0,0.0,0.0,0.0,0.0,0.0,0.0,0.0,0.0,0.0,0.0,0.0,0.0,0.0,0.0,0.0,0.0,0.0,0.0,0.0,0.0,0.0,0.0,0.0,0.0,0.0,0.0,0.0,3.7162,3.9064,4.0339,4.0954,3.9566,3.8758,3.8683,3.8569,3.736,0.0,0.0,0.0,0.0,0.0,0.0,0.0,0.0,0.0,0.0,0.0,0.0,0.0,0.0,0.0,0.0,0.0,0.0,0.0,0.0,0.0,0.0,0.0,0.0,0.0,0.0,0.0,0.0,0.0,0.0,0.0,0.0,0.0,0.0,0.0,0.0,0.0,0.0,0.0,0.0,0.0,3.2989,3.5322,3.5722,3.5928,0.0,0.0,3.5163,3.5056,3.5007,3.4718,3.3777,0.0,0.0,0.0,0.0,0.0,0.0,0.0,0.0,0.0,0.0,0.0,0.0,0.0,0.0,0.0,0.0,0.0,0.0,0.0,0.0,0.0,0.0,0.0,0.0,0.0,0.0,0.0,0.0,0.0,0.0,0.0,0.0,0.0,0.0,0.0,0.0,0.0,0.0,0.0,0.0,0.0,0.0,0.0,0.0,0.0,0.0,0.0,0.0,0.0,0.0,0.0,0.0,0.0,3.4401,3.7456,3.957,4.0812,4.1028,3.9529,3.8683,3.8683,3.8219,3.7301,0.0,0.0,0.0,0.0,0.0,0.0,0.0,0.0,0.0,0.0,0.0,0.0,0.0,0.0,0.0,0.0,0.0,0.0,0.0,0.0,0.0,0.0,0.0,0.0,0.0,0.0,0.0,0.0,2.3188,2.3607,2.3798,0.0,0.0,0.0,0.0,0.0,0.0,0.0,0.0,0.0,0.0,3.3922,3.5338,3.59,0.0,0.0,3.5457,3.5251,3.5201,3.5548,3.5525,3.4674,3.362,0.0,0.0,0.0,0.0,0.0,0.0,0.0,0.0,0.0,0.0,0.0,0.0,0.0,0.0,0.0,0.0,0.0,0.0,0.0,0.0,0.0,0.0,0.0,0.0,0.0,0.0,0.0,0.0,0.0,0.0,0.0,0.0,0.0,0.0,0.0,0.0,0.0,0.0,0.0,0.0,0.0,0.0,0.0,0.0,0.0,0.0,0.0,0.0,0.0,0.0,0.0,0.0,3.5647,3.7858,4.0229,4.1323,4.1095,4.0002,3.9415,3.9419,3.887,3.8215,0.0,0.0,0.0,0.0,0.0,0.0,0.0,0.0,0.0,0.0,0.0,0.0,0.0,0.0,0.0,0.0,0.0,0.0,0.0,0.0,0.0,0.0,0.0,0.0,0.0,0.0,0.0,0.0,2.5523,2.5721,2.4745,0.0,0.0,0.0,0.0,0.0,0.0,0.0,0.0,0.0,0.0,3.4999,3.5528,3.6087,3.6162,3.5562,3.5101,3.4887,3.5097,3.5378,3.5494,3.541,0.0,0.0,0.0,0.0,0.0,0.0,0.0,0.0,0.0,0.0,0.0,0.0,0.0,0.0,0.0,0.0,0.0,0.0,0.0,0.0,0.0,0.0,0.0,0.0,0.0,0.0,0.0,0.0,0.0,0.0,1.9241,0.0,0.0,0.0,0.0,0.0,0.0,0.0,0.0,0.0,0.0,0.0,0.0,0.0,0.0,0.0,0.0,0.0,0.0,0.0,0.0,0.0,0.0,3.7037,3.8685,4.1001,4.1878,4.1175,4.106,4.1022,4.1024,4.1022,4.0632,3.9761,0.0,0.0,0.0,0.0,0.0,0.0,0.0,0.0,0.0,0.0,0.0,0.0,0.0,0.0,0.0,0.0,0.0,0.0,0.0,0.0,0.0,0.0,0.0,0.0,0.0,0.0,2.3193,2.5879,2.7124,0.0,0.0,0.0,0.0,0.0,0.0,0.0,0.0,0.0,0.0,3.5378,3.6346,3.6392,3.6403,3.6407,3.6271,3.4959,3.4216,3.4922,3.4418,3.4392,0.0,0.0,0.0,0.0,0.0,0.0,0.0,0.0,0.0,0.0,0.0,0.0,0.0,0.0,0.0,0.0,0.0,0.0,0.0,0.0,0.0,0.0,0.0,0.0,0.0,0.0,0.0,2.5762,2.569,0.0,0.0,0.0,0.0,0.0,0.0,0.0,0.0,0.0,0.0,0.0,3.2583,3.287,0.0,0.0,0.0,0.0,0.0,0.0,0.0,0.0,0.0,0.0,0.0,0.0,3.7369,3.9423,4.0814,4.1656,4.188,4.1393,4.1095,4.1095,4.1095,4.0738,3.9906,0.0,0.0,0.0,0.0,0.0,0.0,0.0,0.0,0.0,0.0,0.0,0.0,0.0,0.0,0.0,0.0,0.0,0.0,0.0,0.0,0.0,0.0,0.0,0.0,0.0,2.6323,0.0,0.0,0.0,0.0,0.0,0.0,0.0,0.0,0.0,0.0,0.0,3.4089,3.5402,3.6507,3.7187,3.7115,3.7129,3.6926,0.0,0.0,0.0,0.0,0.0,0.0,0.0,0.0,0.0,0.0,0.0,0.0,0.0,0.0,3.479,3.2691,3.2393,3.2575,3.2791,0.0,0.0,0.0,0.0,0.0,0.0,0.0,0.0,0.0,0.0,0.0,0.0,0.0,0.0,3.0496,0.0,2.9988,0.0,0.0,0.0,0.0,0.0,0.0,0.0,0.0,3.516,3.6516,3.6732,3.6987,3.6987,0.0,3.5605,3.3627,0.0,0.0,0.0,0.0,0.0,0.0,0.0,0.0,3.8327,3.9871,4.126,4.2174,4.2694,4.2461,4.2498,4.2757,4.2498,4.1837,4.075,3.9464,3.7887,0.0,0.0,0.0,0.0,0.0,0.0,0.0,0.0,0.0,0.0,0.0,0.0,0.0,0.0,0.0,0.0,0.0,0.0,0.0,0.0,0.0,0.0,0.0,2.9702,0.0,0.0,0.0,0.0,0.0,0.0,0.0,0.0,0.0,3.1553,3.3873,3.5858,3.663,3.7451,3.7867,3.7549,0.0,0.0,0.0,0.0,0.0,0.0,0.0,3.7481,3.8583,3.8548,3.8633,3.9411,3.9293,3.9104,3.9113,0.0,0.0,3.6033,3.5652,3.5799,3.6006,3.6091,3.638,3.7181,3.7953,3.8613,0.0,0.0,0.0,0.0,0.0,0.0,0.0,0.0,3.3695,3.3655,0.0,3.3695,0.0,0.0,0.0,0.0,0.0,3.5546,0.0,0.0,4.1014,4.2146,4.009,4.0706,4.074,3.9945,3.8449,3.807,3.8571,3.6395,0.0,0.0,0.0,0.0,0.0,0.0,3.9947,4.0128,4.2292,4.3512,4.362,4.4303,4.5067,4.5773,4.5071,4.3966,4.2465,4.1619,4.0812,3.9943,3.6195,0.0,0.0,0.0,0.0,0.0,0.0,0.0,0.0,0.0,0.0,0.0,0.0,0.0,0.0,0.0,0.0,0.0,0.0,0.0,0.0,2.9703,0.0,0.0,0.0,0.0,0.0,0.0,0.0,0.0,0.0,0.0,3.4139,3.5464,3.6679,3.7456,0.0,0.0,0.0,0.0,3.7636,3.7637,3.6983,3.7012,3.8547,3.8784,3.9305,4.0844,0.0,0.0,4.1247,4.0522,4.0067,4.0049,4.0672,4.0679,3.9146,3.8881,3.8919,3.8865,3.8967,3.915,3.9298,3.9714,3.996,3.4902,0.0,0.0,0.0,0.0,3.5073,3.628,3.7885,3.8687,3.8899,3.8637,3.8322,0.0,0.0,0.0,0.0,0.0,0.0,3.8003,3.8915,4.0312,4.1156,4.1623,4.1844,4.2139,4.2441,4.2003,4.1891,4.2072,4.1409,3.979,3.7366,0.0,0.0,0.0,0.0,4.0754,4.2407,4.3143,4.4052,4.5193,4.5443,4.5663,4.5888,4.5108,4.4737,4.4856,4.4113,4.3048,4.166,3.997,0.0,0.0,0.0,0.0,0.0,0.0,0.0,0.0,0.0,0.0,0.0,0.0,0.0,0.0,0.0,0.0,0.0,0.0,0.0,3.1566,3.4184,3.4988,0.0,0.0,0.0,0.0,0.0,0.0,0.0,0.0,0.0,3.8107,3.8586,3.8729,0.0,0.0,4.0131,3.9326,3.9696,4.0073,4.0051,3.9878,0.0,0.0,4.0406,4.0771,4.1803,4.2614,4.2878,4.2113,4.2207,4.2486,4.2477,4.2664,4.2636,4.2279,4.2141,4.182,4.1071,4.1297,4.1977,4.2732,4.2622,4.2608,3.8667,3.7582,3.6331,3.6372,3.7339,3.8052,3.9478,4.1377,4.1844,4.1876,4.1582,4.1409,4.0455,3.8911,3.8434,0.0,0.0,0.0,4.0096,4.1344,4.1305,4.1856,4.2731,4.2804,4.3208,4.3942,4.3653,4.3839,4.4422,4.4124,4.3165,4.1582,0.0,0.0,4.1303,4.1664,4.2508,4.3901,4.4312,4.5076,4.6351,4.6686,4.6686,4.639,4.5906,4.573,4.5886,4.5441,4.4743,4.3752,4.2353,4.011,0.0,0.0,0.0,0.0,0.0,0.0,0.0,0.0,0.0,0.0,0.0,2.5106,2.5596,0.0,0.0,0.0,3.2888,3.41,3.6481,3.7191,0.0,0.0,0.0,0.0,0.0,0.0,0.0,3.6879,3.8553,3.9959,4.0752,4.1409,4.1479,4.0712,4.1177,4.1515,4.1344,0.0,4.1706,4.1998,4.2042,4.218,4.2473,4.2805,4.3266,4.408,4.4303,4.429,4.385,4.4121,4.4444,4.4476,4.4716,4.484,4.4506,4.4945,4.472,4.281,4.2719,4.3392,4.4401,4.4294,4.4452,4.2253,4.1926,3.7626,3.7222,3.9391,3.9902,4.1388,4.3469,4.3467,4.3063,4.2472,4.3173,4.2657,4.1283,4.1281,0.0,4.1319,4.2133,4.2843,4.3506,4.3543,4.3616,4.3618,4.3614,4.4016,4.4775,4.4052,4.4456,4.581,4.5147,4.5181,4.5925,4.4605,4.3839,4.3724,4.4413,4.4849,4.4996,4.5732,4.6505,4.7369,4.8115,4.8147,4.7448,4.7337,4.6975,4.6253,4.6179,4.6143,4.592,4.3938,4.2319,4.1246,0.0,0.0,0.0,0.0,0.0,0.0,0.0,0.0,0.0,0.0,0.0,0.0,0.0,0.0,0.0,3.7417,0.0,4.0734,3.9023,0.0,0.0,0.0,3.7191,3.8725,3.8356,3.8546,4.0041,0.0,0.0,4.258,4.4005,4.4743,4.4167,4.3258,4.296,4.3692,4.3193,4.2937,4.3738,4.3741,4.3944,4.4547,4.5196,4.5803,4.6498,4.6393,4.5839,4.5764,4.5797,4.5881,4.5782,4.6473,4.6769,4.6097,4.7036,4.7307,4.4459,4.3886,4.4065,4.4823,4.5125,4.546,4.172,4.1946,4.0747,4.1102,4.2421,4.2557,4.294,4.3469,4.3504,4.3398,4.321,4.3433,4.3284,4.2916,4.2914,4.2955,4.2955,4.3752,4.3897,4.3541,4.4121,4.4406,4.4406,4.4406,4.4856,4.5548,4.5408,4.5521,4.5886,4.5702,4.6026,4.6785,4.7053,4.6539,4.5413,4.5514,4.6211,4.7416,4.7643,4.8448,4.9877,5.01,5.0102,4.9916,4.9339,4.8903,4.8724,4.8727,4.813,4.6895,4.6828,4.5698,4.3061,4.0846,0.0,0.0,0.0,0.0,0.0,0.0,0.0,0.0,0.0,3.171,3.226,0.0,3.7731,0.0,4.0863,4.1338,3.9454,3.9859,0.0,0.0,3.9021,3.9427,4.0406,4.1421,4.2236,4.2602,4.39,4.5072,4.5831,4.6828,4.7861,4.8859,4.727,4.6057,4.6234,4.6085,4.6005,4.6132,4.5771,4.5422,4.5676,4.5741,4.6032,4.6143,4.603,4.5902,4.5908,4.5884,4.5911,4.5905,4.6043,4.6301,4.6821,4.7156,4.7426,4.7116,4.6686,4.6273,4.6498,4.6133,4.6009,4.2608,4.2905,4.3127,4.3599,4.4171,4.4063,4.4234,4.4569,4.4564,4.4566,4.4571,4.4569,4.4569,4.4571,4.4569,4.4569,4.4605,4.5037,4.5,4.4603,4.5037,4.5216,4.5257,4.562,4.6168,4.6982,4.7354,4.7684,4.8054,4.8088,4.8306,4.8773,4.9177,4.8962,4.8122,4.8086,4.871,4.9924,4.9588,4.9843,5.0763,5.0802,5.0616,5.0259,4.9826,4.9424,4.905,4.9047,4.8597,4.7672,4.7707,4.6799,4.4679,4.302,4.1258,0.0,0.0,0.0,0.0,0.0,0.0,0.0,0.0,0.0,0.0,0.0,4.0855,4.0969,4.218,4.2254,4.0449,4.1105,4.1544,4.1399,4.1766,4.2363,4.3133,4.4049,4.483,4.5552,4.6423,4.7429,4.8573,4.914,4.9879,5.1132,5.0159,4.9151,4.8795,4.8462,4.8325,4.8652,4.8382,4.807,4.8068,4.8085,4.7976,4.7655,4.7829,4.799,4.7665,4.8161,4.8605,4.8641,4.8911,4.9267,4.9749,4.9796,4.9969,5.0237,5.0129,4.9466,4.8448,4.7864,4.7846,4.4425,4.4626,4.512,4.5353,4.5413,4.525,4.5436,4.5888,4.5888,4.5888,4.5888,4.5888,4.5888,4.5888,4.5888,4.5888,4.5888,4.6101,4.6214,4.6216,4.64,4.651,4.6544,4.7232,4.7964,4.8627,4.9334,5.007,5.0802,5.0802,5.0802,5.0802,5.0912,5.1056,5.124,5.124,5.1499,5.1987,5.1392,5.113,5.113,5.1091,5.0763,5.0119,4.997,4.949,4.8666,4.8631,4.8519,4.8304,4.7741,4.7049,4.6214,4.4789,4.3279,0.0,4.0852,0.0,0.0,0.0,0.0,0.0,0.0,0.0,0.0,4.2621,4.3176,4.2359,4.2472,4.2612,4.2614,4.2727,4.331,4.4663,4.4952,4.5329,4.6096,4.629,4.6961,4.8437,4.8611,4.9217,5.0662,5.0946,5.124,5.2021,5.2181,5.1931,5.1349,5.0487,5.0185,5.099,5.1108,5.0912,5.0953,5.101,5.0799,5.0264,5.0548,5.0835,5.0174,5.1105,5.2063,5.209,5.2416,5.3007,5.3324,5.3279,5.3289,5.3318,5.3327,5.2593,5.0702,5.0088,5.0529,4.6539,4.7456,4.7099,4.7218,4.7687,4.7634,4.698,4.5888,4.5888,4.5888,4.5888,4.5888,4.5888,4.5888,4.5888,4.5888,4.5993,4.7276,4.7863,4.79,4.9258,4.9882,4.9879,5.0026,5.0168,5.0322,5.0469,5.0618,5.0802,5.0802,5.0802,5.0802,5.1431,5.2422,5.3662,0.0,0.0,0.0,5.2485,5.2737,5.274,5.2737,5.2664,5.2519,5.1872,0.0,5.0396,5.032,4.9693,4.8411,4.8822,0.0,0.0,0.0,0.0,0.0,0.0,0.0,0.0,0.0,0.0,0.0,4.2519,4.229,4.2137,4.2953,4.3171,4.2433,4.3491,4.4262,4.4257,4.4856,4.5337,4.5626,4.6276,4.6976,4.7752,4.8432,4.9284,5.019,5.031,5.0694,5.1579,5.1759,5.2087,5.2886,5.3542,5.3872,5.3705,5.2448,5.1897,5.2548,5.2757,5.2738,5.2753,5.2734,5.2703,5.2553,5.2632,5.2658,5.2536,5.2704,5.2992,5.305,5.3098,5.3505,5.4086,5.4188,5.4473,5.5016,5.5139,5.4622,5.2886,5.2535,5.2614,4.699,0.0,4.7968,4.8272,0.0,4.9251,4.9077,4.8304,4.7909,4.7951,4.8304,4.8306,4.8345,4.8308,4.8304,4.8304,4.834,4.9184,4.9547,4.9586,5.0396,5.0802,5.0802,5.1208,5.1392,5.1431,5.2199,5.2559,5.2598,5.2973,5.3193,5.3188,5.3558,5.419,5.4958,5.4992,5.4588,5.3783,5.4184,5.4363,5.4397,5.4363,5.4365,5.4363,0.0,0.0,0.0,0.0,0.0,0.0,0.0,0.0,0.0,0.0,0.0,4.6537,4.5732,4.5294,4.5257,4.4883,4.5035,4.581,4.6257,4.5821,4.4234,4.4456,4.4711,4.4702,4.5429,4.6051,4.6464,4.7205,4.7909,4.8267,4.8705,4.9108,4.9494,4.992,5.0498,5.1209,5.141,5.1695,5.247,5.2968,5.3298,5.377,5.4467,5.4978,5.4961,5.4327,5.3949,5.4322,5.4374,5.4371,5.439,5.4397,5.421,5.3956,5.41,5.4196,5.3878,5.4451,5.4966,5.5014,5.5292,5.5736,5.6057,5.6153,5.6324,5.6675,5.6794,5.6571,5.5684,5.4953,5.4507,4.7155,4.7235,4.8325,4.8791,4.8884,5.0069,5.0742,5.0951,0.0,0.0,0.0,5.0802,5.0802,5.0802,5.0802,5.0802,5.0802,5.0949,5.102,5.1022,5.1167,5.1311,5.1465,5.2123,5.2498,5.2679,5.3998,5.462,5.4622,5.5288,5.5622,5.5622,5.5622,5.5656,5.58,5.5952,5.6099,5.6206,5.5805,5.5622,5.5622,5.5726,5.5805,5.5802,5.5952,5.5244,5.3694,5.3623,5.2892,5.1308,5.1093,5.0734,5.008,5.0046,4.9339,4.7929,4.7893,4.7888,4.7775,4.778,4.8039,4.8702,4.9419,4.8832,4.6512,4.6581,4.698,4.7489,4.7663,4.8037,4.8668,4.9378,5.0078,5.0729,5.0912,5.0986,5.104,5.1316,5.176,5.2325,5.2602,5.2862,5.3568,5.4182,5.4622,5.4698,5.532,5.5913,5.5969,5.585,5.5647,5.5739,5.5876,5.6037,5.6012,5.602,5.5726,5.5283,5.5653,5.5754,5.5427,5.6129,5.6904,5.6863,5.7586,5.7802,5.7923,5.7804,5.8002,5.8002,5.8002,5.8002,5.7892,5.698,5.6243,4.8448,4.8454,4.8647,4.8723,4.8788,4.952,5.0596,5.1756,5.0986,5.0692,5.0802,5.0802,5.0802,5.0802,5.0802,5.0802,5.0836,5.1505,5.1838,0.0,5.2556,5.3219,5.3888,5.3998,5.4439,5.5071,5.5331,5.5435,5.5438,5.5548,5.5622,5.5622,5.5622,5.5946,5.6633,5.7299,5.7994,5.8648,5.6647,5.5622,5.5624,5.6274,5.6633,5.6669,5.7336,5.6898,5.5359,5.5291,5.4512,5.2955,5.2199,5.1764,5.1693,5.1654,5.1248,5.0398,5.0915,5.0986,5.032,5.0281,5.0317,5.043,5.0545,4.985,4.8189,4.9297,4.9882,4.9339,4.9811,5.0322,5.0432,5.0584,5.0802,5.0907,5.1463,5.1829,5.1934,5.3041,5.3834,5.3978,5.4691,5.5028,5.5088,5.5322,5.5433,5.5545,5.6127,5.6853,5.7243,5.7064,5.6677,5.6737,5.7216,5.7601,5.748,5.7635,5.7454,5.7525,5.7452,5.7421,5.7254,5.746,5.7728,5.7799,5.7881,5.7963,5.8002,5.8002,5.8002,5.8002,5.8002,5.8002,5.8002,5.7711,5.7635,5.0047,5.0097,5.0502,5.0641,5.0727,5.1817,5.2705,5.3329,5.3421,5.3157,5.2706,5.2299,5.2338,5.2747,5.2745,5.2742,5.2784,5.3602,5.3933,5.3969,5.4326,5.4693,5.5029,5.5063,5.5249,5.5624,5.6054,5.624,5.6311,5.6684,5.6904,5.6904,5.6904,5.7296,5.8061,5.8465,5.9058,5.9786,5.8321,5.7776,5.8223,5.8584,5.8948,5.9394,5.9761,5.9431,5.8256,5.781,5.6819,5.5196,5.4368,5.3967,5.3933,5.3964,5.3413,5.2226,5.2449,5.2087,5.0875,5.0802,5.0802,5.0839,5.1208,5.1353,5.1012,5.0836,5.0658,5.0293,5.0991,5.1429,5.1468,5.2231,5.2742,5.275,5.3487,5.3949,5.4012,5.4546,5.5035,5.5077,5.5361,5.5586,5.5616,5.5986,5.6235,5.6305,5.6969,5.7596,5.7963,5.7706,5.7455,5.7482,5.7756,5.796,5.8002,5.8002,5.8002,5.8002,5.8002,5.8002,5.8002,5.8002,5.8002,5.8002,5.8002,5.8002,5.8002,5.8002,5.8002,5.8002,5.8002,5.8002,5.8002,5.8002,5.8002,5.1201,5.1274,5.1824,5.2227,5.2661,5.3964,5.4699,5.5076,5.5625,5.5742,5.5334,5.4284,5.4174,5.4913,5.495,5.5018,5.528,5.5836,5.6133,5.6136,5.6133,5.6243,5.6427,5.6424,5.6497,5.672,5.7333,5.7618,5.7694,5.8253,5.8547,5.855,5.855,5.8875,5.945,5.945,5.9854,6.0563,6.0083,5.997,6.0379,6.0563,6.0973,6.1526,6.1777,6.1481,6.0673,6.008,5.9089,5.7697,5.6859,5.6427,5.6384,5.6059,5.532,5.4168,5.3843,5.3219,5.2053,5.1867,5.1903,5.1867,5.2462,5.3083,5.3552,5.2637,5.1869,5.1937,5.253,5.2868,5.3012,5.3891,5.4656,5.4738,5.5218,5.5445,5.5604,5.5779,5.587,5.5893,5.6026,5.619,5.6266,5.6678,5.7113,5.7437,5.7737,5.805,5.8418,5.8418,5.8297,5.8421,5.8254,5.8002,5.8002,5.8002,5.8002,5.8002,5.8002,5.8002,5.8002,5.8002,5.8002,5.8002,5.8002,5.8002,5.8002,5.8002,5.8002,5.8002,5.8002,5.8002,5.8002,5.8002,5.8002,5.1231,5.1209,5.1385,5.2076,5.3424,5.4297,5.5429,5.6527,5.6745,5.7573,5.8365,5.6387,5.5868,5.652,5.6599,5.6929,5.7559,5.7745,5.7779,5.7782,5.7785,5.8177,5.8753,5.8826,5.9239,5.9789,5.9899,5.9823,5.9863,6.0046,6.0153,6.0199,6.0193,6.0193,6.0266,6.0269,6.071,6.149,6.1419,6.1043,6.0484,6.1117,6.1526,6.1603,6.2319,6.2319,6.1526,6.1416,6.0973,6.0086,5.9236,5.8826,5.8716,5.7511,5.663,5.6446,5.576,5.5291,5.5142,5.5144,5.5034,5.5144,5.5074,5.5215,5.5362,5.5215,5.5142,5.5178,5.5218,5.5071,5.5252,5.5401,5.5509,5.5622,5.5726,5.5593,5.5878,5.6249,5.6675,5.6685,5.742,5.781,5.7816,5.7923,5.8214,5.8792,5.8496,5.8676,5.9615,5.9441,5.931,5.9625,5.9027,5.8192,5.8146,5.8036,5.822,5.8146,5.8073,5.8192,5.8277,5.8172,5.8005,5.8215,5.8002,5.8002,5.8002,5.8002,5.8002,5.8002,5.8002,5.8002,5.8002,5.8002,5.8002,5.2566,5.2596,5.301,5.4064,5.5539,5.6836,5.7726,5.829,5.8776,5.9335,5.9768,5.8838,5.8358,5.8239,5.8242,5.8392,5.8719,5.9208,5.9425,5.9425,5.9422,5.9609,5.9893,5.9896,6.0083,6.0373,6.0413,6.0413,6.0413,6.0413,6.0413,6.0413,6.0413,6.0639,6.1083,6.112,6.1481,6.2288,6.2325,6.2138,6.1915,6.2138,6.2322,6.2322,6.2649,6.2683,6.2285,6.1854,6.145,6.1086,6.034,5.9893,5.9893,5.9272,5.8719,5.8208,5.6997,5.6088,5.5622,5.5622,5.5622,5.5622,5.5622,5.5949,5.694,5.7011,5.7378,5.8073,5.6754,5.5622,5.569,5.6017,5.6494,5.6935,5.7446,5.7884,5.8414,5.8716,5.8935,5.8947,5.9217,5.9387,5.9437,5.9428,5.9572,5.9857,5.9582,5.9718,6.0309,6.0111,6.0075,6.0234,5.9816,5.9525,5.9361,5.9412,5.9394,5.9388,5.9425,5.9406,5.9333,5.9081,5.8917,5.8741,5.8416,5.8127,5.8002,5.8002,5.8002,5.8039,5.8002,5.8002,5.8002,5.8002,5.8002,5.3923,5.4182,5.4886,5.5833,5.7003,5.8348,5.9211,5.9621,6.0159,6.064,6.1068,6.1034,6.0743,6.0218,5.9964,5.9967,6.0221,6.0817,6.1074,6.1071,6.1071,6.1077,6.1034,6.1071,6.1034,6.1071,6.1107,6.1071,6.1074,6.1074,6.1077,6.1071,6.1071,6.1337,6.1848,6.1921,6.2218,6.2722,6.2796,6.2796,6.2796,6.2796,6.2796,6.2796,6.2796,6.2796,6.2793,6.2251,6.1924,6.1927,6.1367,6.1071,6.1071,6.0857,6.0379,5.956,5.8462,5.7553,5.6935,5.6904,5.6904,5.6938,5.6901,5.7378,5.8369,5.8657,5.9168,5.9942,5.8256,5.7011,5.6974,5.744,5.8027,5.8621,5.9202,5.9803,6.0228,6.0382,6.0329,6.0407,6.0227,6.0409,6.0382,6.034,6.0376,6.063,6.0527,6.0686,6.0881,6.0946,6.078,6.1008,6.1054,6.086,6.0529,6.0254,6.0413,6.0413,6.0266,6.0238,6.041,6.0016,5.9798,5.9497,5.8929,5.8777,5.8963,5.8807,5.8623,5.8584,5.851,5.84,5.8431,5.8217,5.8039,5.4972,5.5648,5.6404,5.678,5.6891,5.7822,5.9006,6.0367,6.0421,6.1234,6.2495,6.2612,6.2649,6.2462,6.1701,6.1887,6.2499,6.2539,6.2539,6.2572,6.2572,6.2646,6.2683,6.2683,6.2649,6.2502,6.2462,6.2502,6.2572,6.2606,6.2679,6.2649,6.2576,6.2646,6.2689,6.2649,6.2759,6.2796,6.2796,6.2796,6.2796,6.2796,6.2796,6.2796,6.2796,6.2796,6.2796,6.2753,6.2722,6.2722,6.2609,6.2609,6.2576,6.1964,6.1187,6.0456,6.0233,6.0159,6.0012,5.9902,5.9939,6.0012,5.9792,6.0126,6.0123,6.0193,6.0303,6.045,6.0266,6.0012,5.9976,5.9786,6.0009,6.0162,6.0263,6.0398,6.046,6.0642,6.0443,6.0509,6.0637,6.0701,6.0517,6.0413,6.0893,6.1227,6.0927,6.0936,6.2047,6.1927,6.1869,6.2288,6.2428,6.2141,6.0823,6.0787,6.067,6.0743,6.093,6.0606,6.0453,6.0364,6.0393,6.0417,6.0357,6.03,6.0302,6.0196,6.0049,5.9826,5.9419,5.9233,5.9162,5.8474,5.8366,5.575,5.6473,5.7236,5.7839,5.8349,5.9194,6.015,6.114,6.1167,6.1752,6.2681,6.2796,6.2796,6.2756,6.2502,6.2502,6.2796,6.2796,6.2796,6.2796,6.2796,6.2796,6.2796,6.2796,6.2796,6.2796,6.2796,6.2796,6.2796,6.2796,6.2796,6.2796,6.2796,6.2796,6.2796,6.2796,6.2796,6.2796,6.2796,6.2796,6.2796,6.2796,6.2796,6.2796,6.2796,6.2796,6.2796,6.2796,6.2796,6.2796,6.2796,6.2796,6.2796,6.2539,6.1998,6.1266,6.1156,6.0936,6.049,6.0413,6.0413,6.0413,6.0413,6.0673,6.1046,6.1193,6.1374,6.1768,6.1912,6.1918,6.1731,6.1037,6.0639,6.104,6.1153,6.1364,6.1823,6.1921,6.1927,6.1924,6.1948,6.193,6.1832,6.1912,6.2062,6.2279,6.2095,6.2209,6.2539,6.2508,6.2478,6.2686,6.2793,6.26,6.2147,6.197,6.1952,6.1988,6.1991,6.1955,6.1878,6.1768,6.1783,6.1327,6.1379,6.1302,6.1095,6.0701,6.0701,6.056,6.0153,6.0046,5.9976,5.9428,5.9391,5.6697,5.7202,5.7749,5.8247,5.8815,5.9615,6.0466,6.1193,6.147,6.2049,6.2711,6.2796,6.2796,6.2796,6.2796,6.2796,6.2796,6.2796,6.2796,6.2796,6.2796,6.2796,6.2796,6.2796,6.2796,6.2796,6.2796,6.2796,6.2796,6.2796,6.2796,6.2796,6.2796,6.2796,6.2796,6.2796,6.2796,6.2796,6.2796,6.2796,6.2796,6.2796,6.2796,6.2796,6.2796,6.2796,6.2796,6.2796,6.2796,6.2796,6.2796,6.2796,6.2796,6.2796,6.2576,6.2071,6.1998,6.1774,6.1288,6.1181,6.1184,6.1184,6.1184,6.1441,6.1921,6.1994,6.2285,6.2686,6.2796,6.2796,6.2612,6.1805,6.1404,6.1887,6.1964,6.2178,6.2722,6.2796,6.2762,6.2719,6.2679,6.2756,6.2796,6.2796,6.2759,6.2796,6.2796,6.2796,6.2796,6.2796,6.2796,6.2796,6.2796,6.2796,6.2566,6.2459,6.2465,6.2502,6.2502,6.2722,6.2796,6.2796,6.267,6.2256,6.2064,6.1979,6.1704,6.1276,6.1138,6.1074,6.093,6.0823,6.0676,6.0487,6.0343,5.7857,5.7837,5.7909,5.7977,5.8235,5.8917,5.9651,6.0614,6.1293,6.2053,6.2749,6.2796,6.2796,6.2796,6.2796,6.2796,6.2796,6.2796,6.2796,6.2796,6.2796,6.2796,6.2796,6.2796,6.2796,6.2796,6.2796,6.2796,6.2796,6.2796,6.2796,6.2796,6.2796,6.2796,6.2796,6.2796,6.2796,6.2796,6.2796,6.2796,6.2796,6.2796,6.2796,6.2796,6.2796,6.2796,6.2796,6.2796,6.2796,6.2796,6.2796,6.2796,6.2796,6.2796,6.2796,6.2722,6.2759,6.2753,6.2722,6.2609,6.2539,6.2539,6.2679,6.2576,6.2612,6.2679,6.2716,6.2793,6.2796,6.2796,6.2796,6.2649,6.2572,6.2756,6.2649,6.2722,6.2796,6.2796,6.2796,6.2796,6.2796,6.2796,6.2796,6.2796,6.2796,6.2796,6.2796,6.2796,6.2796,6.2796,6.2796,6.2796,6.2796,6.2796,6.2796,6.2796,6.2796,6.2796,6.2759,6.2796,6.2796,6.2796,6.2796,6.2505,6.2501,6.2413,6.2413,6.2059,6.2205,6.2138,6.1887,6.1597,6.1517,6.1331,6.0997,5.79,5.79,5.79,5.8215,5.8703,5.9023,5.9881,6.1171,6.1534,6.2049,6.2711,6.2796,6.2796,6.2796,6.2796,6.2796,6.2796,6.2796,6.2796,6.2796,6.2796,6.2796,6.2796,6.2796,6.2796,6.2796,6.2796,6.2796,6.2796,6.2796,6.2796,6.2796,6.2796,6.2796,6.2796,6.2796,6.2796,6.2796,6.2796,6.2796,6.2796,6.2796,6.2796,6.2796,6.2796,6.2796,6.2796,6.2796,6.2796,6.2796,6.2796,6.2796,6.2796,6.2796,6.2796,6.2796,6.2796,6.2796,6.2796,6.2796,6.2796,6.2796,6.2796,6.2796,6.2796,6.2796,6.2796,6.2796,6.2796,6.2796,6.2796,6.2796,6.2796,6.2796,6.2796,6.2796,6.2796,6.2796,6.2796,6.2796,6.2796,6.2796,6.2796,6.2796,6.2796,6.2796,6.2796,6.2796,6.2796,6.2796,6.2796,6.2796,6.2796,6.2796,6.2796,6.2796,6.2796,6.2796,6.2796,6.2796,6.2796,6.2796,6.2796,6.2796,6.2796,6.2796,6.2796,6.2796,6.2796,6.2796,6.2432,6.2322,6.2395,6.2135,6.1728,5.79,5.79,5.79,5.8157,5.8668,5.8964,5.9669,6.071,6.135,6.1908,6.2327,6.2689,6.2796,6.2796,6.2796,6.2796,6.2796,6.2796,6.2796,6.2796,6.2796,6.2796,6.2796,6.2796,6.2796,6.2796,6.2796,6.2796,6.2796,6.2796,6.2796,6.2796,6.2796,6.2796,6.2796,6.2796,6.2796,6.2796,6.2796,6.2796,6.2796,6.2796,6.2796,6.2796,6.2796,6.2796,6.2796,6.2796,6.2796,6.2796,6.2796,6.2796,6.2796,6.2796,6.2796,6.2796,6.2796,6.2796,6.2796,6.2796,6.2796,6.2796,6.2796,6.2796,6.2796,6.2796,6.2796,6.2796,6.2796,6.2796,6.2796,6.2796,6.2796,6.2796,6.2796,6.2796,6.2796,6.2796,6.2796,6.2796,6.2796,6.2796,6.2796,6.2796,6.2796,6.2796,6.2796,6.2796,6.2796,6.2796,6.2796,6.2796,6.2796,6.2796,6.2796,6.2796,6.2796,6.2796,6.2796,6.2796,6.2796,6.2796,6.2796,6.2796,6.2796,6.2796,6.2796,6.2796,6.2796,6.2796,6.2796,6.2722,6.2612,6.2686,6.2392,5.79,5.79,5.79,5.7986,5.8186,5.881,5.9253,5.9566,6.0788,6.1545,6.1783,6.2333,6.273,6.2777,6.2796,6.2796,6.2796,6.2796,6.2796,6.2796,6.2796,6.2796,6.2796,6.2796,6.2796,6.2796,6.2796,6.2796,6.2796,6.2796,6.2796,6.2796,6.2796,6.2796,6.2796,6.2796,6.2796,6.2796,6.2796,6.2796,6.2796,6.2796,6.2796,6.2796,6.2796,6.2839,6.2904,6.3017,6.2935,6.2824,6.2864,6.291,6.283,6.2842,6.3005,6.2953,6.2898,6.299,6.2929,6.3086,6.2996,6.2929,6.292,6.2811,6.2821,6.2796,6.2796,6.2796,6.2796,6.2796,6.2796,6.2796,6.2796,6.2796,6.2796,6.2836,6.2879,6.2952,6.3092,6.3126,6.2979,6.2979,6.3199,6.3163,6.3163,6.3129,6.3135,6.3041,6.2982,6.3019,6.2872,6.2912,6.3096,6.3178,6.3295,6.2836,6.2836,6.2722,6.2686,6.2579,6.2759,6.2796,6.2796,6.2796,6.2796,6.2796,6.2796,6.2796,6.2796,6.2796,6.2796,6.2796,6.2796,6.2796,6.2796,5.79,5.79,5.79,5.8228,5.8755,5.9027,5.9472,6.0047,6.0473,6.107,6.1555,6.1833,6.2288,6.2764,6.2796,6.2796,6.2796,6.2796,6.2796,6.2796,6.2796,6.2796,6.2796,6.2796,6.2796,6.2796,6.2796,6.2796,6.2796,6.2796,6.2796,6.2796,6.2796,6.2796,6.2796,6.2796,6.2796,6.2796,6.2796,6.2796,6.2796,6.2796,6.2796,6.2796,6.2796,6.2999,6.3365,6.3787,6.355,6.2904,6.3197,6.3191,6.2965,6.3491,6.3745,6.3466,6.3739,6.3972,6.3927,6.3914,6.3787,6.3436,6.3385,6.3218,6.2827,6.2802,6.2799,6.2796,6.2796,6.2796,6.2796,6.2796,6.2796,6.2796,6.2866,6.3081,6.3532,6.3767,6.398,6.4524,6.4551,6.4481,6.4407,6.4374,6.434,6.4237,6.3818,6.3415,6.2998,6.2768,6.2459,6.3392,6.3739,6.3788,6.3641,6.3142,6.2802,6.2686,6.2469,6.2181,6.2469,6.2796,6.2796,6.2796,6.2796,6.2796,6.2796,6.2796,6.2796,6.2796,6.2796,6.2796,6.2796,6.2796,6.2796,5.79,5.79,5.79,5.8173,5.8638,5.8934,5.9195,5.9494,6.0121,6.0625,6.1095,6.1463,6.2049,6.2755,6.2796,6.2796,6.2796,6.2796,6.2796,6.2796,6.2796,6.2796,6.2796,6.2796,6.2796,6.2796,6.2796,6.2796,6.2796,6.2796,6.2796,6.2796,6.2796,6.2796,6.2796,6.2796,6.2796,6.2796,6.2796,6.2796,6.2796,6.2796,6.2796,6.2796,6.2811,6.3059,6.3576,6.3908,6.3835,6.362,6.3766,6.3795,6.3558,6.4009,6.4234,6.3932,6.4267,6.4367,6.4379,6.4379,6.4246,6.4026,6.3947,6.3653,6.3268,6.3121,6.3125,6.283,6.2805,6.2796,6.2796,6.2796,6.2796,6.2832,6.3126,6.3537,6.4063,6.4367,6.4758,6.5156,6.5279,6.5111,6.4857,6.4527,6.412,6.3594,6.2666,6.2407,6.2233,6.2079,6.2051,6.2722,6.2917,6.2615,6.2416,6.201,6.1768,6.1728,6.1878,6.163,6.2105,6.2576,6.2636,6.2636,6.2716,6.2759,6.2612,6.2612,6.2796,6.2796,6.2796,6.2759,6.2759,6.2796,6.2796,5.79,5.79,5.79,5.79,5.8051,5.8733,5.8793,5.8498,5.9752,6.0481,6.0771,6.1311,6.2049,6.2786,6.2796,6.2796,6.2796,6.2796,6.2796,6.2796,6.2796,6.2796,6.2796,6.2796,6.2796,6.2796,6.2796,6.2796,6.2796,6.2796,6.2796,6.2796,6.2796,6.2796,6.2796,6.2796,6.2796,6.2796,6.2796,6.2796,6.2796,6.2796,6.2796,6.2811,6.295,6.3207,6.3621,6.3884,6.4071,6.4531,6.449,6.4393,6.4384,6.4405,6.4509,6.4518,6.4623,6.4699,6.4621,6.4712,6.455,6.4486,6.4458,6.4234,6.3832,6.3669,6.3514,6.3206,6.2923,6.2926,6.2829,6.2869,6.3053,6.3239,6.3796,6.4275,6.4273,6.4862,6.5383,6.5304,6.5309,6.4911,6.4087,6.3319,6.2652,6.3053,6.2202,6.1808,6.1591,6.1303,6.1205,6.1336,6.1257,6.0903,6.083,6.072,6.057,6.0517,6.0814,6.0964,6.1624,6.2056,6.2257,6.2318,6.193,6.1915,6.2101,6.2248,6.2392,6.2395,6.2101,6.2355,6.2606,6.2759,6.2796,5.79,5.79,5.79,5.79,5.8015,5.8737,5.8997,5.8968,5.9952,6.0775,6.1247,6.1545,6.2056,6.2793,6.2796,6.2796,6.2796,6.2796,6.2796,6.2796,6.2796,6.2796,6.2796,6.2796,6.2796,6.2796,6.2796,6.2796,6.2796,6.2796,6.2796,6.2796,6.2796,6.2796,6.2796,6.2796,6.2796,6.2796,6.2796,6.2796,6.2796,6.2796,6.2796,6.2833,6.315,6.3661,6.4183,6.4594,6.5031,6.5342,6.5182,6.4808,6.471,6.5139,6.5305,6.5137,6.534,6.5526,6.554,6.5476,6.5372,6.5005,6.495,6.4744,6.4291,6.4212,6.4161,6.3958,6.3683,6.3299,6.2947,6.3451,6.3488,6.3754,6.464,6.5128,6.4613,6.5305,6.5761,6.5345,6.512,6.4744,6.3306,6.2906,6.2499,6.2389,6.1869,6.1386,6.0899,6.0424,6.0343,6.0228,6.0319,6.0144,6.0071,5.9939,5.9658,5.9566,5.9753,5.9939,6.0633,6.1003,6.1025,6.097,6.0832,6.1031,6.1401,6.1184,6.1218,6.1294,6.1444,6.1701,6.1958,6.2322,6.2652,5.79,5.79,5.79,5.8119,5.8568,5.9328,5.9712,5.9888,6.061,6.1186,6.1501,6.1604,6.2053,6.2768,6.2796,6.2796,6.2796,6.2796,6.2796,6.2796,6.2796,6.2796,6.2796,6.2796,6.2796,6.2796,6.2796,6.2796,6.2796,6.2796,6.2796,6.2796,6.2796,6.2796,6.2796,6.2796,6.2796,6.2796,6.2796,6.2796,6.2796,6.2796,6.2796,6.2814,6.3103,6.3552,6.4318,6.459,6.5159,6.5632,6.5642,6.5381,6.5194,6.5564,6.569,6.5639,6.5693,6.5899,6.5896,6.5891,6.5768,6.548,6.5459,6.5194,6.4894,6.472,6.4583,6.4403,6.4096,6.3769,6.323,6.3041,6.3253,6.3075,6.3699,6.3796,6.3481,6.4667,6.5437,6.4525,6.4018,6.3396,6.2686,6.1952,6.1325,6.0737,6.0012,5.9529,5.9419,5.9051,5.9212,5.9271,5.9497,5.9563,5.9508,5.9284,5.8875,5.8764,5.8801,5.8877,5.9174,5.9434,5.9544,5.9802,6.0151,6.044,6.0704,6.0396,6.0272,6.0633,6.0857,6.0973,6.112,6.1334,6.1701,5.8155,5.8293,5.8255,5.8599,5.9207,6.0145,6.0473,6.0485,6.1375,6.1804,6.1787,6.1776,6.2265,6.2702,6.2796,6.2796,6.2796,6.2796,6.2796,6.2796,6.2796,6.2796,6.2796,6.2796,6.2796,6.2796,6.2796,6.2796,6.2796,6.2796,6.2796,6.2796,6.2796,6.2796,6.2796,6.2796,6.2796,6.2796,6.2796,6.2796,6.2796,6.2796,6.2796,6.2811,6.2867,6.3408,6.4148,6.4495,6.4877,6.5796,6.59,6.59,6.59,6.59,6.59,6.5851,6.5894,6.5897,6.59,6.59,6.5891,6.59,6.5889,6.5688,6.5322,6.5226,6.5067,6.4753,6.4434,6.3971,6.3539,6.3067,6.2476,6.2145,6.1972,6.1786,6.1908,6.3407,6.342,6.2827,6.2368,6.1921,6.1074,6.0306,5.9713,5.9126,5.8437,5.8002,5.8002,5.8042,5.835,5.8506,5.8775,5.8872,5.8818,5.8815,5.8412,5.833,5.822,5.822,5.8259,5.848,5.8861,5.9366,5.9717,5.9848,5.9811,5.9556,5.9622,6.003,6.019,6.019,6.0266,6.0303,6.082,5.9319,5.9972,5.9972,5.9667,5.941,6.0725,6.1015,6.0708,6.1979,6.2579,6.2567,6.2579,6.2602,6.278,6.2796,6.2796,6.2796,6.2796,6.2796,6.2796,6.2796,6.2796,6.2796,6.2796,6.2796,6.2796,6.2796,6.2796,6.2796,6.2796,6.2796,6.2796,6.2796,6.2796,6.2796,6.2796,6.2796,6.2796,6.2796,6.2796,6.2796,6.2796,6.2796,6.2814,6.2861,6.3428,6.4138,6.4471,6.486,6.5772,6.5893,6.59,6.59,6.59,6.59,6.59,6.59,6.59,6.59,6.59,6.59,6.59,6.59,6.5939,6.581,6.5753,6.5691,6.5351,6.4588,6.381,6.3265,6.2815,6.2832,6.2733,6.2534,6.2281,6.1471,6.1312,6.1479,6.1009,6.0717,6.0484,5.9719,5.9174,5.8877,5.8618,5.829,5.8002,5.8002,5.8002,5.8081,5.8118,5.8084,5.813,5.8127,5.8206,5.8112,5.811,5.8076,5.8073,5.8076,5.8039,5.8325,5.8803,5.8843,5.8673,5.8645,5.8671,5.8721,5.8957,5.9162,5.9374,5.9453,5.9569,6.0193,6.0019,6.0374,6.0381,6.042,6.0541,6.1229,6.1642,6.1778,6.247,6.2796,6.2796,6.2796,6.2796,6.2796,6.2796,6.2796,6.2796,6.2796,6.2796,6.2796,6.2796,6.2796,6.2796,6.2796,6.2796,6.2796,6.2796,6.2796,6.2796,6.2796,6.2796,6.2796,6.2796,6.2796,6.2796,6.2796,6.2796,6.2796,6.2796,6.2796,6.2796,6.2796,6.2796,6.2861,6.3134,6.3621,6.4231,6.4676,6.5127,6.5712,6.59,6.59,6.59,6.59,6.59,6.59,6.59,6.59,6.59,6.59,6.59,6.59,6.59,6.6131,6.6401,6.6506,6.6285,6.5821,6.5456,6.4289,6.3025,6.2477,6.2053,6.1732,6.1668,6.1116,6.0453,6.0082,5.9894,5.9686,5.9398,5.913,5.8623,5.8223,5.8076,5.8002,5.8002,5.8002,5.8002,5.8002,5.8002,5.8002,5.8002,5.8002,5.8002,5.8002,5.8002,5.8002,5.8002,5.8002,5.8002,5.8002,5.8002,5.8203,5.8005,5.8002,5.8048,5.8297,5.809,5.8002,5.8364,5.8688,5.8685,5.8942,5.9532,6.0762,6.0904,6.0868,6.1149,6.159,6.178,6.2076,6.2528,6.2717,6.2796,6.2796,6.2796,6.2796,6.2796,6.2796,6.2796,6.2796,6.2796,6.2796,6.2796,6.2796,6.2796,6.2796,6.2796,6.2796,6.2796,6.2796,6.2796,6.2796,6.2796,6.2796,6.2796,6.2796,6.2796,6.2796,6.2796,6.2796,6.2796,6.2796,6.2796,6.2796,6.2796,6.3002,6.3146,6.3494,6.3959,6.489,6.4966,6.5335,6.5712,6.59,6.59,6.59,6.59,6.5979,6.6094,6.6017,6.5902,6.59,6.59,6.59,6.59,6.6056,6.6479,6.671,6.6712,6.6402,6.5822,6.4992,6.4249,6.2626,6.1784,6.1229,6.0777,6.0204,5.9583,5.9714,5.9594,5.9449,5.9051,5.8396,5.8179,5.8111,5.8002,5.8002,5.8002,5.8002,5.8002,5.8002,5.8002,5.8002,5.8002,5.8002,5.8002,5.8002,5.8002,5.8002,5.8002,5.8002,5.8002,5.8002,5.8002,5.8002,5.8002,5.8002,5.8002,5.8002,5.8002,5.8002,5.8002,5.8002,5.8073,5.829,5.8434,5.8835,6.1888,6.2512,6.2499,6.2192,6.1763,6.233,6.2271,6.1932,6.2538,6.2789,6.2796,6.2796,6.2796,6.2796,6.2796,6.2796,6.2796,6.2796,6.2796,6.2796,6.2796,6.2796,6.2796,6.2796,6.2796,6.2796,6.2796,6.2796,6.2796,6.2796,6.2796,6.2796,6.2796,6.2832,6.2976,6.2869,6.2796,6.2832,6.2832,6.2832,6.2943,6.2946,6.3514,6.4136,6.4255,6.4557,6.58,6.5765,6.5691,6.604,6.6014,6.5937,6.59,6.59,6.6325,6.6518,6.6362,6.59,6.6054,6.6168,6.6207,6.6361,6.6555,6.6942,6.6827,6.6404,6.5787,6.4783,6.3669,6.2765,6.2146,6.1393,6.0911,6.0657,6.0317,6.0066,5.9992,5.9868,5.9639,5.9345,5.9001,5.8544,5.8271,5.8125,5.8002,5.8002,5.7977,5.802,5.8116,5.8221,5.8361,5.8462,5.8271,5.8203,5.8183,5.8146,5.8045,5.8008,5.8002,5.8002,5.8002,5.8002,5.8002,5.8002,5.8002,5.8002,5.8002,5.8002,5.8002,5.8002,5.8002,5.8002,5.8002,5.818,5.8361,6.3337,6.2793,6.2796,6.2595,6.234,6.2686,6.2598,6.2392,6.2618,6.2796,6.2796,6.2796,6.2796,6.2796,6.2796,6.2796,6.2796,6.2796,6.2796,6.2796,6.2796,6.2796,6.2796,6.2796,6.2796,6.2796,6.2796,6.2796,6.2796,6.2796,6.2796,6.2796,6.2832,6.3132,6.3236,6.3016,6.3166,6.3242,6.3206,6.3343,6.382,6.388,6.418,6.549,6.5416,6.604,6.6708,6.7164,6.7058,6.7316,6.7319,6.7317,6.7319,6.7358,6.751,6.7704,6.7548,6.7356,6.7354,6.7279,6.7164,6.7088,6.713,6.6865,6.6518,6.6016,6.5206,6.3971,6.3278,6.2437,6.1593,6.1053,6.0898,6.0723,6.0541,6.0539,6.0406,6.0351,6.0178,5.9899,5.9582,5.9139,5.8661,5.8353,5.8255,5.8213,5.8342,5.8503,5.8617,5.8776,5.8977,5.9203,5.888,5.8554,5.8488,5.8434,5.8166,5.8093,5.8073,5.8036,5.8002,5.8002,5.8002,5.8002,5.8002,5.8002,5.8002,5.8002,5.8002,5.8002,5.8002,5.8002,5.8002,5.811,5.8541,6.4557,6.3413,6.3199,6.3016,6.2796,6.2796,6.2789,6.2786,6.2786,6.2796,6.2796,6.2796,6.2796,6.2796,6.2796,6.2796,6.2796,6.2796,6.2796,6.2796,6.2796,6.2796,6.2796,6.2796,6.2796,6.2796,6.2796,6.2796,6.2796,6.2796,6.2796,6.2796,6.2796,6.3092,6.3392,6.3203,6.3166,6.3879,6.3756,6.415,6.488,6.4828,6.5474,6.6282,6.6914,6.7364,6.8031,6.8098,6.8299,6.8274,6.8241,6.8162,6.8202,6.8124,6.8391,6.8585,6.8587,6.8624,6.8395,6.8202,6.8047,6.7587,6.7011,6.6016,6.567,6.5399,6.4746,6.3126,6.2587,6.1858,6.1166,6.0821,6.0821,6.0782,6.0756,6.0775,6.0765,6.0613,6.0514,6.0348,6.003,5.9835,5.9339,5.8771,5.8526,5.8482,5.8636,5.8905,5.9236,5.9551,5.9935,6.0251,6.0173,5.9796,5.9546,5.9283,5.8802,5.8349,5.8295,5.8158,5.8169,5.8048,5.8002,5.8002,5.8087,5.8002,5.8002,5.8002,5.8002,5.8002,5.8002,5.8002,5.8039,5.822,5.8911,6.5251,6.5071,6.431,6.3576,6.2906,6.2796,6.2832,6.2906,6.2832,6.2796,6.2796,6.2796,6.2796,6.2796,6.2796,6.2796,6.2796,6.2796,6.2796,6.2796,6.2796,6.2796,6.2796,6.2796,6.2796,6.2796,6.2832,6.2829,6.2869,6.3056,6.2943,6.2796,6.2906,6.2903,6.3199,6.353,6.372,6.4427,6.4601,6.5022,6.5584,6.5873,6.6612,6.7567,6.7838,6.8123,6.9365,6.8995,6.8702,6.8741,6.8778,6.8778,6.8854,6.8662,6.8891,6.9047,6.8972,6.8895,6.8627,6.8013,6.6939,6.6131,6.5399,6.482,6.4476,6.3817,6.3048,6.2284,6.1784,6.1283,6.0898,6.0782,6.0782,6.0782,6.0782,6.0782,6.0782,6.0774,6.0692,6.0649,6.0496,6.0229,6.0113,5.9552,5.9044,5.898,5.9225,5.9501,6.0246,6.0637,6.1109,6.1459,6.1596,6.1373,6.1061,6.0603,5.9852,5.9258,5.9008,5.8687,5.843,5.8302,5.8427,5.8336,5.8461,5.8212,5.8002,5.8002,5.8002,5.8002,5.8002,5.8073,5.8547,5.9021,5.9869,6.6182,6.5328,6.5485,6.5081,6.43,6.3793,6.3613,6.3503,6.3059,6.2796,6.2832,6.2796,6.2796,6.2796,6.2796,6.2796,6.2796,6.2796,6.2796,6.2796,6.2796,6.2796,6.2796,6.2796,6.2796,6.2793,6.2826,6.3163,6.3579,6.3576,6.401,6.397,6.3383,6.3677,6.4004,6.4636,6.5166,6.5273,6.5566,6.5796,6.7129,6.6973,6.7656,6.9176,6.9258,6.9526,7.0247,7.0114,6.9972,6.9895,6.9855,6.9778,6.9549,6.9316,6.9008,6.8819,6.8512,6.7975,6.7742,6.7436,6.7128,6.5242,6.4317,6.3626,6.3169,6.2321,6.1744,6.1247,6.1095,6.0938,6.0822,6.0821,6.0782,6.0782,6.0782,6.0782,6.0782,6.0782,6.0782,6.0703,6.0695,6.0593,6.0505,6.0375,5.9889,5.9492,5.9781,6.0233,6.1109,6.1691,6.2151,6.2657,6.2868,6.2739,6.2398,6.1666,6.0831,6.0339,5.9855,5.9621,5.9443,5.9269,5.9345,5.9133,5.8869,5.8708,5.8459,5.8099,5.8002,5.8002,5.8112,5.822,5.8875,5.9679,6.06,6.7073,6.6139,6.6623,6.6252,6.5291,6.4714,6.4457,6.435,6.386,6.338,6.3203,6.3203,6.3019,6.2869,6.2796,6.2796,6.2796,6.2796,6.2796,6.2796,6.2796,6.2796,6.2796,6.2796,6.2796,6.2826,6.3163,6.3579,6.3989,6.432,6.4674,6.4667,6.43,6.4521,6.5086,6.6218,6.674,6.6575,6.6874,6.7015,6.8506,6.8495,6.8528,6.9959,7.0115,7.036,7.0686,7.0664,7.0704,7.0704,7.0704,7.0666,7.0318,6.9741,6.8933,6.805,6.7207,6.6362,6.6053,6.5894,6.5971,6.3974,6.2971,6.2283,6.1709,6.1172,6.1093,6.1402,6.1248,6.1172,6.117,6.1284,6.1055,6.1016,6.0821,6.0782,6.0782,6.0782,6.0782,6.0781,6.0775,6.0772,6.0933,6.0932,6.1067,6.0563,6.0331,6.1181,6.2584,6.3044,6.3154,6.3689,6.4138,6.3947,6.3656,6.3147,6.2598,6.1782,6.1374,6.1018,6.0793,6.0603,6.0485,6.0447,6.007,5.9422,5.898,5.8708,5.8366,5.8005,5.8112,5.822,5.9352,6.0156,6.093,6.7627,6.7664,6.7624,6.6773,6.5515,6.5328,6.5258,6.5258,6.5071,6.4671,6.4059,6.3986,6.3576,6.3056,6.3019,6.2943,6.2869,6.2903,6.2866,6.2829,6.3019,6.2906,6.2866,6.2903,6.3092,6.3056,6.3466,6.3949,6.4323,6.4971,6.5328,6.5548,6.5441,6.5326,6.5482,6.6619,6.7232,6.7457,6.846,6.8891,6.9245,6.9517,6.9845,7.019,7.058,7.0799,7.0873,7.0897,7.0897,7.0897,7.0743,7.0397,6.9702,6.8779,6.7818,6.6862,6.6133,6.5362,6.4706,6.3929,6.3163,6.2555,6.186,6.1515,6.1092,6.0978,6.1362,6.2015,6.2058,6.2058,6.2058,6.2016,6.1633,6.1439,6.132,6.1291,6.137,6.1377,6.1495,6.1593,6.1167,6.0938,6.1207,6.1504,6.1999,6.1793,6.1216,6.2006,6.3592,6.4071,6.3995,6.4523,6.5026,6.4915,6.4696,6.4795,6.4344,6.35,6.2774,6.2308,6.2085,6.1958,6.1859,6.1817,6.1343,6.0749,6.0025,5.9389,5.9253,5.9108,5.8187,5.8333,5.9538,6.0526,6.115,6.77,6.77,6.77,6.7407,6.6809,6.6326,6.6102,6.5995,6.5552,6.5148,6.4784,6.4387,6.3989,6.3726,6.3539,6.3316,6.2943,6.3539,6.3499,6.2869,6.3282,6.3166,6.3126,6.3313,6.3616,6.3723,6.4096,6.4794,6.5748,6.5995,6.6442,6.6739,6.6684,6.6785,6.6923,6.7645,6.824,6.8597,6.9093,6.941,6.9798,7.005,7.0286,7.056,7.0798,7.0893,7.0897,7.0858,7.0743,7.0589,7.0358,6.955,6.8627,6.7587,6.609,6.4899,6.39,6.3326,6.2787,6.2207,6.1589,6.1399,6.1556,6.1555,6.1635,6.2204,6.2587,6.282,6.29,6.2898,6.2894,6.2894,6.2703,6.2701,6.2629,6.2616,6.2628,6.2639,6.2679,6.2718,6.2469,6.2355,6.2511,6.2591,6.2938,6.3284,6.286,6.301,6.4286,6.4506,6.4537,6.517,6.5614,6.5686,6.564,6.5343,6.5123,6.4355,6.3751,6.3291,6.3201,6.3259,6.3241,6.3169,6.2671,6.2079,6.1251,6.0614,6.0598,6.026,5.9369,5.9011,6.0015,6.071,6.1114,6.77,6.77,6.77,6.77,6.7627,6.711,6.692,6.6813,6.6366,6.5999,6.5588,6.4857,6.4316,6.4176,6.4029,6.3616,6.2946,6.3653,6.3613,6.3019,6.3689,6.3429,6.3316,6.3653,6.3916,6.417,6.4534,6.5234,6.6332,6.6739,6.711,6.7493,6.7881,6.7921,6.8105,6.8585,6.9039,6.943,6.9809,7.0086,7.0308,7.0461,7.0541,7.0773,7.0897,7.0897,7.0821,7.0667,7.0321,6.9933,6.9241,6.8281,6.7088,6.578,6.4322,6.3091,6.2517,6.2175,6.2021,6.2244,6.2009,6.1934,6.2055,6.221,6.2478,6.2894,6.3355,6.3586,6.374,6.3778,6.3777,6.374,6.3662,6.366,6.3398,6.3346,6.3352,6.3284,6.3312,6.3391,6.3452,6.3534,6.3737,6.3855,6.3974,6.4319,6.4551,6.4743,6.4814,6.4839,6.4989,6.5505,6.59,6.5832,6.5744,6.5537,6.5303,6.508,6.4705,6.4283,6.4529,6.4641,6.4622,6.456,6.4198,6.3592,6.2481,6.1907,6.1675,6.1255,6.0561,6.0475,6.0783,6.1052,6.136,6.77,6.77,6.77,6.77,6.7697,6.7624,6.7627,6.766,6.7627,6.7177,6.6476,6.5698,6.4971,6.432,6.4249,6.3799,6.3313,6.3909,6.3723,6.3496,6.4053,6.3609,6.3573,6.3946,6.4393,6.4573,6.4974,6.5818,6.6589,6.7143,6.755,6.7859,6.8189,6.8607,6.8993,6.9312,6.9638,7.0069,7.0384,7.0609,7.073,7.0785,7.0796,7.0897,7.0897,7.0781,7.055,7.0052,6.9279,6.851,6.7553,6.6244,6.4973,6.3815,6.2937,6.2364,6.2138,6.2175,6.2518,6.2932,6.324,6.3203,6.2746,6.286,6.3165,6.3662,6.4163,6.4472,6.4626,6.4628,6.4668,6.4512,6.4357,6.4125,6.3775,6.3706,6.3668,6.3665,6.3689,6.3748,6.3813,6.4014,6.4503,6.4742,6.4782,6.5051,6.5283,6.5367,6.535,6.5067,6.5228,6.5623,6.59,6.59,6.5785,6.567,6.5631,6.5437,6.5553,6.5323,6.5671,6.5673,6.5431,6.5311,6.5665,6.5117,6.3942,6.3086,6.2526,6.2133,6.2171,6.2098,6.2438,6.1717,6.1839,6.77,6.77,6.77,6.77,6.77,6.77,6.77,6.77,6.77,6.7514,6.7297,6.6516,6.5628,6.5038,6.5528,6.4864,6.4494,6.4454,6.4707,6.4781,6.4747,6.4347,6.442,6.4901,6.5231,6.5341,6.5742,6.6476,6.719,6.7711,6.7994,6.829,6.8543,6.9093,6.9574,6.9861,7.0233,7.0503,7.0798,7.0874,7.0897,7.0897,7.0897,7.0897,7.0821,7.0589,6.9972,6.9125,6.8279,6.7399,6.6051,6.4896,6.4705,6.3323,6.2213,6.2175,6.2252,6.252,6.3515,6.3509,6.3777,6.4588,6.4243,6.4014,6.4319,6.4663,6.5088,6.5243,6.5322,6.5283,6.5285,6.5206,6.5091,6.4897,6.4663,6.4665,6.4666,6.4662,6.4688,6.4684,6.471,6.4754,6.528,6.536,6.5437,6.5747,6.59,6.59,6.5822,6.5505,6.5425,6.5782,6.59,6.59,6.59,6.5785,6.5824,6.5862,6.59,6.59,6.5825,6.5825,6.5862,6.59,6.59,6.5743,6.535,6.4564,6.3844,6.4384,6.4495,6.422,6.3905,6.332,6.2949,6.77,6.77,6.77,6.77,6.77,6.77,6.77,6.77,6.77,6.77,6.7627,6.6809,6.6219,6.5882,6.6142,6.5778,6.4717,6.5335,6.5552,6.5218,6.5625,6.4897,6.5011,6.5595,6.5772,6.5848,6.6112,6.6813,6.7557,6.7985,6.825,6.8481,6.8809,6.9439,6.9945,7.029,7.0543,7.0762,7.0893,7.0897,7.0897,7.0897,7.0897,7.0781,7.0669,6.9973,6.9125,6.8162,6.6896,6.586,6.4355,6.3934,6.3782,6.2823,6.2592,6.2707,6.3132,6.3592,6.4282,6.4511,6.5011,6.5436,6.5397,6.5205,6.5206,6.5437,6.563,6.5785,6.5824,6.5862,6.5862,6.5862,6.5862,6.5824,6.5824,6.5824,6.5824,6.5824,6.5822,6.5784,6.5782,6.5743,6.5862,6.59,6.59,6.59,6.59,6.59,6.59,6.5782,6.5663,6.586,6.59,6.59,6.59,6.59,6.59,6.59,6.59,6.59,6.59,6.59,6.59,6.59,6.59,6.5782,6.5663,6.5737,6.5436,6.5856,6.614,6.6085,6.5732,6.5405,6.5132,6.77,6.77,6.77,6.77,6.77,6.77,6.77,6.77,6.77,6.77,6.7554,6.6923,6.6592,6.6402,6.6623,6.6289,6.5738,6.6032,6.6182,6.5475,6.6032,6.5671,6.5341,6.5748,6.6219,6.5995,6.6252,6.7206,6.7736,6.8164,6.8467,6.8648,6.9463,7.0086,7.0296,7.0615,7.0796,7.0864,7.0897,7.0897,7.0897,7.0897,7.0858,7.0587,7.001,6.9162,6.8087,6.6664,6.4973,6.3892,6.3163,6.2858,6.2895,6.3126,6.3315,6.3546,6.3934,6.4397,6.4899,6.5206,6.5514,6.5824,6.5862,6.5745,6.5747,6.5785,6.5862,6.59,6.59,6.59,6.59,6.59,6.59,6.59,6.59,6.59,6.59,6.59,6.59,6.59,6.59,6.59,6.59,6.59,6.59,6.59,6.59,6.59,6.59,6.59,6.59,6.59,6.59,6.59,6.59,6.59,6.59,6.59,6.59,6.59,6.59,6.59,6.59,6.59,6.59,6.59,6.586,6.5896,6.605,6.6346,6.6755,6.7507,6.7549,6.7273,6.7075,6.77,6.77,6.77,6.77,6.77,6.77,6.77,6.77,6.77,6.77,6.766,6.744,6.707,6.6663,6.7106,6.6883,6.6476,6.6512,6.6779,6.6663,6.6809,6.6406,6.6075,6.6666,6.6773,6.6703,6.6989,6.7678,6.8155,6.8532,6.8975,6.9628,7.0141,7.0308,7.0621,7.089,7.0893,7.0897,7.0781,7.0743,7.0744,7.0744,7.0669,6.9973,6.9164,6.8242,6.6973,6.52,6.4123,6.3275,6.2669,6.2629,6.3008,6.3855,6.424,6.4317,6.4548,6.4934,6.5359,6.571,6.5824,6.59,6.59,6.59,6.59,6.59,6.59,6.59,6.59,6.59,6.59,6.59,6.59,6.59,6.59,6.59,6.59,6.59,6.59,6.59,6.59,6.59,6.59,6.59,6.59,6.59,6.59,6.59,6.59,6.59,6.59,6.59,6.59,6.59,6.59,6.59,6.59,6.59,6.59,6.59,6.59,6.59,6.59,6.59,6.59,6.59,6.5902,6.5941,6.6133,6.6595,6.7476,6.8281,6.9052,6.8996,6.879,6.77,6.77,6.77,6.77,6.77,6.77,6.77,6.77,6.77,6.77,6.77,6.7664,6.7403,6.7036,6.7514,6.755,6.7033,6.703,6.7253,6.7363,6.7253,6.6849,6.6996,6.729,6.6956,6.6909,6.7635,6.8232,6.8576,6.9137,6.9685,7.0116,7.0296,7.0593,7.0897,7.0897,7.0897,7.0897,7.0589,7.0398,7.036,7.0284,6.9935,6.9125,6.8281,6.7321,6.5857,6.4202,6.3394,6.3009,6.2667,6.3589,6.4202,6.4936,6.5166,6.5168,6.5246,6.5362,6.5747,6.59,6.59,6.59,6.59,6.59,6.59,6.59,6.59,6.59,6.59,6.59,6.59,6.59,6.59,6.59,6.59,6.59,6.59,6.59,6.59,6.59,6.59,6.59,6.59,6.59,6.59,6.59,6.59,6.59,6.59,6.59,6.59,6.59,6.59,6.59,6.59,6.59,6.59,6.59,6.59,6.59,6.59,6.59,6.59,6.59,6.59,6.59,6.5902,6.6056,6.6402,6.6862,6.7975,6.9124,6.9819,7.036,7.0038,6.77,6.77,6.77,6.77,6.77,6.77,6.77,6.77,6.77,6.77,6.77,6.77,6.77,6.77,6.77,6.77,6.7624,6.7477,6.766,6.766,6.766,6.7293,6.7183,6.733,6.7246,6.7504,6.8136,6.8559,6.891,6.9483,6.9954,7.0264,7.0583,7.0897,7.0897,7.086,7.0821,7.0512,7.0166,6.9744,6.9629,6.9513,6.8972,6.8242,6.7361,6.6208,6.4936,6.3818,6.2974,6.3051,6.328,6.4203,6.5051,6.5593,6.567,6.5708,6.567,6.5747,6.59,6.59,6.59,6.59,6.59,6.59,6.59,6.59,6.59,6.59,6.59,6.59,6.59,6.59,6.59,6.59,6.59,6.59,6.59,6.59,6.59,6.59,6.59,6.59,6.59,6.59,6.59,6.59,6.59,6.59,6.59,6.59,6.59,6.59,6.59,6.59,6.59,6.59,6.59,6.59,6.59,6.59,6.59,6.59,6.59,6.59,6.59,6.5939,6.617,6.6402,6.6785,6.7322,6.8359,6.951,7.005,7.0552,7.0743,6.77,6.77,6.77,6.77,6.77,6.77,6.77,6.77,6.77,6.77,6.77,6.77,6.77,6.77,6.77,6.77,6.77,6.77,6.77,6.77,6.77,6.755,6.761,6.7807,6.7911,6.8278,6.8765,6.9272,6.9451,6.9888,7.0332,7.0721,7.0748,7.0897,7.0897,7.0783,7.0552,7.0127,6.9666,6.9204,6.8702,6.8471,6.8129,6.7398,6.6553,6.6054,6.5322,6.4086,6.3854,6.4008,6.424,6.4897,6.5437,6.59,6.59,6.59,6.59,6.59,6.59,6.59,6.59,6.59,6.59,6.59,6.59,6.59,6.59,6.59,6.59,6.59,6.59,6.59,6.59,6.59,6.59,6.59,6.59,6.59,6.59,6.59,6.59,6.59,6.59,6.59,6.59,6.59,6.59,6.59,6.59,6.59,6.59,6.59,6.59,6.59,6.59,6.59,6.59,6.59,6.59,6.59,6.59,6.59,6.59,6.59,6.5977,6.6016,6.6324,6.6894,6.7513,6.8127,6.8935,6.9781,7.032,7.0666,7.082]},{"header":{"parameterUnit":"m.s-1","parameterCategory":1,"la1":31.0,"la2":29.5877,"lo1":-88.7671,"lo2":-86.6584,"dx":0.0162,"dy":0.0185,"nx":115,"ny":88,"refTime":"2023-01-06T06:00:00:Z","depth":0,"parameterNumber":3,"parameterNumberName":"V-component_of_WINDS"},"data":[0.0,0.0,0.0,0.0,0.0,0.0,0.0,0.0,0.0,0.0,0.0,0.0,0.0,0.0,0.0,0.0,0.0,0.0,0.0,0.0,0.0,0.0,0.0,0.0,0.0,0.0,0.0,0.0,0.0,0.0,0.0,0.0,0.0,0.0,0.0,0.0,0.0,0.0,0.0,0.0,0.0,0.0,0.0,0.0,0.0,0.0,0.0,0.0,0.0,0.0,0.0,0.0,0.0,0.0,0.0,0.0,0.0,0.0,0.0,0.0,0.0,0.0,0.0,0.0,0.0,0.0,0.0,0.0,0.0,0.0,0.0,0.0,0.0,0.0,0.0,0.0,0.0,0.0,0.0,0.0,0.0,0.0,0.0,0.0,0.0,0.0,0.0,0.0,0.0,0.0,0.0,0.0,0.0,0.0,0.0,0.0,0.0,0.0,0.0,0.0,0.0,0.0,0.0,0.0,0.0,0.0,0.0,0.0,0.0,0.0,0.0,0.0,0.0,0.0,0.0,0.0,0.0,0.0,0.0,0.0,0.0,0.0,0.0,0.0,0.0,0.0,0.0,0.0,0.0,0.0,0.0,0.0,0.0,0.0,0.0,0.0,0.0,0.0,0.0,0.0,0.0,0.0,0.0,0.0,0.0,0.0,0.0,0.0,0.0,0.0,0.0,0.0,0.0,0.0,0.0,0.0,0.0,0.0,0.0,0.0,0.0,0.0,0.0,0.0,0.0,0.0,0.0,0.0,0.0,0.0,0.0,0.0,0.0,0.0,0.0,0.0,0.0,0.0,0.0,0.0,0.0,0.0,0.0,0.0,0.0,0.0,0.0,0.0,0.0,0.0,0.0,0.0,0.0,0.0,0.0,0.0,0.0,0.0,0.0,0.0,0.0,0.0,0.0,0.0,0.0,0.0,0.0,0.0,0.0,0.0,0.0,0.0,0.0,0.0,0.0,0.0,0.0,0.0,0.0,0.0,0.0,0.0,0.0,0.0,0.0,0.0,0.0,0.0,0.0,0.0,0.0,0.0,0.0,0.0,0.0,0.0,0.0,0.0,0.0,0.0,0.0,0.0,0.0,0.0,0.0,0.0,0.0,0.0,0.0,0.0,0.0,0.0,0.0,0.0,0.0,0.0,0.0,0.0,0.0,0.0,0.0,0.0,0.0,0.0,0.0,0.0,0.0,0.0,0.0,0.0,0.0,0.0,0.0,0.0,0.0,0.0,0.0,0.0,0.0,0.0,0.0,0.0,0.0,0.0,0.0,0.0,0.0,0.0,0.0,0.0,0.0,0.0,0.0,0.0,0.0,0.0,0.0,0.0,0.0,0.0,0.0,0.0,0.0,0.0,0.0,0.0,0.0,0.0,0.0,0.0,0.0,0.0,0.0,0.0,0.0,0.0,0.0,0.0,0.0,0.0,0.0,0.0,0.0,0.0,0.0,0.0,0.0,0.0,0.0,0.0,0.0,0.0,0.0,0.0,0.0,0.0,0.0,0.0,0.0,0.0,0.0,0.0,0.0,0.0,0.0,0.0,0.0,0.0,0.0,0.0,0.0,0.0,0.0,0.0,0.0,0.0,0.0,0.0,0.0,0.0,0.0,0.0,0.0,0.0,0.0,0.0,0.0,0.0,0.0,0.0,0.0,0.0,0.0,0.0,0.0,0.0,0.0,0.0,0.0,0.0,0.0,0.0,0.0,0.0,0.0,0.0,0.0,0.0,0.0,0.0,0.0,0.0,0.0,0.0,0.0,0.0,0.0,0.0,0.0,0.0,0.0,0.0,0.0,0.0,0.0,0.0,0.0,0.0,0.0,0.0,0.0,0.0,0.0,0.0,0.0,0.0,0.0,0.0,0.0,0.0,0.0,0.0,0.0,0.0,0.0,0.0,0.0,0.0,0.0,0.0,0.0,0.0,0.0,0.0,0.0,0.0,0.0,0.0,0.0,0.0,0.0,0.0,0.0,0.0,0.0,0.0,0.0,0.0,0.0,0.0,0.0,0.0,0.0,0.0,0.0,0.0,0.0,0.0,0.0,0.0,0.0,0.0,0.0,0.0,0.0,0.0,0.0,0.0,0.0,0.0,0.0,0.0,0.0,0.0,0.0,0.0,0.0,0.0,0.0,0.0,0.0,0.0,0.0,0.0,0.0,0.0,0.0,0.0,0.0,0.0,0.0,0.0,0.0,0.0,0.0,0.0,0.0,0.0,0.0,0.0,0.0,0.0,0.0,0.0,0.0,0.0,0.0,0.0,0.0,0.0,0.0,0.0,0.0,0.0,0.0,0.0,0.0,0.0,0.0,0.0,0.0,0.0,0.0,0.0,0.0,0.0,0.0,0.0,0.0,0.0,0.0,0.0,0.0,0.0,0.0,0.0,0.0,0.0,0.0,0.0,0.0,0.0,0.0,0.0,0.0,0.0,0.0,0.0,0.0,0.0,0.0,0.0,0.0,0.0,0.0,0.0,0.0,0.0,0.0,0.0,0.0,0.0,0.0,0.0,0.0,0.0,0.0,0.0,0.0,0.0,0.0,0.0,0.0,0.0,0.0,0.0,0.0,0.0,0.0,0.0,0.0,0.0,0.0,0.0,0.0,0.0,0.0,0.0,0.0,0.0,0.0,0.0,0.0,0.0,0.0,0.0,0.0,0.0,0.0,0.0,0.0,0.0,0.0,0.0,0.0,0.0,0.0,0.0,0.0,0.0,0.0,0.0,0.0,0.0,0.0,0.0,0.0,0.0,0.0,0.0,0.0,0.0,0.0,0.0,0.0,0.0,0.0,0.0,0.0,0.0,0.0,0.0,0.0,0.0,0.0,0.0,0.0,0.0,0.0,0.0,0.0,0.0,0.0,0.0,0.0,0.0,0.0,0.0,0.0,0.0,0.0,0.0,0.0,0.0,0.0,0.0,0.0,0.0,0.0,0.0,0.0,0.0,0.0,0.0,0.0,0.0,0.0,0.0,0.0,0.0,0.0,0.0,0.0,0.0,0.0,0.0,0.0,0.0,0.0,0.0,0.0,0.0,0.0,0.0,0.0,0.0,0.0,0.0,0.0,0.0,0.0,0.0,0.0,0.0,0.0,0.0,0.0,0.0,0.0,0.0,0.0,0.0,0.0,0.0,0.0,0.0,0.0,0.0,0.0,0.0,0.0,0.0,0.0,0.0,0.0,0.0,0.0,0.0,0.0,0.0,0.0,0.0,0.0,0.0,0.0,0.0,0.0,0.0,0.0,0.0,0.0,0.0,0.0,0.0,0.0,0.0,0.0,0.0,0.0,0.0,0.0,0.0,0.0,0.0,0.0,0.0,0.0,0.0,0.0,0.0,0.0,0.0,0.0,0.0,0.0,0.0,0.0,0.0,0.0,0.0,0.0,0.0,0.0,0.0,0.0,0.0,0.0,0.0,0.0,0.0,0.0,0.0,0.0,0.0,0.0,0.0,0.0,0.0,0.0,0.0,0.0,0.0,0.0,0.0,0.0,0.0,0.0,0.0,0.0,0.0,0.0,0.0,0.0,0.0,0.0,0.0,0.0,0.0,0.0,0.0,0.0,0.0,0.0,0.0,0.0,0.0,0.0,0.0,0.0,0.0,0.0,0.0,0.0,0.0,0.0,0.0,0.0,0.0,0.0,0.0,0.0,0.0,0.0,0.0,0.0,0.0,0.0,0.0,0.0,0.0,0.0,0.0,0.0,0.0,0.0,0.0,0.0,0.0,0.0,0.0,0.0,0.0,0.0,0.0,0.0,0.0,0.0,0.0,0.0,0.0,0.0,0.0,0.0,0.0,0.0,0.0,0.0,0.0,0.0,0.0,0.0,0.0,0.0,0.0,0.0,0.0,0.0,0.0,0.0,0.0,0.0,0.0,0.0,0.0,0.0,0.0,0.0,0.0,0.0,0.0,0.0,0.0,0.0,0.0,0.0,0.0,0.0,0.0,0.0,0.0,0.0,0.0,0.0,0.0,0.0,0.0,0.0,0.0,0.0,0.0,0.0,0.0,0.0,0.0,0.0,0.0,0.0,0.0,0.0,0.0,0.0,0.0,0.0,0.0,0.0,0.0,0.0,0.0,0.0,0.0,0.0,0.0,0.0,0.0,0.0,0.0,0.0,0.0,0.0,0.0,0.0,0.0,0.0,0.0,0.0,0.0,0.0,0.0,0.0,0.0,0.0,0.0,0.0,0.0,0.0,0.0,0.0,0.0,0.0,0.0,0.0,0.0,0.0,0.0,0.0,0.0,0.0,0.0,0.0,0.0,0.0,0.0,0.5149,0.0,0.0,0.0,0.5289,0.0,0.0,0.0,0.0,0.0,0.0,0.0,0.0,0.0,0.0,0.0,0.0,0.0,0.0,0.0,0.0,0.0,0.0,0.0,0.0,0.0,0.0,0.0,0.0,0.0,0.0,0.0,0.0,0.0,0.0,0.0,0.0,0.0,0.0,0.0,0.0,0.0,0.0,0.0,0.0,0.0,0.0,0.0,0.0,0.0,0.0,0.0,0.0,0.0,0.0,0.0,0.0,0.0,0.0,0.0,0.0,0.0,0.0,0.0,0.0,0.0,0.0,0.0,0.0,0.0,0.0,0.0,0.0,0.0,0.0,0.0,0.0,0.0,0.0,0.0,0.0,0.0,0.0,0.0,0.0,0.0,0.0,0.0,0.0,0.0,0.0,0.0,0.0,0.0,0.0,0.0,0.0,0.0,0.0,0.0,0.0,0.0,0.0,0.0,0.0,0.0,0.0,0.0,0.0,0.0,0.0,0.0,0.0,0.0,0.0,0.5254,0.5257,0.5281,0.5307,0.5307,0.0,0.0,0.0,0.0,0.0,0.0,0.0,0.0,0.0,0.0,0.0,0.0,0.0,0.0,0.0,0.0,0.0,0.0,0.0,0.0,0.0,0.0,0.0,0.0,0.0,0.0,0.0,0.0,0.0,0.0,0.0,0.0,0.0,0.0,0.0,0.0,0.0,0.0,0.0,0.0,0.0,0.0,0.0,0.0,0.0,0.0,0.0,0.0,0.0,0.0,0.0,0.0,0.0,0.0,0.0,0.0,0.0,0.0,0.0,0.0,0.0,0.0,0.0,0.0,0.0,0.0,0.0,0.0,0.0,0.0,0.0,0.0,0.0,0.0,0.0,0.0,0.0,0.0,0.0,0.0,0.0,0.0,0.0,0.0,0.0,0.0,0.0,0.0,0.0,0.0,0.0,0.0,0.0,0.0,0.0,0.0,0.0,0.0,0.0,0.0,0.0,0.0,0.0,0.0,0.0,0.0,0.0,0.0,0.0,0.0,0.0,0.0,0.5307,0.5307,0.5307,0.0,0.0,0.0,0.0,0.0,0.0,0.0,0.0,0.0,0.0,0.0,0.0,0.0,0.0,0.0,0.0,0.0,0.0,0.0,0.0,0.0,0.0,0.0,0.0,0.0,0.0,0.0,0.0,0.0,0.0,0.0,0.0,0.0,0.0,0.0,0.0,0.0,0.0,0.0,0.0,0.0,0.0,0.0,0.0,0.0,0.0,0.0,0.0,0.0,0.0,0.0,0.0,0.0,0.0,0.0,0.0,0.0,0.0,0.0,0.0,0.0,0.0,0.0,0.0,0.0,0.0,0.0,0.0,0.0,0.0,0.0,0.0,0.0,0.0,0.0,0.0,0.0,0.0,0.0,0.0,0.0,0.0,0.0,0.0,0.0,0.0,0.0,0.0,0.0,0.0,0.0,0.0,0.0,0.0,0.0,0.0,0.0,0.0,0.0,0.0,0.0,0.0,0.0,0.0,0.0,0.0,0.0,0.0,0.0,0.0,0.5307,0.5307,0.5307,0.0,0.5307,0.0,0.0,0.0,0.0,0.0,0.0,0.0,0.0,0.0,0.0,0.0,0.0,0.0,0.0,0.0,0.0,0.0,0.0,0.0,0.0,0.0,0.0,0.0,0.0,0.0,0.0,0.0,0.0,0.0,0.0,0.0,0.0,0.0,0.0,0.0,0.0,0.0,0.0,0.0,0.0,0.0,0.0,0.0,0.0,0.0,0.0,0.0,0.0,0.0,0.0,0.0,0.0,0.0,0.0,0.0,0.0,0.0,0.0,0.0,0.0,0.0,0.0,0.0,0.0,0.0,0.0,0.0,0.0,0.0,0.0,0.0,0.0,0.0,0.0,0.0,0.0,0.0,0.0,0.0,0.0,0.0,0.0,0.0,0.0,0.0,0.0,0.0,0.0,0.0,0.0,0.0,0.0,0.0,0.0,0.0,0.0,0.0,0.0,0.0,0.0,0.0,0.0,0.0,0.0,0.0,0.0,0.0,0.0,0.0,0.0,0.5307,0.5307,0.5307,0.5307,0.0,0.0,0.0,0.0,0.0,0.0,0.0,0.0,0.0,0.0,0.0,0.0,0.0,0.0,0.0,0.0,0.0,0.0,0.0,0.0,0.0,0.0,0.0,0.0,0.0,0.0,0.0,0.0,0.0,0.0,0.0,0.0,0.0,0.0,0.0,0.0,0.0,0.0,0.0,0.0,0.0,0.0,0.0,0.0,0.0,0.0,0.0,0.0,0.0,0.0,0.0,0.0,0.0,0.0,0.0,0.0,0.0,0.0,0.0,0.0,0.0,0.0,0.0,0.0,0.0,0.0,0.0,0.0,0.0,0.0,0.0,0.0,0.0,0.0,0.0,0.0,0.0,0.0,0.0,0.0,0.0,0.0,0.0,0.0,0.0,0.0,0.0,0.0,0.0,0.0,0.0,0.0,0.0,0.0,0.0,0.0,0.0,0.0,0.0,0.0,0.0,0.0,0.0,0.0,0.0,0.0,0.0,0.0,0.0,0.0,0.5307,0.5307,0.5307,0.5307,0.5307,0.5307,0.0,0.0,0.0,0.0,0.0,0.0,0.0,0.0,0.0,0.0,0.0,0.0,0.0,0.0,0.0,0.0,0.0,0.0,0.0,0.0,0.0,0.0,0.0,0.0,0.0,0.0,0.0,0.0,0.0,0.0,0.0,0.0,0.0,0.0,0.0,0.0,0.0,0.0,0.0,0.0,0.0,0.0,0.0,0.0,0.0,0.0,0.0,0.0,0.0,0.0,0.0,0.0,0.0,0.0,0.0,0.0,0.0,0.0,0.0,0.0,0.0,0.0,0.0,0.0,0.0,0.0,0.0,0.0,0.0,0.0,0.0,0.0,0.0,0.0,0.0,0.0,0.0,0.0,0.0,0.0,0.0,0.0,0.0,0.0,0.0,0.0,0.0,0.0,0.0,0.0,0.0,0.0,0.0,0.0,0.0,0.0,0.0,0.0,0.0,0.0,0.0,0.0,0.0,0.0,0.0,0.0,0.0,0.0,0.5307,0.5316,0.5314,0.5318,0.5307,0.5307,0.0,0.0,0.0,0.0,0.0,0.0,0.0,0.0,0.0,0.0,0.0,0.0,0.0,0.0,0.0,0.0,0.0,0.0,0.0,0.0,0.0,0.0,0.0,0.0,0.0,0.0,0.0,0.0,0.0,0.0,0.0,0.0,0.0,0.0,0.0,0.0,0.0,0.0,0.0,0.0,0.0,0.0,0.0,0.0,0.0,0.0,0.0,0.0,0.0,0.0,0.0,0.0,0.0,0.0,0.0,0.0,0.0,0.0,0.0,0.0,0.0,0.0,0.0,0.0,0.0,0.0,0.0,0.0,0.0,0.0,0.0,0.0,0.0,0.0,0.0,0.0,0.0,0.0,0.0,0.0,0.0,0.0,0.0,0.0,0.0,0.0,0.0,0.0,0.0,0.0,0.0,0.0,0.0,0.0,0.0,0.0,0.0,0.0,0.0,0.0,0.0,0.0,0.0,0.0,0.0,0.0,0.0,0.0,0.0,0.5312,0.5457,0.556,0.5562,0.5564,0.548,0.0,0.0,0.0,0.0,0.0,0.0,0.0,0.0,0.0,0.0,0.0,0.0,0.0,0.0,0.0,0.0,0.0,0.0,0.0,0.0,0.0,0.0,0.0,0.0,0.0,0.0,0.0,0.0,0.0,0.0,0.0,0.0,0.0,0.0,0.0,0.0,0.0,0.0,0.0,0.0,0.0,0.0,0.0,0.0,0.0,0.0,0.0,0.0,0.0,0.0,0.0,0.0,0.0,0.0,0.0,0.0,0.0,0.0,0.0,0.0,0.0,0.0,0.0,0.0,0.0,0.0,0.0,0.0,0.0,0.0,0.0,0.0,0.0,0.0,0.0,0.0,0.0,0.0,0.0,0.0,0.0,0.0,0.0,0.0,0.0,0.0,0.0,0.0,0.0,0.0,0.0,0.0,0.0,0.0,0.0,0.0,0.0,0.0,0.0,0.0,0.0,0.0,0.0,0.0,0.0,0.0,0.0,0.0,0.0,0.5432,0.5709,0.5871,0.5856,0.5756,0.5614,0.0,0.0,0.0,0.0,0.0,0.0,0.0,0.0,0.0,0.0,0.0,0.0,0.0,0.0,0.0,0.0,0.0,0.0,0.0,0.0,0.0,0.0,0.0,0.0,0.0,0.0,0.0,0.0,0.0,0.0,0.0,0.0,0.0,0.0,0.0,0.0,0.0,0.0,0.0,0.0,0.0,0.0,0.0,0.0,0.0,0.0,0.0,0.0,0.0,0.0,0.0,0.0,0.0,0.0,0.0,0.0,0.0,0.0,0.0,0.0,0.0,0.0,0.0,0.0,0.0,0.0,0.0,0.0,0.0,0.0,0.0,0.0,0.0,0.0,0.0,0.0,0.0,0.0,0.0,0.0,0.0,0.0,0.0,0.0,0.0,0.0,0.0,0.0,0.0,0.0,0.0,0.0,0.0,0.0,0.0,0.0,0.0,0.0,0.0,0.0,0.0,0.0,0.0,0.0,0.0,0.0,0.0,0.0,0.5463,0.5725,0.6043,0.622,0.6207,0.5916,0.5712,0.0,0.0,0.0,0.0,0.0,0.0,0.0,0.0,0.0,0.0,0.0,0.0,0.0,0.0,0.0,0.0,0.0,0.0,0.0,0.0,0.0,0.0,0.0,0.0,0.0,0.0,0.0,0.0,0.0,0.0,0.0,0.0,0.0,0.0,0.0,0.0,0.0,0.0,0.0,0.0,0.0,0.0,0.0,0.0,0.0,0.0,0.0,0.0,0.0,0.0,0.0,0.0,0.0,0.0,0.0,0.0,0.0,0.0,0.0,0.0,0.0,0.0,0.0,0.0,0.0,0.0,0.0,0.0,0.0,0.0,0.0,0.0,0.0,0.0,0.0,0.0,0.0,0.0,0.0,0.0,0.0,0.0,0.0,0.0,0.0,0.0,0.0,0.0,0.0,0.0,0.0,0.0,0.0,0.0,0.0,0.0,0.0,0.0,0.0,0.0,0.0,0.0,0.0,0.0,0.0,0.0,0.0,0.0,0.0,0.6601,0.6704,0.6747,0.6734,0.6654,0.6321,0.0,0.0,0.0,0.0,0.0,0.0,0.0,0.0,0.0,0.0,0.0,0.0,0.0,0.0,0.0,0.0,0.0,0.0,0.0,0.0,0.0,0.0,0.0,0.0,0.0,0.0,0.0,0.0,0.0,0.0,0.0,0.0,0.0,0.0,0.0,0.0,0.0,0.0,0.0,0.0,0.0,0.0,0.0,0.0,0.0,0.0,0.0,0.0,0.0,0.0,0.0,0.0,0.0,0.0,0.0,0.0,0.0,0.0,0.0,0.0,0.0,0.0,0.0,0.0,0.0,0.0,0.0,0.0,0.0,0.0,0.0,0.0,0.0,0.0,0.0,0.0,0.0,0.0,0.0,0.0,0.0,0.0,0.0,0.0,0.0,0.0,0.0,0.0,0.0,0.0,0.0,0.0,0.0,0.0,0.0,0.0,0.0,0.0,0.0,0.0,0.0,0.0,0.0,0.0,0.0,0.0,0.0,0.0,0.0,0.78,0.7721,0.7679,0.7687,0.7459,0.6929,0.6065,0.0,0.0,0.0,0.0,0.0,0.0,0.0,0.0,0.0,0.0,0.0,0.0,0.0,0.0,0.0,0.0,0.0,0.0,0.0,0.0,0.0,0.0,0.0,0.0,0.0,0.0,0.0,0.0,0.0,0.0,0.0,0.0,0.0,0.0,0.0,0.0,0.0,0.0,0.0,0.0,0.0,0.0,0.0,0.0,0.0,0.0,0.0,0.0,0.0,0.0,0.0,0.0,0.0,0.0,0.0,0.0,0.0,0.0,0.0,0.0,0.0,0.0,0.0,0.0,0.0,0.0,0.0,0.0,0.0,0.0,0.0,0.0,0.0,0.0,0.0,0.0,0.0,0.0,0.0,0.0,0.0,0.0,0.0,0.0,0.0,0.0,0.0,0.0,0.0,0.0,0.0,0.0,0.0,0.0,0.0,0.0,0.0,0.0,0.0,0.0,0.0,0.0,0.0,0.0,0.0,0.0,0.0,0.0,0.923,0.9048,0.8925,0.8871,0.8285,0.7571,0.0,0.0,0.0,0.0,0.0,0.0,0.0,0.0,0.0,0.0,0.0,0.0,0.0,0.0,0.0,0.0,0.0,0.0,0.0,0.0,0.0,0.0,0.0,0.0,0.0,0.0,0.0,0.0,0.0,0.0,0.0,0.0,0.0,0.0,0.0,0.0,0.0,0.0,0.0,0.0,0.0,0.0,0.0,0.0,0.0,0.0,0.0,0.0,0.0,0.0,0.0,0.0,0.0,0.0,0.0,0.0,0.0,0.0,0.0,0.0,0.0,0.0,0.0,0.0,0.0,0.0,0.0,0.0,0.0,0.0,0.0,0.0,0.0,0.0,0.0,0.0,0.0,0.0,0.0,0.0,0.0,0.0,0.0,0.0,0.0,0.0,0.0,0.0,0.0,0.0,0.0,0.0,0.0,0.0,0.0,0.0,0.0,0.0,0.0,0.0,0.0,0.0,0.0,0.0,0.0,0.0,0.0,0.0,0.0,0.9834,1.0432,1.0415,0.9786,0.9178,0.8446,0.0,0.0,0.0,0.0,0.0,0.0,0.0,0.0,0.0,0.0,0.0,0.0,0.0,0.0,0.0,0.0,0.0,0.0,0.0,0.0,0.0,0.0,0.0,0.0,0.0,0.0,0.0,0.0,0.0,0.0,0.0,0.0,0.0,0.0,0.0,0.0,0.0,0.0,0.0,0.0,0.0,0.0,0.0,0.0,0.0,0.0,0.0,0.0,0.0,0.0,0.0,0.0,0.0,0.0,0.0,0.0,0.0,0.0,0.0,0.0,0.0,0.0,0.0,0.0,0.0,0.0,0.0,0.0,0.0,0.0,0.0,0.0,0.0,0.0,0.0,0.0,0.0,0.0,0.0,0.0,0.0,0.0,0.0,0.0,0.0,0.0,0.0,0.0,0.0,0.0,0.0,0.0,0.0,0.0,0.0,0.0,0.0,0.0,0.0,0.0,0.0,0.0,0.0,0.0,0.0,0.0,0.0,0.0,0.9778,1.0624,1.1397,1.1601,1.1257,1.0148,0.9118,0.0,0.0,0.0,0.0,0.0,0.0,0.0,0.0,0.0,0.0,0.0,0.0,0.0,0.0,0.0,0.0,0.0,0.0,0.0,0.0,0.0,0.0,0.0,0.0,0.0,0.0,0.0,0.0,0.0,0.0,0.0,0.0,0.0,0.0,0.0,0.0,0.0,0.0,0.0,0.0,0.0,0.0,0.0,0.0,0.0,0.0,0.0,0.0,0.0,0.0,0.0,0.0,0.0,0.0,0.0,0.0,0.0,0.0,0.0,0.0,0.0,0.0,0.0,0.0,0.0,0.0,0.0,0.0,0.0,0.0,0.0,0.0,0.0,0.0,0.0,0.0,0.0,0.0,0.0,0.0,0.0,0.0,0.0,0.0,0.0,0.0,0.0,0.0,0.0,0.0,0.0,0.0,0.0,0.0,0.0,0.0,0.0,0.0,0.0,0.0,0.0,0.0,0.0,0.0,0.0,0.0,0.0,0.0,1.0605,1.1446,1.2042,1.2497,1.2736,1.1123,0.9669,0.0,0.0,0.0,0.0,0.0,0.0,0.0,0.0,0.0,0.0,0.0,0.0,0.0,0.0,0.0,0.0,0.0,0.0,0.0,0.0,0.0,0.0,0.0,0.0,0.0,0.0,0.0,0.0,0.0,0.0,0.0,0.0,0.0,0.0,0.0,0.0,0.0,0.0,0.0,0.0,0.0,0.0,0.0,0.0,0.0,0.0,0.0,0.0,0.0,0.0,0.0,0.0,0.0,0.0,0.0,0.0,0.0,0.0,0.0,0.0,0.0,0.0,0.0,0.0,0.0,0.0,0.0,0.0,0.0,0.0,0.0,0.0,0.0,0.0,0.0,0.0,0.0,0.0,0.0,0.0,0.0,0.0,0.0,0.0,0.0,0.0,0.0,0.0,0.0,0.0,0.0,0.0,0.0,0.0,0.0,0.0,0.0,0.0,0.0,0.0,0.0,0.0,0.0,0.0,0.0,0.0,0.0,0.0,1.1133,1.1779,1.2368,1.2722,1.278,1.1516,1.0375,0.0,0.0,0.0,0.0,0.0,0.0,0.0,0.0,0.0,0.0,0.0,0.0,0.0,0.0,0.0,0.0,0.0,0.0,0.0,0.0,0.0,0.0,0.0,0.0,0.0,0.0,0.0,0.0,0.0,0.0,0.0,0.0,0.0,0.0,0.0,0.0,0.0,0.0,0.0,0.0,0.0,0.0,0.0,0.0,0.0,0.0,0.0,0.0,0.5571,0.0,0.0,0.0,0.0,0.0,0.0,0.0,0.0,0.0,0.0,0.0,0.0,0.0,0.0,0.0,0.0,0.0,0.0,0.0,0.0,0.0,0.0,0.0,0.0,0.0,0.0,0.0,0.0,0.0,0.0,0.0,0.0,0.0,0.0,0.0,0.0,0.0,0.0,0.0,0.0,0.0,0.0,0.0,0.0,0.0,0.0,0.0,0.0,0.0,0.0,0.0,0.0,0.0,0.0,0.0,0.0,0.0,0.0,0.0,1.1615,1.2488,1.2699,1.2913,1.3125,1.2162,1.1137,0.0,0.0,0.0,0.0,0.0,0.0,0.0,0.0,0.0,0.0,0.0,0.0,0.0,0.0,0.0,0.0,0.0,0.0,0.0,0.0,0.0,0.0,0.0,0.0,0.0,0.0,0.0,0.0,0.0,0.0,0.0,0.0,0.0,0.0,0.0,0.0,0.0,0.0,0.0,0.0,0.0,0.0,0.0,0.0,0.0,0.0,0.0,0.0,0.0,0.0,0.0,0.0,0.0,0.0,0.0,0.0,0.0,0.0,0.0,0.0,0.0,0.0,0.0,0.0,0.0,0.0,0.0,0.0,0.0,0.0,0.0,0.0,0.0,0.0,0.0,0.0,0.0,0.0,0.0,0.0,0.0,0.0,0.0,0.0,0.0,0.0,0.0,0.0,0.0,0.0,0.0,0.0,0.0,0.0,0.0,0.0,0.0,0.0,0.0,0.0,0.0,0.0,0.0,0.0,0.0,0.0,0.0,1.0983,1.2082,1.3132,1.297,1.3081,1.3512,1.2731,1.1797,1.0747,0.0,0.0,0.0,0.0,0.0,0.0,0.0,0.0,0.0,0.0,0.0,0.0,0.0,0.0,0.0,0.0,0.0,0.0,0.0,0.0,0.0,0.0,0.0,0.0,0.0,0.0,0.0,0.0,0.0,0.0,0.0,0.0,0.0,0.0,0.0,0.0,0.0,0.0,0.2975,0.3245,0.0,0.0,0.0,0.0,0.0,0.0,0.0,0.0,0.6084,0.0,0.0,0.0,0.0,0.0,0.0,0.0,0.0,0.0,0.0,0.0,0.0,0.0,0.0,0.0,0.0,0.0,0.0,0.0,0.0,0.0,0.0,0.0,0.0,0.0,0.0,0.0,0.0,0.0,0.0,0.0,0.0,0.0,0.0,0.0,0.0,0.0,0.0,0.0,0.0,0.0,0.0,0.0,0.0,0.0,0.0,0.0,0.0,0.0,0.0,0.0,0.0,0.0,0.0,0.0,0.0,1.0771,1.1694,1.25,1.3167,1.316,1.3191,1.3262,1.2629,1.198,1.1259,0.0,0.0,0.0,0.0,0.0,0.0,0.0,0.0,0.0,0.0,0.0,0.0,0.0,0.0,0.0,0.0,0.0,0.0,0.0,0.0,0.0,0.0,0.0,0.0,0.0,0.0,0.0,0.0,0.0,0.0,0.0,0.0,0.0,0.0,0.0,0.0,0.0,0.0,0.0,0.3815,0.4,0.0,0.0,0.0,0.0,0.0,0.0,0.0,0.0,0.6179,0.0,0.0,0.0,0.0,0.0,0.0,0.0,0.0,0.0,0.0,0.0,0.0,0.0,0.0,0.0,0.0,0.0,0.0,0.0,0.0,0.0,0.0,0.0,0.0,0.0,0.0,0.0,0.0,0.0,0.0,0.0,0.0,0.0,0.0,0.0,0.0,0.0,0.0,0.0,0.0,0.0,0.0,0.0,0.0,0.0,0.0,0.0,0.0,0.0,0.0,0.0,0.0,0.0,0.0,0.0,1.1004,1.2304,1.3203,1.3651,1.3657,1.3667,1.3664,1.308,1.2331,0.0,0.0,0.0,0.0,0.0,0.0,0.0,0.0,0.0,0.0,0.0,0.0,0.0,0.0,0.0,0.0,0.0,0.0,0.0,0.0,0.0,0.0,0.0,0.0,0.0,0.0,0.0,0.0,0.0,0.0,0.0,0.0,0.0,0.0,0.0,0.0,0.0,0.0,0.0,0.0,0.4082,0.4404,0.4966,0.0,0.0,0.0,0.0,0.0,0.0,0.7452,0.7644,0.0,0.0,0.0,0.0,0.0,0.0,0.0,0.0,0.0,0.0,0.0,0.0,0.0,0.0,0.0,0.0,0.0,0.0,0.0,0.0,0.0,0.0,0.0,0.0,0.0,0.0,0.0,0.0,0.0,0.0,0.0,0.0,0.0,0.0,0.0,0.0,0.0,0.0,0.0,0.0,0.0,0.0,0.0,0.0,0.0,0.0,0.0,0.0,0.0,0.0,0.0,0.0,0.0,0.0,0.0,1.1267,1.2748,1.3695,1.4079,1.4044,1.4001,1.3999,1.3442,1.2607,0.0,0.0,0.0,0.0,0.0,0.0,0.0,0.0,0.0,0.0,0.0,0.0,0.0,0.0,0.0,0.0,0.0,0.0,0.0,0.0,0.0,0.0,0.0,0.0,0.0,0.0,0.0,0.0,0.0,0.0,0.0,0.0,0.0,0.0,0.0,0.0,0.0,0.0,0.0,0.0,0.0,0.4797,0.5887,0.5261,0.0,0.0,0.0,0.0,0.9061,0.9027,0.0,0.0,0.0,0.0,0.0,0.0,0.0,0.0,0.0,0.0,0.0,0.0,0.0,0.0,0.0,0.0,0.0,0.0,0.0,0.0,0.0,0.0,0.0,0.0,0.0,0.0,0.0,0.0,0.0,0.0,0.0,0.0,0.0,0.0,0.0,0.0,0.0,0.0,0.0,0.0,0.0,0.0,0.0,0.0,0.0,0.0,0.0,0.0,0.0,0.0,0.0,0.0,0.0,0.0,0.0,0.0,1.2095,1.287,1.3519,1.4052,1.3812,1.3658,1.3655,1.3134,1.2539,0.0,0.0,0.0,0.0,0.0,0.0,0.0,0.0,0.0,0.0,0.0,0.0,0.0,0.0,0.0,0.0,0.0,0.0,0.0,0.0,0.0,0.0,0.0,0.0,0.0,0.0,0.0,0.0,0.0,0.0,0.0,0.0,0.0,0.0,0.0,0.0,0.0,0.0,0.0,0.0,0.0,0.5296,0.6145,0.5705,0.578,0.0,0.0,1.1424,1.2423,1.1109,0.0,0.0,0.0,0.0,0.0,0.0,0.0,0.0,0.0,0.0,0.0,0.0,0.0,0.0,0.0,0.0,0.0,0.0,0.0,0.0,0.0,0.0,0.0,0.0,0.0,0.0,0.0,0.0,0.0,0.0,0.0,0.0,0.0,0.0,0.0,0.0,0.0,0.0,0.0,0.0,0.0,0.0,0.0,0.0,0.0,0.0,0.0,0.0,0.0,0.0,0.0,0.0,0.0,0.0,0.0,1.1057,1.2301,1.3561,1.4255,1.433,1.4175,1.4029,1.3879,1.332,1.268,0.0,0.0,0.0,0.0,0.0,0.0,0.0,0.0,0.0,0.0,0.0,0.0,0.0,0.0,0.0,0.0,0.0,0.0,0.0,0.0,0.0,0.0,0.0,0.0,0.0,0.0,0.0,0.0,0.0,0.0,0.0,0.0,0.0,0.0,0.0,0.0,0.0,0.0,0.0,0.0,0.0,0.0,0.7121,0.6775,0.0,0.0,0.0,1.2412,1.3542,0.0,0.0,0.0,0.0,0.0,0.0,0.0,0.0,0.0,0.0,0.0,0.0,0.0,0.0,0.0,0.0,0.0,0.0,0.0,0.0,0.0,0.0,0.0,0.0,0.0,0.0,0.0,0.0,0.0,0.0,0.0,0.0,0.0,0.0,0.0,0.0,0.0,0.0,0.0,0.0,0.0,0.0,0.0,0.0,0.0,0.0,0.0,0.0,0.0,0.0,0.0,0.0,0.0,0.0,0.0,0.0,0.0,1.2624,1.4105,1.4787,1.4635,1.4479,1.4298,1.4087,1.3639,0.0,0.0,0.0,0.0,0.0,0.0,0.0,0.0,0.0,0.0,0.0,0.0,0.0,0.0,0.0,0.0,0.0,0.0,0.0,0.0,0.0,0.0,0.0,0.0,0.0,0.0,0.0,0.5803,0.0,0.0,0.0,0.0,0.0,0.0,0.0,0.0,0.0,0.0,0.0,0.0,0.0,0.0,0.6337,0.8227,0.8711,0.8746,0.0,0.0,1.2716,1.3714,1.3145,1.2332,0.0,0.0,0.0,0.0,0.0,0.0,0.0,0.0,0.0,0.0,0.0,0.0,0.0,0.0,0.0,0.0,0.0,0.0,0.0,0.0,0.0,0.0,0.0,0.0,0.0,0.0,0.0,0.0,0.0,0.0,0.0,0.0,0.0,0.0,0.0,0.0,0.0,0.0,0.0,0.0,0.0,0.0,0.0,0.0,0.0,0.0,0.0,0.0,0.0,0.0,0.0,0.0,0.0,0.0,0.0,1.348,1.4194,1.4688,1.4938,1.4413,1.4119,1.4097,1.4068,1.3621,0.0,0.0,0.0,0.0,0.0,0.0,0.0,0.0,0.0,0.0,0.0,0.0,0.0,0.0,0.0,0.0,0.0,0.0,0.0,0.0,0.0,0.0,0.0,0.0,0.0,0.0,0.0,0.0,0.0,0.0,0.0,0.0,0.0,0.0,0.0,0.0,0.0,0.0,0.0,0.0,0.0,0.7125,0.9289,1.1914,1.2519,0.0,0.0,1.2102,1.3096,1.3002,1.2658,1.2273,0.0,0.0,0.0,0.0,0.0,0.0,0.0,0.0,0.0,0.0,0.0,0.0,0.0,0.0,0.0,0.0,0.0,0.0,0.0,0.0,0.0,0.0,0.0,0.0,0.0,0.0,0.0,0.0,0.0,0.0,0.0,0.0,0.0,0.0,0.0,0.0,0.0,0.0,0.0,0.0,0.0,0.0,0.0,0.0,0.0,0.0,0.0,0.0,0.0,0.0,0.0,0.0,0.0,1.25,1.3586,1.4402,1.4873,1.4965,1.44,1.4097,1.4097,1.3887,1.3554,0.0,0.0,0.0,0.0,0.0,0.0,0.0,0.0,0.0,0.0,0.0,0.0,0.0,0.0,0.0,0.0,0.0,0.0,0.0,0.0,0.0,0.0,0.0,0.0,0.0,0.0,0.0,0.0,0.8358,0.8915,1.0017,0.0,0.0,0.0,0.0,0.0,0.0,0.0,0.0,0.0,0.0,0.862,1.0804,1.2834,0.0,0.0,1.1719,1.2208,1.2584,1.2889,1.2952,1.2663,1.2247,0.0,0.0,0.0,0.0,0.0,0.0,0.0,0.0,0.0,0.0,0.0,0.0,0.0,0.0,0.0,0.0,0.0,0.0,0.0,0.0,0.0,0.0,0.0,0.0,0.0,0.0,0.0,0.0,0.0,0.0,0.0,0.0,0.0,0.0,0.0,0.0,0.0,0.0,0.0,0.0,0.0,0.0,0.0,0.0,0.0,0.0,0.0,0.0,0.0,0.0,0.0,0.0,1.2958,1.3738,1.4648,1.5066,1.5008,1.4584,1.437,1.436,1.4154,1.3897,0.0,0.0,0.0,0.0,0.0,0.0,0.0,0.0,0.0,0.0,0.0,0.0,0.0,0.0,0.0,0.0,0.0,0.0,0.0,0.0,0.0,0.0,0.0,0.0,0.0,0.0,0.0,0.0,0.9254,0.9841,1.0783,0.0,0.0,0.0,0.0,0.0,0.0,0.0,0.0,0.0,0.0,1.0165,1.2001,1.3007,1.3369,1.285,1.2516,1.2301,1.2294,1.2669,1.2924,1.2926,0.0,0.0,0.0,0.0,0.0,0.0,0.0,0.0,0.0,0.0,0.0,0.0,0.0,0.0,0.0,0.0,0.0,0.0,0.0,0.0,0.0,0.0,0.0,0.0,0.0,0.0,0.0,0.0,0.0,0.0,0.6982,0.0,0.0,0.0,0.0,0.0,0.0,0.0,0.0,0.0,0.0,0.0,0.0,0.0,0.0,0.0,0.0,0.0,0.0,0.0,0.0,0.0,0.0,1.348,1.4092,1.4923,1.5255,1.5018,1.4989,1.4981,1.4976,1.4981,1.4795,1.4447,0.0,0.0,0.0,0.0,0.0,0.0,0.0,0.0,0.0,0.0,0.0,0.0,0.0,0.0,0.0,0.0,0.0,0.0,0.0,0.0,0.0,0.0,0.0,0.0,0.0,0.0,0.8459,0.9415,0.9994,0.0,0.0,0.0,0.0,0.0,0.0,0.0,0.0,0.0,0.0,1.133,1.164,1.2731,1.2579,1.2569,1.3073,1.2681,1.2322,1.2318,1.2336,1.2523,0.0,0.0,0.0,0.0,0.0,0.0,0.0,0.0,0.0,0.0,0.0,0.0,0.0,0.0,0.0,0.0,0.0,0.0,0.0,0.0,0.0,0.0,0.0,0.0,0.0,0.0,0.0,0.9396,0.9366,0.0,0.0,0.0,0.0,0.0,0.0,0.0,0.0,0.0,0.0,0.0,1.1899,1.2024,0.0,0.0,0.0,0.0,0.0,0.0,0.0,0.0,0.0,0.0,0.0,0.0,1.3596,1.4349,1.4868,1.5181,1.525,1.5104,1.5008,1.5008,1.5008,1.4846,1.4506,0.0,0.0,0.0,0.0,0.0,0.0,0.0,0.0,0.0,0.0,0.0,0.0,0.0,0.0,0.0,0.0,0.0,0.0,0.0,0.0,0.0,0.0,0.0,0.0,0.0,0.9568,0.0,0.0,0.0,0.0,0.0,0.0,0.0,0.0,0.0,0.0,0.0,1.1863,1.2368,1.2276,1.2459,1.3263,1.2751,1.2378,0.0,0.0,0.0,0.0,0.0,0.0,0.0,0.0,0.0,0.0,0.0,0.0,0.0,0.0,1.2106,1.2391,1.1735,1.0855,0.9918,0.0,0.0,0.0,0.0,0.0,0.0,0.0,0.0,0.0,0.0,0.0,0.0,0.0,0.0,1.1123,0.0,1.0919,0.0,0.0,0.0,0.0,0.0,0.0,0.0,0.0,1.2813,1.3313,1.3404,1.3502,1.3502,0.0,1.2959,1.2229,0.0,0.0,0.0,0.0,0.0,0.0,0.0,0.0,1.3932,1.4487,1.5011,1.5357,1.5526,1.5481,1.5494,1.5582,1.5494,1.5253,1.4813,1.4351,1.3772,0.0,0.0,0.0,0.0,0.0,0.0,0.0,0.0,0.0,0.0,0.0,0.0,0.0,0.0,0.0,0.0,0.0,0.0,0.0,0.0,0.0,0.0,0.0,1.0792,0.0,0.0,0.0,0.0,0.0,0.0,0.0,0.0,0.0,1.13,1.212,1.2836,1.3112,1.3136,1.3247,1.3557,0.0,0.0,0.0,0.0,0.0,0.0,0.0,1.363,1.4031,1.4012,1.4121,1.4607,1.4362,1.3967,1.3587,0.0,0.0,1.3714,1.3396,1.265,1.1418,1.1013,1.0593,0.9746,0.9079,0.8649,0.0,0.0,0.0,0.0,0.0,0.0,0.0,0.0,1.2269,1.2265,0.0,1.2269,0.0,0.0,0.0,0.0,0.0,1.2894,0.0,0.0,1.489,1.532,1.4573,1.4822,1.4841,1.4514,1.3941,1.3839,1.4063,1.3303,0.0,0.0,0.0,0.0,0.0,0.0,1.4509,1.4581,1.5374,1.579,1.5836,1.6132,1.6431,1.666,1.6419,1.6029,1.5469,1.5167,1.4873,1.4519,1.3168,0.0,0.0,0.0,0.0,0.0,0.0,0.0,0.0,0.0,0.0,0.0,0.0,0.0,0.0,0.0,0.0,0.0,0.0,0.0,0.0,1.0788,0.0,0.0,0.0,0.0,0.0,0.0,0.0,0.0,0.0,0.0,1.242,1.2891,1.3322,1.3586,0.0,0.0,0.0,0.0,1.389,1.3311,1.3741,1.4324,1.4905,1.4501,1.433,1.4898,0.0,0.0,1.5717,1.4868,1.4521,1.5568,1.398,1.2966,1.4758,1.5016,1.4697,1.3823,1.3293,1.3117,1.2793,1.1294,1.0236,1.638,0.0,0.0,0.0,0.0,1.3048,1.339,1.3777,1.4087,1.4188,1.411,1.3948,0.0,0.0,0.0,0.0,0.0,0.0,1.3797,1.4146,1.4647,1.4954,1.5156,1.5236,1.5337,1.5421,1.5255,1.5221,1.5294,1.5059,1.4482,1.3606,0.0,0.0,0.0,0.0,1.4802,1.5402,1.5663,1.602,1.6428,1.654,1.662,1.6688,1.6432,1.631,1.6326,1.6083,1.5695,1.5169,1.456,0.0,0.0,0.0,0.0,0.0,0.0,0.0,0.0,0.0,0.0,0.0,0.0,0.0,0.0,0.0,0.0,0.0,0.0,0.0,1.1494,1.241,1.2713,0.0,0.0,0.0,0.0,0.0,0.0,0.0,0.0,0.0,1.3852,1.402,1.4084,0.0,0.0,1.4458,1.4271,1.4167,1.4037,1.3864,1.4354,0.0,0.0,1.4844,1.4871,1.5234,1.5517,1.5593,1.5295,1.5264,1.5411,1.5776,1.5265,1.5111,1.5972,1.6223,1.5526,1.3898,1.3468,1.3267,1.2531,1.1776,1.1379,1.6675,1.4256,1.4351,1.4459,1.4561,1.4339,1.454,1.5034,1.5236,1.5261,1.5154,1.5059,1.4712,1.4156,1.3983,0.0,0.0,0.0,1.4556,1.501,1.5002,1.5202,1.554,1.5566,1.5713,1.598,1.5861,1.5922,1.6148,1.6053,1.5717,1.5154,0.0,0.0,1.5008,1.5158,1.5465,1.5979,1.6108,1.6406,1.6899,1.7007,1.7007,1.6906,1.6751,1.6665,1.6694,1.6546,1.6292,1.5931,1.5435,1.463,0.0,0.0,0.0,0.0,0.0,0.0,0.0,0.0,0.0,0.0,0.0,0.9142,0.9281,0.0,0.0,0.0,1.1975,1.2412,1.3295,1.3514,0.0,0.0,0.0,0.0,0.0,0.0,0.0,1.4452,1.445,1.4476,1.4808,1.5059,1.5097,1.4805,1.4898,1.4995,1.501,0.0,1.4456,1.4448,1.5146,1.5679,1.5676,1.5679,1.5781,1.6058,1.6132,1.5936,1.5427,1.5597,1.5971,1.6339,1.6137,1.6023,1.6709,1.6762,1.6242,1.461,1.4391,1.4348,1.3893,1.3035,1.2484,1.5929,1.5689,1.5729,1.598,1.6266,1.5298,1.523,1.5795,1.5801,1.5654,1.5452,1.5694,1.5513,1.5064,1.507,0.0,1.5077,1.5355,1.5574,1.5808,1.5821,1.5848,1.5842,1.5854,1.6007,1.6318,1.602,1.6167,1.6673,1.6439,1.6459,1.6701,1.6214,1.5922,1.5894,1.6172,1.6344,1.6398,1.6659,1.6934,1.73,1.7535,1.7561,1.7313,1.7273,1.7127,1.6827,1.6801,1.6787,1.6714,1.5992,1.5416,1.5051,0.0,0.0,0.0,0.0,0.0,0.0,0.0,0.0,0.0,0.0,0.0,0.0,0.0,0.0,0.0,1.3578,0.0,1.4858,1.4191,0.0,0.0,0.0,1.3284,1.3275,1.3148,1.4018,1.6432,0.0,0.0,1.5498,1.6037,1.6292,1.6048,1.5691,1.5596,1.5869,1.5408,1.508,1.5154,1.6076,1.6759,1.6711,1.6646,1.6692,1.6953,1.69,1.6479,1.5988,1.5895,1.636,1.731,1.6678,1.619,1.6913,1.696,1.6665,1.6045,1.5906,1.5984,1.6072,1.4832,1.3905,2.0411,1.8245,1.8442,1.7539,1.5927,1.5674,1.5649,1.5795,1.5814,1.5762,1.5707,1.5781,1.5734,1.56,1.5606,1.5608,1.5608,1.5931,1.5991,1.5827,1.6059,1.619,1.619,1.619,1.6326,1.6592,1.652,1.6554,1.6694,1.6627,1.6766,1.7079,1.7141,1.6953,1.6508,1.6573,1.6827,1.7287,1.7348,1.7649,1.8177,1.825,1.8243,1.8183,1.7943,1.7769,1.7689,1.7682,1.7495,1.7119,1.7073,1.664,1.566,1.4892,0.0,0.0,0.0,0.0,0.0,0.0,0.0,0.0,0.0,1.1556,1.1757,0.0,1.3745,0.0,1.4848,1.5027,1.4378,1.452,0.0,0.0,1.4196,1.4107,1.3913,1.4326,1.5184,1.6547,1.6543,1.653,1.6731,1.7073,1.7435,1.7776,1.6884,1.6331,1.6764,1.6136,1.5771,1.6237,1.6893,1.7379,1.7369,1.6974,1.6747,1.6787,1.6754,1.665,1.6518,1.6467,1.6739,1.7428,1.7394,1.7261,1.7433,1.7763,1.7821,1.7309,1.7007,1.6885,1.6953,1.6351,1.5997,2.1433,1.9829,1.9342,1.8353,1.7039,1.6331,1.6093,1.6201,1.6213,1.6207,1.6195,1.6201,1.6201,1.6195,1.6201,1.6201,1.6214,1.6399,1.6386,1.622,1.6399,1.6478,1.6479,1.6625,1.6832,1.7107,1.7228,1.7348,1.7475,1.7495,1.7582,1.7782,1.7929,1.7836,1.7515,1.7502,1.7729,1.8163,1.8056,1.8157,1.8484,1.849,1.8431,1.8269,1.8089,1.7936,1.7822,1.7829,1.7695,1.7381,1.7401,1.7041,1.6241,1.5658,1.5017,0.0,0.0,0.0,0.0,0.0,0.0,0.0,0.0,0.0,0.0,0.0,1.487,1.4899,1.5339,1.5366,1.4728,1.498,1.5146,1.5087,1.5221,1.5177,1.4872,1.545,1.6282,1.7365,1.7603,1.7703,1.7762,1.7916,1.817,1.8611,1.797,1.7541,1.7609,1.6672,1.6103,1.696,1.7602,1.7995,1.8002,1.7732,1.7462,1.7315,1.7408,1.7422,1.7172,1.741,1.7788,1.8254,1.7976,1.7795,1.8299,1.8843,1.9048,1.8557,1.8284,1.805,1.7649,1.731,1.7245,2.073,2.0293,1.9269,1.8714,1.8464,1.7059,1.6558,1.6688,1.6688,1.6688,1.6688,1.6688,1.6688,1.6688,1.6688,1.6688,1.6688,1.6787,1.682,1.6814,1.6881,1.6921,1.6941,1.722,1.7494,1.7729,1.7956,1.8216,1.849,1.849,1.849,1.849,1.8531,1.8591,1.8658,1.8658,1.8744,1.889,1.8697,1.8618,1.8618,1.8611,1.8484,1.8196,1.8149,1.7982,1.7735,1.7715,1.7682,1.7589,1.7421,1.7153,1.682,1.6281,1.5746,0.0,1.4875,0.0,0.0,0.0,0.0,0.0,0.0,0.0,0.0,1.5499,1.5688,1.5418,1.5452,1.5523,1.5517,1.5551,1.5777,1.6284,1.6403,1.6282,1.5985,1.6378,1.7165,1.8351,1.8554,1.8608,1.8533,1.8551,1.8658,1.891,1.8928,1.8813,1.8586,1.7392,1.6822,1.7729,1.8334,1.8759,1.8648,1.8605,1.8497,1.8256,1.839,1.84,1.7814,1.8341,1.9022,1.9403,1.8852,1.847,1.9326,1.9903,2.0098,1.9571,1.9434,1.9167,1.8423,1.8053,1.8095,2.0221,1.8291,1.9089,1.8793,1.7792,1.7485,1.7114,1.6688,1.6688,1.6688,1.6688,1.6688,1.6688,1.6688,1.6688,1.6688,1.674,1.7214,1.7428,1.7442,1.7936,1.8163,1.817,1.8224,1.8291,1.8324,1.8377,1.8424,1.849,1.849,1.849,1.849,1.8704,1.9064,1.954,0.0,0.0,0.0,1.9119,1.9227,1.922,1.9227,1.9201,1.914,1.8864,0.0,1.835,1.833,1.811,1.7635,1.7762,0.0,0.0,0.0,0.0,0.0,0.0,0.0,0.0,0.0,0.0,0.0,1.5436,1.5379,1.5343,1.5614,1.57,1.5444,1.585,1.613,1.6142,1.6326,1.6487,1.6607,1.6879,1.6895,1.6574,1.664,1.7165,1.8345,1.892,1.9119,1.8869,1.8831,1.8958,1.9274,1.9529,1.9649,1.9539,1.8992,1.8793,1.9061,1.9512,1.9677,1.9298,1.9234,1.9207,1.916,1.9173,1.8987,1.8515,1.8858,1.9665,2.0505,2.0598,2.0188,1.9861,2.037,2.0723,2.016,2.0052,1.9872,1.9274,1.9097,1.9109,2.35,0.0,2.1435,2.0739,0.0,1.8629,1.7862,1.7589,1.7415,1.7416,1.7589,1.7582,1.7589,1.7575,1.7589,1.7589,1.7602,1.7909,1.8056,1.8063,1.835,1.849,1.849,1.863,1.8697,1.8704,1.8991,1.9146,1.9152,1.9264,1.9344,1.9359,1.9485,1.969,1.9978,1.9998,1.9852,1.9551,1.9705,1.9786,1.9807,1.9786,1.9779,1.9786,0.0,0.0,0.0,0.0,0.0,0.0,0.0,0.0,0.0,0.0,0.0,1.696,1.6659,1.6493,1.6479,1.6364,1.6405,1.6673,1.6815,1.6642,1.6093,1.6167,1.6267,1.6291,1.6577,1.6811,1.6933,1.7181,1.7415,1.7575,1.7742,1.7775,1.7626,1.7593,1.7952,1.8742,1.9213,1.9344,1.9162,1.9279,1.9399,1.9587,1.9841,2.0036,1.997,1.9656,1.9552,2.0124,2.0431,2.0438,1.9939,1.9807,1.9748,1.9647,1.9708,1.9558,1.9054,1.9542,2.0295,2.0946,2.1095,2.0917,2.0611,2.0803,2.1015,2.0742,2.0645,2.0573,2.0267,1.9993,1.9847,2.6281,2.6057,2.3709,2.2735,2.2536,1.9975,1.8767,1.8537,0.0,0.0,0.0,1.849,1.849,1.849,1.849,1.849,1.849,1.8544,1.8578,1.8571,1.8631,1.8691,1.8724,1.8971,1.9084,1.9157,1.9645,1.988,1.9872,2.0098,2.021,2.021,2.021,2.0231,2.0292,2.033,2.0384,2.0431,2.0277,2.021,2.021,2.0265,2.0277,2.0285,2.033,2.0107,1.9568,1.9534,1.9259,1.8698,1.8604,1.845,1.8189,1.8169,1.7943,1.7474,1.7461,1.7474,1.744,1.7427,1.7515,1.7749,1.7949,1.7736,1.6915,1.6954,1.7114,1.7314,1.7407,1.7521,1.7729,1.7949,1.8196,1.8464,1.8531,1.8557,1.8522,1.8677,1.8943,1.9442,1.9594,1.9567,1.9572,1.9712,1.9872,1.9892,2.0126,2.0325,2.0285,1.9923,1.9911,2.0797,2.0987,2.0891,2.0508,2.0372,2.0265,2.0113,2.0239,2.0189,1.9943,2.03,2.0799,2.1022,2.1093,2.1074,2.1082,2.1066,2.1093,2.1093,2.1093,2.1093,2.1053,2.0704,2.0445,2.3548,2.3445,2.3041,2.2882,2.2742,2.11,1.9811,1.8838,1.8557,1.845,1.849,1.849,1.849,1.849,1.849,1.849,1.8511,1.873,1.8843,0.0,1.9153,1.9387,1.9605,1.9645,1.9806,2.001,2.0096,2.0151,2.0144,2.0184,2.021,2.021,2.021,2.0346,2.063,2.0855,2.1117,2.1373,2.0592,2.021,2.0203,2.0473,2.063,2.0643,2.0869,2.07,2.0132,2.009,1.9832,1.9315,1.8991,1.8817,1.8783,1.8777,1.8637,1.8343,1.8524,1.8557,1.833,1.8324,1.8337,1.8371,1.8397,1.8136,1.7562,1.7943,1.8163,1.7943,1.813,1.8324,1.8364,1.8403,1.849,1.8544,1.8731,1.8752,1.8574,1.9191,1.9752,2.0039,2.0253,2.0241,2.0076,2.0119,2.0159,2.0191,2.042,2.071,2.0782,2.0471,2.0393,2.0914,2.1082,2.1054,2.093,2.096,2.0885,2.092,2.0893,2.0864,2.075,2.0869,2.1047,2.1082,2.1085,2.1088,2.1093,2.1093,2.1093,2.1093,2.1093,2.1093,2.1093,2.0979,2.096,2.6523,2.6427,2.5645,2.5283,2.511,2.2775,2.1479,2.0864,1.9857,1.9331,1.92,1.906,1.9066,1.9199,1.9206,1.9213,1.9212,1.9477,1.9597,1.961,1.9773,1.9907,2.0012,2.0033,2.0092,2.0203,2.0393,2.0452,2.0487,2.0605,2.0685,2.0685,2.0685,2.0863,2.1159,2.1307,2.1505,2.1788,2.1245,2.1029,2.1173,2.1323,2.1464,2.1609,2.1742,2.1622,2.1195,2.105,2.0689,2.0124,1.9772,1.9617,1.9597,1.9625,1.9424,1.9033,1.9106,1.8958,1.8517,1.849,1.849,1.8504,1.863,1.8691,1.8598,1.8511,1.843,1.829,1.8543,1.8711,1.8717,1.9019,1.9213,1.9191,1.9451,1.9436,1.9143,1.9508,2.0108,2.0558,2.0578,2.0421,2.0225,2.0351,2.0468,2.0502,2.0735,2.0954,2.1088,2.0879,2.077,2.1037,2.1084,2.1096,2.1093,2.1093,2.1093,2.1093,2.1093,2.1093,2.1093,2.1093,2.1093,2.1093,2.1093,2.1093,2.1093,2.1093,2.1093,2.1093,2.1093,2.1093,2.1093,2.1093,2.1093,2.9598,2.9472,2.8331,2.7414,2.657,2.4291,2.2893,2.2182,2.1318,2.0677,2.02,1.9774,1.9734,1.9987,2.0,2.0042,2.012,2.0306,2.0405,2.0397,2.0405,2.0445,2.0511,2.0519,2.0546,2.0618,2.0876,2.1007,2.1026,2.1203,2.1309,2.1301,2.1301,2.1438,2.1684,2.1684,2.1831,2.2052,2.1887,2.1855,2.1986,2.2052,2.2183,2.2375,2.2485,2.2387,2.2093,2.1895,2.1534,2.1018,2.0695,2.0511,2.0513,2.0378,2.0126,1.9749,1.9614,1.9387,1.8938,1.8878,1.8891,1.8878,1.907,1.9304,1.95,1.9158,1.8871,1.8912,1.9111,1.921,1.927,1.9598,1.9893,1.9898,2.0064,2.0009,1.9682,1.9889,2.0327,2.0941,2.0808,2.059,2.0496,2.062,2.0796,2.0932,2.1023,2.1075,2.1091,2.1091,2.1083,2.1083,2.1086,2.1093,2.1093,2.1093,2.1093,2.1093,2.1093,2.1093,2.1093,2.1093,2.1093,2.1093,2.1093,2.1093,2.1093,2.1093,2.1093,2.1093,2.1093,2.1093,2.1093,2.1093,2.1093,2.9625,2.9584,2.9434,2.7699,2.5366,2.5067,2.3475,2.1363,2.2531,2.2561,2.1351,2.0506,2.0334,2.0598,2.0609,2.0729,2.0941,2.1,2.1021,2.1013,2.1005,2.1184,2.143,2.1456,2.1579,2.178,2.182,2.1801,2.1807,2.1874,2.1922,2.1911,2.1927,2.1927,2.1954,2.1946,2.2106,2.2361,2.2326,2.2218,2.2042,2.2245,2.2375,2.2393,2.2711,2.2711,2.2375,2.2335,2.2183,2.1879,2.1587,2.1456,2.1416,2.0959,2.0638,2.0571,2.0286,2.009,2.0044,2.0037,1.9997,2.0037,2.0003,2.0071,2.0124,2.0071,2.0044,2.0058,2.0064,2.001,2.0084,2.013,2.0178,2.021,2.0265,2.0174,2.0191,2.0429,2.0742,2.1053,2.1094,2.105,2.1034,2.1082,2.1197,2.1435,2.1336,2.1184,2.1111,2.125,2.1267,2.1197,2.1129,2.1144,2.1155,2.1114,2.1181,2.1155,2.1128,2.1144,2.1139,2.1083,2.1085,2.1081,2.1093,2.1093,2.1093,2.1093,2.1093,2.1093,2.1093,2.1093,2.1093,2.1093,2.1093,3.0359,3.0385,3.0605,2.9526,2.754,2.5621,2.4059,2.2979,2.27,2.2332,2.1837,2.1424,2.1259,2.1242,2.1234,2.128,2.1408,2.155,2.1638,2.1638,2.1646,2.1705,2.1836,2.1828,2.1887,2.2002,2.2007,2.2007,2.2007,2.2007,2.2007,2.2007,2.2007,2.2071,2.2223,2.2236,2.2387,2.2681,2.2694,2.2636,2.2564,2.2636,2.2702,2.2702,2.2831,2.2853,2.2689,2.2503,2.2356,2.2215,2.1981,2.1836,2.1836,2.1601,2.1408,2.1213,2.0772,2.0414,2.021,2.021,2.021,2.021,2.021,2.0338,2.0698,2.0733,2.0866,2.1128,2.0639,2.021,2.0252,2.038,2.0554,2.0714,2.0909,2.0961,2.0757,2.1072,2.1387,2.1582,2.1526,2.1514,2.1606,2.163,2.1692,2.1823,2.1778,2.1634,2.1255,2.1693,2.2135,2.2156,2.216,2.1932,2.1587,2.156,2.1609,2.1625,2.1638,2.1576,2.1202,2.1094,2.109,2.1117,2.1099,2.1094,2.1093,2.1093,2.1093,2.1107,2.1093,2.1093,2.1093,2.1093,2.1093,3.1133,3.1233,3.1102,3.0443,2.9319,2.6447,2.4962,2.4486,2.3348,2.2635,2.2265,2.2243,2.2128,2.1973,2.1871,2.1863,2.1965,2.2154,2.2248,2.2256,2.2256,2.224,2.2243,2.2256,2.2243,2.2256,2.227,2.2256,2.2248,2.2248,2.224,2.2256,2.2256,2.2325,2.252,2.2547,2.2645,2.2858,2.2885,2.2885,2.2885,2.2885,2.2885,2.2885,2.2885,2.2885,2.2893,2.2667,2.2539,2.253,2.2355,2.2256,2.2256,2.2159,2.1986,2.1724,2.1315,2.0957,2.0714,2.0685,2.0685,2.0706,2.0693,2.0866,2.1227,2.1349,2.1545,2.1817,2.1195,2.0733,2.0719,2.0924,2.1138,2.1336,2.1566,2.1628,2.1485,2.1633,2.1781,2.2024,2.1949,2.1903,2.1977,2.1981,2.1994,2.2096,2.2152,2.2172,2.1746,2.2258,2.2706,2.2876,2.2865,2.2603,2.2031,2.1875,2.2007,2.2007,2.1954,2.1804,2.1439,2.1382,2.1525,2.1784,2.1403,2.1248,2.1424,2.1395,2.1328,2.1323,2.1296,2.1256,2.1285,2.1189,2.1107,3.1738,3.1896,3.0456,2.9834,2.9537,2.7851,2.6319,2.5034,2.4902,2.414,2.2911,2.2818,2.2831,2.2773,2.2467,2.2525,2.2786,2.2791,2.2791,2.2813,2.2813,2.284,2.2853,2.2853,2.2831,2.2778,2.2773,2.2778,2.2813,2.2835,2.2862,2.2831,2.2805,2.284,2.2836,2.2831,2.2871,2.2885,2.2885,2.2885,2.2885,2.2885,2.2885,2.2885,2.2885,2.2885,2.2885,2.2889,2.2858,2.2858,2.2827,2.2827,2.2805,2.2543,2.228,2.2004,2.1932,2.1905,2.1852,2.1812,2.1825,2.1852,2.1772,2.1884,2.1892,2.1927,2.1967,2.2021,2.1954,2.1852,2.1839,2.1788,2.186,2.1897,2.1962,2.2048,2.2221,2.195,2.1925,2.2201,2.2304,2.2243,2.2064,2.2007,2.2173,2.2285,2.2194,2.217,2.2545,2.253,2.2576,2.2796,2.2867,2.2742,2.2364,2.2237,2.2101,2.2128,2.2186,2.2049,2.2012,2.2027,2.2289,2.2336,2.1819,2.1631,2.1855,2.1919,2.1865,2.1793,2.1654,2.1596,2.1561,2.1283,2.1235,3.2187,3.242,3.0724,3.0169,3.0203,2.8602,2.6918,2.5413,2.5346,2.4422,2.3085,2.2885,2.2885,2.288,2.2778,2.2778,2.2885,2.2885,2.2885,2.2885,2.2885,2.2885,2.2885,2.2885,2.2885,2.2885,2.2885,2.2885,2.2885,2.2885,2.2885,2.2885,2.2885,2.2885,2.2885,2.2885,2.2885,2.2885,2.2885,2.2885,2.2885,2.2885,2.2885,2.2885,2.2885,2.2885,2.2885,2.2885,2.2885,2.2885,2.2885,2.2885,2.2885,2.2791,2.2565,2.229,2.225,2.217,2.2026,2.2007,2.2007,2.2007,2.2007,2.2093,2.221,2.2263,2.2338,2.251,2.2572,2.2555,2.2497,2.2235,2.2071,2.2226,2.2258,2.2363,2.2588,2.2547,2.253,2.2653,2.27,2.2636,2.2562,2.2572,2.2617,2.2706,2.2639,2.2671,2.2791,2.2761,2.273,2.2845,2.2893,2.2852,2.2725,2.2641,2.2577,2.2591,2.2582,2.2569,2.255,2.251,2.2697,2.2691,2.2208,2.2076,2.2303,2.2131,2.2131,2.2061,2.1922,2.1874,2.1839,2.163,2.1617,3.2734,3.2797,3.1744,3.14,3.1416,2.9784,2.8015,2.6389,2.5737,2.452,2.3116,2.2885,2.2885,2.2885,2.2885,2.2885,2.2885,2.2885,2.2885,2.2885,2.2885,2.2885,2.2885,2.2885,2.2885,2.2885,2.2885,2.2885,2.2885,2.2885,2.2885,2.2885,2.2885,2.2885,2.2885,2.2885,2.2885,2.2885,2.2885,2.2885,2.2885,2.2885,2.2885,2.2885,2.2885,2.2885,2.2885,2.2885,2.2885,2.2885,2.2885,2.2885,2.2885,2.2885,2.2805,2.2592,2.2565,2.2494,2.2345,2.2296,2.2288,2.2288,2.2288,2.2382,2.2547,2.2574,2.2689,2.2845,2.2885,2.2885,2.2818,2.2524,2.2368,2.2525,2.2543,2.2641,2.2858,2.2885,2.2863,2.2867,2.2862,2.288,2.2885,2.2885,2.2871,2.2885,2.2885,2.2885,2.2885,2.2885,2.2885,2.2885,2.2885,2.2885,2.283,2.2782,2.2764,2.2778,2.2778,2.2858,2.2885,2.2885,2.2887,2.2881,2.2839,2.2731,2.2573,2.2378,2.23,2.2248,2.2186,2.2138,2.2084,2.2034,2.1972,3.3383,3.3339,3.3371,3.3095,3.2718,3.1224,2.971,2.7693,2.6156,2.4512,2.3013,2.2885,2.2885,2.2885,2.2885,2.2885,2.2885,2.2885,2.2885,2.2885,2.2885,2.2885,2.2885,2.2885,2.2885,2.2885,2.2885,2.2885,2.2885,2.2885,2.2885,2.2885,2.2885,2.2885,2.2885,2.2885,2.2885,2.2885,2.2885,2.2885,2.2885,2.2885,2.2885,2.2885,2.2885,2.2885,2.2885,2.2885,2.2885,2.2885,2.2885,2.2885,2.2885,2.2885,2.2885,2.2858,2.2871,2.2889,2.2858,2.2827,2.2791,2.2791,2.2862,2.2805,2.2818,2.2862,2.2875,2.2893,2.2885,2.2885,2.2885,2.2831,2.2813,2.288,2.2831,2.2858,2.2885,2.2885,2.2885,2.2885,2.2885,2.2885,2.2885,2.2885,2.2885,2.2885,2.2885,2.2885,2.2885,2.2885,2.2885,2.2885,2.2885,2.2885,2.2885,2.2885,2.2885,2.2885,2.2871,2.2885,2.2885,2.2885,2.2885,2.2885,2.2894,2.2794,2.2794,2.2626,2.2679,2.2636,2.2525,2.241,2.24,2.2342,2.2229,3.3386,3.3386,3.3386,3.2675,3.1625,3.1023,2.9155,2.6439,2.5685,2.452,2.3116,2.2885,2.2885,2.2885,2.2885,2.2885,2.2885,2.2885,2.2885,2.2885,2.2885,2.2885,2.2885,2.2885,2.2885,2.2885,2.2885,2.2885,2.2885,2.2885,2.2885,2.2885,2.2885,2.2885,2.2885,2.2885,2.2885,2.2885,2.2885,2.2885,2.2885,2.2885,2.2885,2.2885,2.2885,2.2885,2.2885,2.2885,2.2885,2.2885,2.2885,2.2885,2.2885,2.2885,2.2885,2.2885,2.2885,2.2885,2.2885,2.2885,2.2885,2.2885,2.2885,2.2885,2.2885,2.2885,2.2885,2.2885,2.2885,2.2885,2.2885,2.2885,2.2885,2.2885,2.2885,2.2885,2.2885,2.2885,2.2885,2.2885,2.2885,2.2885,2.2885,2.2885,2.2885,2.2885,2.2885,2.2885,2.2885,2.2885,2.2885,2.2885,2.2885,2.2885,2.2885,2.2885,2.2885,2.2885,2.2885,2.2885,2.2885,2.2885,2.2885,2.2885,2.2885,2.2885,2.2885,2.2885,2.2885,2.2885,2.2743,2.2702,2.2729,2.2644,2.2505,3.3386,3.3386,3.3386,3.2778,3.1689,3.1135,2.9587,2.7388,2.6022,2.4875,2.3915,2.3176,2.2885,2.2885,2.2885,2.2885,2.2885,2.2885,2.2885,2.2885,2.2885,2.2885,2.2885,2.2885,2.2885,2.2885,2.2885,2.2885,2.2885,2.2885,2.2885,2.2885,2.2885,2.2885,2.2885,2.2885,2.2885,2.2885,2.2885,2.2885,2.2885,2.2885,2.2885,2.2885,2.2885,2.2885,2.2885,2.2885,2.2885,2.2885,2.2885,2.2885,2.2885,2.2885,2.2885,2.2885,2.2885,2.2885,2.2885,2.2885,2.2885,2.2885,2.2885,2.2885,2.2885,2.2885,2.2885,2.2885,2.2885,2.2885,2.2885,2.2885,2.2885,2.2885,2.2885,2.2885,2.2885,2.2885,2.2885,2.2885,2.2885,2.2885,2.2885,2.2885,2.2885,2.2885,2.2885,2.2885,2.2885,2.2885,2.2885,2.2885,2.2885,2.2885,2.2885,2.2885,2.2885,2.2885,2.2885,2.2885,2.2885,2.2885,2.2885,2.2885,2.2885,2.2885,2.2885,2.2885,2.2885,2.2885,2.2885,2.2858,2.2818,2.2845,2.2738,3.3386,3.3386,3.3386,3.3236,3.2805,3.1424,3.0497,2.9881,2.7214,2.566,2.508,2.3898,2.3065,2.2936,2.2885,2.2885,2.2885,2.2885,2.2885,2.2885,2.2885,2.2885,2.2885,2.2885,2.2885,2.2885,2.2885,2.2885,2.2885,2.2885,2.2885,2.2885,2.2885,2.2885,2.2885,2.2885,2.2885,2.2885,2.2885,2.2885,2.2885,2.2885,2.2885,2.2885,2.2885,2.2765,2.2469,2.2151,2.2383,2.2808,2.2696,2.2568,2.2791,2.2756,2.2186,2.2332,2.2602,2.2229,2.24,2.1953,2.2211,2.24,2.2426,2.2842,2.2816,2.2885,2.2885,2.2885,2.2885,2.2885,2.2885,2.2885,2.2885,2.2885,2.2885,2.289,2.2886,2.2913,2.2983,2.3005,2.2952,2.2952,2.3032,2.3019,2.3019,2.2997,2.2979,2.2896,2.2943,2.2957,2.2903,2.2908,2.2975,2.2976,2.2998,2.289,2.289,2.2858,2.2845,2.2796,2.2871,2.2885,2.2885,2.2885,2.2885,2.2885,2.2885,2.2885,2.2885,2.2885,2.2885,2.2885,2.2885,2.2885,2.2885,3.3386,3.3386,3.3386,3.2651,3.1529,3.0932,3.0068,2.8903,2.7999,2.6673,2.5635,2.5061,2.4017,2.297,2.2885,2.2885,2.2885,2.2885,2.2885,2.2885,2.2885,2.2885,2.2885,2.2885,2.2885,2.2885,2.2885,2.2885,2.2885,2.2885,2.2885,2.2885,2.2885,2.2885,2.2885,2.2885,2.2885,2.2885,2.2885,2.2885,2.2885,2.2885,2.2885,2.2885,2.2885,2.2203,2.0885,1.9426,2.019,2.2585,2.151,2.1527,2.2297,2.0371,1.9565,2.0449,1.9582,1.8807,1.8822,1.8866,1.9426,2.0669,2.0825,2.145,2.2799,2.2868,2.2876,2.2885,2.2885,2.2885,2.2885,2.2885,2.2885,2.2885,2.292,2.2901,2.2918,2.3072,2.3287,2.3505,2.3544,2.3509,2.3482,2.346,2.3438,2.338,2.3159,2.2895,2.29,2.2962,2.2897,2.3073,2.315,2.3128,2.3075,2.2962,2.2868,2.2845,2.2756,2.2632,2.2756,2.2885,2.2885,2.2885,2.2885,2.2885,2.2885,2.2885,2.2885,2.2885,2.2885,2.2885,2.2885,2.2885,2.2885,3.3386,3.3386,3.3386,3.2829,3.1827,3.1109,3.061,3.011,2.8747,2.7668,2.6614,2.5754,2.452,2.2996,2.2885,2.2885,2.2885,2.2885,2.2885,2.2885,2.2885,2.2885,2.2885,2.2885,2.2885,2.2885,2.2885,2.2885,2.2885,2.2885,2.2885,2.2885,2.2885,2.2885,2.2885,2.2885,2.2885,2.2885,2.2885,2.2885,2.2885,2.2885,2.2885,2.2885,2.2842,2.2031,2.0236,1.9025,1.9269,2.0097,1.9495,1.94,2.0164,1.8543,1.7748,1.8805,1.7776,1.7257,1.7213,1.7213,1.7704,1.8624,1.8894,1.986,2.1179,2.1734,2.1842,2.2791,2.2859,2.2885,2.2885,2.2885,2.2885,2.2898,2.3005,2.3018,2.2942,2.3249,2.366,2.3937,2.3941,2.3719,2.3616,2.3496,2.3358,2.3205,2.3012,2.2811,2.2718,2.2797,2.2873,2.2974,2.3007,2.2925,2.2785,2.2646,2.251,2.2505,2.255,2.2432,2.2614,2.2805,2.2866,2.2866,2.2875,2.2871,2.2818,2.2818,2.2885,2.2885,2.2885,2.2871,2.2871,2.2885,2.2885,3.3386,3.3386,3.3386,3.3386,3.3043,3.1569,3.1457,3.2166,2.9507,2.7982,2.7346,2.6114,2.452,2.2911,2.2885,2.2885,2.2885,2.2885,2.2885,2.2885,2.2885,2.2885,2.2885,2.2885,2.2885,2.2885,2.2885,2.2885,2.2885,2.2885,2.2885,2.2885,2.2885,2.2885,2.2885,2.2885,2.2885,2.2885,2.2885,2.2885,2.2885,2.2885,2.2885,2.2842,2.234,2.136,1.9964,1.9104,1.8467,1.6633,1.6791,1.716,1.7195,1.7116,1.6721,1.6685,1.6431,1.6131,1.644,1.6078,1.6562,1.6809,1.6914,1.7748,1.9278,1.9808,2.0302,2.1484,2.2417,2.2525,2.2907,2.2912,2.2978,2.3037,2.322,2.3275,2.3165,2.3488,2.4,2.4325,2.3973,2.3696,2.3336,2.3046,2.2823,2.2978,2.2803,2.263,2.2427,2.2303,2.2457,2.2666,2.2656,2.26,2.246,2.2307,2.2148,2.2064,2.2163,2.2208,2.2448,2.2634,2.2766,2.2826,2.2751,2.2679,2.2622,2.2676,2.2738,2.2729,2.2622,2.2724,2.2835,2.2871,2.2885,3.3386,3.3386,3.3386,3.3386,3.3106,3.1561,3.0989,3.1127,2.9099,2.7337,2.6264,2.566,2.4503,2.2893,2.2885,2.2885,2.2885,2.2885,2.2885,2.2885,2.2885,2.2885,2.2885,2.2885,2.2885,2.2885,2.2885,2.2885,2.2885,2.2885,2.2885,2.2885,2.2885,2.2885,2.2885,2.2885,2.2885,2.2885,2.2885,2.2885,2.2885,2.2885,2.2885,2.2782,2.1648,1.9834,1.7931,1.6386,1.4734,1.3675,1.4236,1.5522,1.6087,1.4432,1.3853,1.4441,1.3684,1.2969,1.2897,1.3219,1.3532,1.4849,1.5088,1.5787,1.7537,1.7826,1.801,1.8718,1.9765,2.1208,2.2465,2.3026,2.3039,2.3106,2.3527,2.3785,2.3717,2.387,2.3874,2.3532,2.3581,2.3585,2.3081,2.2925,2.2786,2.2746,2.2576,2.2418,2.2156,2.1862,2.1972,2.2173,2.2038,2.1946,2.192,2.1825,2.1797,2.1708,2.1767,2.1825,2.2087,2.2213,2.2268,2.2418,2.2565,2.2478,2.2263,2.2288,2.231,2.2328,2.2373,2.2467,2.256,2.2702,2.2823,3.3386,3.3386,3.3386,3.2924,3.1955,3.0351,2.9588,2.923,2.7701,2.6406,2.5662,2.5517,2.4512,2.2962,2.2885,2.2885,2.2885,2.2885,2.2885,2.2885,2.2885,2.2885,2.2885,2.2885,2.2885,2.2885,2.2885,2.2885,2.2885,2.2885,2.2885,2.2885,2.2885,2.2885,2.2885,2.2885,2.2885,2.2885,2.2885,2.2885,2.2885,2.2885,2.2885,2.2833,2.1786,2.0181,1.7441,1.6404,1.4343,1.2628,1.2574,1.3488,1.4183,1.2772,1.2323,1.2592,1.2305,1.161,1.1628,1.1655,1.2115,1.2997,1.3104,1.4183,1.5327,1.5884,1.643,1.7125,1.8238,1.9487,2.1291,2.1486,2.1828,2.2802,2.3145,2.3447,2.3735,2.3907,2.3736,2.3157,2.3182,2.3064,2.2845,2.2577,2.2358,2.2144,2.1852,2.1694,2.1654,2.1411,2.1424,2.1491,2.1325,2.1257,2.1292,2.134,2.1438,2.1398,2.1411,2.143,2.1528,2.1614,2.1654,2.1859,2.2042,2.1933,2.1776,2.1824,2.1937,2.2087,2.2159,2.2183,2.2236,2.2333,2.2467,3.2861,3.2614,3.2603,3.1899,3.0586,2.8698,2.7999,2.7974,2.5963,2.5029,2.5071,2.5097,2.4077,2.3142,2.2885,2.2885,2.2885,2.2885,2.2885,2.2885,2.2885,2.2885,2.2885,2.2885,2.2885,2.2885,2.2885,2.2885,2.2885,2.2885,2.2885,2.2885,2.2885,2.2885,2.2885,2.2885,2.2885,2.2885,2.2885,2.2885,2.2885,2.2885,2.2885,2.2842,2.2688,2.0756,1.8054,1.6773,1.5398,1.1963,1.1602,1.1602,1.1602,1.1602,1.1602,1.1658,1.1637,1.1619,1.1602,1.1602,1.1655,1.1602,1.1664,1.2332,1.3578,1.4032,1.4574,1.5583,1.6542,1.7525,1.9303,1.9508,2.0083,2.1086,2.1708,2.2574,2.3368,2.3599,2.3112,2.2683,2.2575,2.2547,2.2248,2.1959,2.1761,2.1547,2.1269,2.1093,2.1093,2.1099,2.1166,2.1195,2.1139,2.1101,2.1136,2.1144,2.1224,2.1221,2.1181,2.1181,2.1187,2.1267,2.136,2.1342,2.1404,2.1386,2.1373,2.1392,2.1553,2.1803,2.1935,2.1935,2.1954,2.1967,2.2146,3.0367,2.9058,2.9058,2.9678,3.0189,2.7354,2.6798,2.7486,2.4698,2.3359,2.3393,2.3359,2.3299,2.2928,2.2885,2.2885,2.2885,2.2885,2.2885,2.2885,2.2885,2.2885,2.2885,2.2885,2.2885,2.2885,2.2885,2.2885,2.2885,2.2885,2.2885,2.2885,2.2885,2.2885,2.2885,2.2885,2.2885,2.2885,2.2885,2.2885,2.2885,2.2885,2.2885,2.2833,2.2705,2.0695,1.8089,1.7021,1.5469,1.2097,1.1646,1.1602,1.1602,1.1602,1.1602,1.1602,1.1602,1.1602,1.1602,1.1602,1.1602,1.1602,1.1602,1.1608,1.2104,1.2196,1.2732,1.3045,1.4208,1.5494,1.7294,1.7457,1.7684,1.8452,1.9642,2.117,2.2412,2.2392,2.2045,2.1736,2.1856,2.2042,2.1745,2.1528,2.143,2.1344,2.1216,2.1093,2.1093,2.1093,2.1104,2.1117,2.1096,2.1086,2.1094,2.1104,2.1133,2.1141,2.112,2.1128,2.112,2.1107,2.112,2.1176,2.1181,2.1192,2.1155,2.1083,2.1173,2.144,2.1561,2.1665,2.1676,2.17,2.1927,2.896,2.8213,2.8196,2.8114,2.776,2.6306,2.5425,2.5196,2.3648,2.2885,2.2885,2.2885,2.2885,2.2885,2.2885,2.2885,2.2885,2.2885,2.2885,2.2885,2.2885,2.2885,2.2885,2.2885,2.2885,2.2885,2.2885,2.2885,2.2885,2.2885,2.2885,2.2885,2.2885,2.2885,2.2885,2.2885,2.2885,2.2885,2.2885,2.2885,2.2885,2.2885,2.2885,2.2705,2.1816,1.9964,1.7756,1.606,1.4485,1.2207,1.1602,1.1602,1.1602,1.1602,1.1602,1.1602,1.1602,1.1602,1.1602,1.1602,1.1602,1.1602,1.1602,1.1642,1.169,1.1764,1.1669,1.1828,1.2085,1.3555,1.5249,1.5351,1.576,1.6677,1.7637,1.9206,2.0723,2.0359,2.0304,2.0551,2.1253,2.1421,2.1328,2.1173,2.112,2.1093,2.1093,2.1093,2.1093,2.1093,2.1093,2.1093,2.1093,2.1093,2.1093,2.1093,2.1093,2.1093,2.1093,2.1093,2.1093,2.1093,2.1093,2.1112,2.1085,2.1093,2.1083,2.1083,2.108,2.1093,2.1243,2.1379,2.1387,2.148,2.1686,2.7461,2.7146,2.713,2.6489,2.5551,2.5088,2.4452,2.3495,2.3099,2.2885,2.2885,2.2885,2.2885,2.2885,2.2885,2.2885,2.2885,2.2885,2.2885,2.2885,2.2885,2.2885,2.2885,2.2885,2.2885,2.2885,2.2885,2.2885,2.2885,2.2885,2.2885,2.2885,2.2885,2.2885,2.2885,2.2885,2.2885,2.2885,2.2885,2.2885,2.2885,2.2885,2.2659,2.2371,2.087,1.9126,1.665,1.5363,1.371,1.2207,1.1602,1.1602,1.1602,1.1602,1.1606,1.1626,1.1613,1.1593,1.1602,1.1602,1.1602,1.1602,1.162,1.1694,1.1735,1.1726,1.168,1.1597,1.1579,1.1953,1.3115,1.3133,1.3662,1.4574,1.5264,1.6096,1.7502,1.7909,1.7848,1.861,2.0098,2.0835,2.0792,2.1093,2.1093,2.1093,2.1093,2.1093,2.1093,2.1093,2.1093,2.1093,2.1093,2.1093,2.1093,2.1093,2.1093,2.1093,2.1093,2.1093,2.1093,2.1093,2.1093,2.1093,2.1093,2.1093,2.1093,2.1093,2.1093,2.1093,2.1093,2.1128,2.1216,2.1277,2.1432,2.4926,2.3538,2.3572,2.4263,2.513,2.3907,2.406,2.4816,2.3469,2.2902,2.2885,2.2885,2.2885,2.2885,2.2885,2.2885,2.2885,2.2885,2.2885,2.2885,2.2885,2.2885,2.2885,2.2885,2.2885,2.2885,2.2885,2.2885,2.2885,2.2885,2.2885,2.2885,2.2885,2.2898,2.296,2.2912,2.2885,2.2898,2.2898,2.2898,2.2938,2.293,2.2151,2.1042,2.0029,1.8473,1.574,1.4495,1.3337,1.1933,1.1631,1.1617,1.1602,1.1602,1.1667,1.1701,1.1683,1.1602,1.1629,1.1658,1.1665,1.1692,1.1717,1.1766,1.1746,1.1671,1.1572,1.1414,1.1209,1.1164,1.1509,1.1283,1.1315,1.2014,1.3079,1.2759,1.3283,1.5474,1.5424,1.5469,1.6588,1.904,2.034,2.0753,2.1093,2.1093,2.1048,2.093,2.1009,2.0948,2.1251,2.1315,2.1155,2.1112,2.1168,2.1155,2.1091,2.1077,2.1093,2.1093,2.1093,2.1093,2.1093,2.1093,2.1093,2.1093,2.1093,2.1093,2.1093,2.1093,2.1093,2.1093,2.1093,2.1176,2.1251,2.3897,2.2893,2.2885,2.3316,2.3881,2.3184,2.3307,2.3745,2.3256,2.2885,2.2885,2.2885,2.2885,2.2885,2.2885,2.2885,2.2885,2.2885,2.2885,2.2885,2.2885,2.2885,2.2885,2.2885,2.2885,2.2885,2.2885,2.2885,2.2885,2.2885,2.2885,2.2885,2.2898,2.2988,2.3045,2.2965,2.301,2.3028,2.3015,2.3094,2.3268,2.3103,2.2256,2.0531,1.9435,1.7348,1.5286,1.3541,1.2864,1.1898,1.188,1.1889,1.188,1.1886,1.1923,1.1948,1.193,1.1896,1.1905,1.1882,1.1862,1.1839,1.1827,1.1753,1.1701,1.1622,1.1488,1.1298,1.1175,1.1,1.0835,1.0748,1.0729,1.104,1.1588,1.1391,1.1255,1.1953,1.298,1.298,1.3328,1.5941,1.8548,1.9861,2.0148,2.0267,1.9893,1.9415,1.9934,2.0552,2.1039,2.1676,2.1422,2.1176,2.1243,2.1277,2.1099,2.1072,2.1128,2.1114,2.1093,2.1093,2.1093,2.1093,2.1093,2.1093,2.1093,2.1093,2.1093,2.1093,2.1093,2.1093,2.1093,2.1141,2.1325,2.3527,2.313,2.3032,2.2965,2.2885,2.2885,2.2902,2.2911,2.2911,2.2885,2.2885,2.2885,2.2885,2.2885,2.2885,2.2885,2.2885,2.2885,2.2885,2.2885,2.2885,2.2885,2.2885,2.2885,2.2885,2.2885,2.2885,2.2885,2.2885,2.2885,2.2885,2.2885,2.2885,2.2983,2.3073,2.3023,2.301,2.322,2.3215,2.3388,2.3554,2.2887,2.16,1.9949,1.8164,1.625,1.4364,1.3044,1.2168,1.2087,1.2052,1.2048,1.2045,1.2041,1.2098,1.2122,1.2113,1.2129,1.2079,1.2045,1.2027,1.1936,1.1825,1.1622,1.1561,1.1522,1.1398,1.114,1.1045,1.0907,1.0785,1.0716,1.0716,1.0709,1.0858,1.075,1.0808,1.1422,1.1729,1.1765,1.2162,1.2906,1.5493,1.8064,1.9096,1.9355,1.8884,1.8027,1.8278,1.8973,1.853,1.8699,1.9588,1.9609,2.0476,2.0639,2.0715,2.0824,2.0858,2.1123,2.1091,2.1083,2.1093,2.1093,2.1088,2.1093,2.1093,2.1093,2.1093,2.1093,2.1093,2.1093,2.1107,2.1181,2.1451,2.379,2.3714,2.3407,2.314,2.2925,2.2885,2.2898,2.2925,2.2898,2.2885,2.2885,2.2885,2.2885,2.2885,2.2885,2.2885,2.2885,2.2885,2.2885,2.2885,2.2885,2.2885,2.2885,2.2885,2.2885,2.2885,2.2898,2.2907,2.2912,2.297,2.2938,2.2885,2.2925,2.2934,2.3032,2.3152,2.3202,2.3429,2.3523,2.3506,2.3094,2.2011,2.0206,1.8292,1.6286,1.4305,1.2641,1.2272,1.2133,1.214,1.2156,1.2156,1.217,1.2136,1.2186,1.2204,1.2181,1.2167,1.211,1.1993,1.1784,1.1642,1.1522,1.143,1.136,1.1271,1.1135,1.0965,1.0877,1.0797,1.0729,1.0709,1.0709,1.0709,1.0709,1.0709,1.0709,1.0759,1.0992,1.0788,1.1195,1.1963,1.2538,1.5133,1.7149,1.7506,1.7087,1.6248,1.5572,1.5779,1.453,1.4578,1.628,1.739,1.8987,1.9272,1.9186,1.9496,1.9753,2.045,2.1059,2.1067,2.1067,2.1089,2.1089,2.1089,2.1093,2.1093,2.1093,2.1093,2.1093,2.1128,2.1309,2.1491,2.179,2.4088,2.3808,2.3834,2.3688,2.3433,2.3229,2.3153,2.3113,2.2961,2.2885,2.2898,2.2885,2.2885,2.2885,2.2885,2.2885,2.2885,2.2885,2.2885,2.2885,2.2885,2.2885,2.2885,2.2885,2.2885,2.2893,2.2915,2.3019,2.3131,2.314,2.3318,2.3313,2.3099,2.3206,2.3335,2.3426,2.3568,2.3616,2.3611,2.3431,2.2319,2.1539,1.957,1.6568,1.6049,1.4274,1.2812,1.2452,1.2358,1.2344,1.2347,1.2333,1.2283,1.2252,1.2197,1.2144,1.209,1.1986,1.1954,1.1891,1.1837,1.1513,1.1359,1.1228,1.1121,1.098,1.0878,1.0774,1.0738,1.0728,1.0708,1.0716,1.0709,1.0709,1.0709,1.0709,1.0709,1.0709,1.0709,1.0712,1.0753,1.1102,1.1573,1.2232,1.4085,1.5524,1.5026,1.4495,1.3836,1.3377,1.2512,1.217,1.3848,1.5597,1.7204,1.7501,1.7578,1.8142,1.8657,1.9264,2.0052,2.1034,2.1052,2.1067,2.0991,2.0979,2.098,2.1057,2.1093,2.1093,2.1133,2.1181,2.1438,2.174,2.2066,2.4382,2.4093,2.4249,2.4124,2.3794,2.3554,2.346,2.3412,2.3273,2.3108,2.3023,2.3023,2.2957,2.2912,2.2885,2.2885,2.2885,2.2885,2.2885,2.2885,2.2885,2.2885,2.2885,2.2885,2.2885,2.2915,2.3019,2.3131,2.3261,2.3381,2.3549,2.3567,2.3433,2.3514,2.3559,2.3409,2.3337,2.3218,2.2467,2.1916,2.0689,1.962,1.8633,1.561,1.4893,1.3896,1.2802,1.248,1.2477,1.2477,1.2477,1.247,1.2419,1.2317,1.2174,1.2009,1.1841,1.1683,1.1638,1.1637,1.1651,1.128,1.1121,1.0973,1.0855,1.0752,1.0747,1.0792,1.0765,1.0752,1.076,1.0789,1.074,1.0733,1.0716,1.0709,1.0709,1.0709,1.0709,1.0717,1.075,1.0767,1.0976,1.1413,1.2156,1.3418,1.3013,1.2578,1.2138,1.1809,1.1643,1.1544,1.2123,1.3848,1.5466,1.5735,1.6152,1.7233,1.7671,1.7776,1.8532,1.9399,1.989,1.9504,1.9654,2.0479,2.0678,2.0511,2.0776,2.1085,2.1133,2.1181,2.1611,2.1914,2.2186,2.4572,2.4586,2.4582,2.4293,2.3866,2.3808,2.3772,2.3772,2.3714,2.3558,2.3296,2.3269,2.314,2.297,2.2957,2.2938,2.2912,2.2934,2.292,2.2907,2.2957,2.2925,2.292,2.2934,2.2983,2.297,2.31,2.3256,2.3372,2.3647,2.3808,2.3888,2.3839,2.3585,2.3611,2.2119,2.137,2.1047,1.9742,1.9227,1.8372,1.7151,1.6115,1.4919,1.3789,1.2833,1.2646,1.2511,1.2511,1.2511,1.2484,1.2423,1.231,1.2147,1.1977,1.1771,1.1633,1.1507,1.14,1.1308,1.1155,1.1004,1.0899,1.0829,1.0755,1.0726,1.0794,1.0917,1.0899,1.0899,1.0899,1.0909,1.0833,1.0808,1.0812,1.0747,1.0752,1.071,1.0714,1.0835,1.0777,1.0728,1.0775,1.0888,1.101,1.127,1.0949,1.0742,1.074,1.0947,1.1158,1.1314,1.1612,1.2425,1.3899,1.4179,1.4763,1.5934,1.6253,1.5869,1.5795,1.6132,1.6656,1.7252,1.7635,1.786,1.8899,1.9844,2.0006,2.019,2.0927,2.1213,2.167,2.2039,2.2266,2.4599,2.4599,2.4599,2.4492,2.4306,2.4151,2.408,2.4031,2.3879,2.3732,2.3589,2.3425,2.3261,2.3184,2.3126,2.3055,2.2938,2.3126,2.3122,2.2912,2.3033,2.301,2.3005,2.3063,2.3144,2.3193,2.3309,2.3563,2.391,2.4031,2.4173,2.4271,2.3963,2.3445,2.2443,2.1359,2.1026,1.969,1.8786,1.8052,1.6656,1.574,1.484,1.3686,1.2842,1.253,1.2511,1.2504,1.2484,1.2457,1.2416,1.2273,1.211,1.1936,1.1653,1.1434,1.1249,1.113,1.1036,1.0951,1.086,1.0809,1.0819,1.0828,1.0825,1.0968,1.1045,1.1077,1.1073,1.1082,1.1108,1.1108,1.1065,1.1074,1.1034,1.0882,1.0814,1.0746,1.0744,1.098,1.1041,1.1012,1.1031,1.1028,1.108,1.1141,1.1075,1.0898,1.0848,1.1184,1.1461,1.1473,1.1653,1.1915,1.2379,1.2886,1.2991,1.3624,1.346,1.2787,1.284,1.3518,1.3605,1.4294,1.4712,1.5173,1.6511,1.7766,1.8635,1.919,1.9783,2.0942,2.1844,2.2106,2.2253,2.4599,2.4599,2.4599,2.4599,2.4572,2.4395,2.4346,2.4297,2.4155,2.4022,2.3892,2.3616,2.3389,2.3319,2.3265,2.3144,2.293,2.3158,2.3153,2.2957,2.3171,2.3086,2.3055,2.3158,2.3234,2.3336,2.3478,2.3723,2.4133,2.4271,2.4395,2.4368,2.3861,2.2161,2.0934,2.0153,1.942,1.7815,1.6609,1.5578,1.4734,1.4185,1.3782,1.2977,1.2511,1.2511,1.2488,1.2461,1.24,1.2351,1.2228,1.2049,1.1839,1.1608,1.1333,1.1116,1.0997,1.0911,1.0884,1.0967,1.0951,1.0929,1.0916,1.0934,1.099,1.1108,1.1189,1.123,1.1257,1.1264,1.1272,1.1257,1.1252,1.1261,1.117,1.1018,1.0984,1.0919,1.0986,1.1213,1.1313,1.1301,1.1274,1.1277,1.128,1.135,1.1382,1.1189,1.101,1.1323,1.1596,1.1596,1.1602,1.1765,1.1814,1.186,1.1836,1.153,1.1409,1.1326,1.1505,1.24,1.1868,1.1556,1.2633,1.3644,1.4497,1.5543,1.6887,1.78,1.8353,1.9796,2.1674,2.208,2.2031,2.4599,2.4599,2.4599,2.4599,2.4608,2.4582,2.4572,2.4595,2.4572,2.444,2.4195,2.3933,2.3647,2.3381,2.3345,2.3211,2.3063,2.3251,2.3193,2.313,2.3313,2.3162,2.3148,2.3265,2.3407,2.3483,2.3639,2.3946,2.4226,2.4417,2.4555,2.3926,2.2723,2.0761,1.9296,1.8269,1.7312,1.5654,1.437,1.3635,1.3209,1.291,1.2852,1.2511,1.2511,1.2491,1.245,1.2352,1.2235,1.2099,1.1902,1.1681,1.1466,1.1279,1.1089,1.0961,1.0895,1.0911,1.0988,1.1114,1.1169,1.1153,1.1046,1.1075,1.1146,1.1252,1.1332,1.1377,1.1404,1.1396,1.1394,1.1375,1.1357,1.1325,1.1281,1.1224,1.1217,1.1235,1.132,1.1438,1.1512,1.1503,1.1428,1.1425,1.1423,1.147,1.1502,1.148,1.1348,1.1382,1.1593,1.1599,1.1602,1.1602,1.1581,1.1561,1.1554,1.1529,1.1549,1.15,1.1552,1.1543,1.1565,1.1571,1.1588,1.2197,1.3118,1.4302,1.5644,1.6386,1.685,1.8118,1.9818,2.1251,2.1614,2.4599,2.4599,2.4599,2.4599,2.4599,2.4599,2.4599,2.4599,2.4599,2.4542,2.4452,2.4199,2.3897,2.3692,2.383,2.3599,2.3474,2.3469,2.3572,2.3598,2.3576,2.342,2.3447,2.3612,2.3732,2.3772,2.3928,2.4195,2.4403,2.4571,2.3537,2.2416,2.1499,1.9374,1.7569,1.639,1.5089,1.3974,1.2842,1.2637,1.2511,1.2511,1.2511,1.2511,1.2488,1.2457,1.2358,1.2208,1.2059,1.1875,1.1647,1.1452,1.1409,1.1148,1.0917,1.0911,1.0924,1.098,1.1182,1.1216,1.1272,1.1398,1.1328,1.1278,1.135,1.142,1.1486,1.1504,1.1509,1.1502,1.1493,1.1488,1.1468,1.1443,1.142,1.1411,1.1402,1.1429,1.1506,1.1524,1.1601,1.1582,1.152,1.1516,1.1529,1.1574,1.1602,1.1602,1.1597,1.1596,1.1601,1.1599,1.1602,1.1602,1.1602,1.1581,1.1588,1.1595,1.1602,1.1602,1.1579,1.1579,1.1595,1.1602,1.1602,1.1592,1.1799,1.2998,1.4136,1.4762,1.5317,1.659,1.791,1.935,2.0776,2.4599,2.4599,2.4599,2.4599,2.4599,2.4599,2.4599,2.4599,2.4599,2.4599,2.4572,2.4306,2.4102,2.3999,2.4084,2.3941,2.3545,2.379,2.3879,2.3768,2.3906,2.3621,2.3652,2.3875,2.3959,2.3977,2.4053,2.4297,2.4307,2.3565,2.2537,2.1695,2.0495,1.7938,1.6028,1.4821,1.3772,1.3035,1.253,1.2511,1.2511,1.2511,1.2511,1.2491,1.2451,1.2348,1.2208,1.2048,1.1805,1.1604,1.1366,1.1282,1.1246,1.106,1.1019,1.1039,1.1105,1.1195,1.1335,1.1384,1.1472,1.1538,1.1531,1.1497,1.1488,1.1529,1.1563,1.1581,1.1588,1.1595,1.1595,1.1595,1.1595,1.1588,1.1588,1.1588,1.1588,1.1588,1.1597,1.159,1.1599,1.1592,1.1595,1.1602,1.1602,1.1602,1.1602,1.1602,1.1602,1.1599,1.1597,1.1604,1.1602,1.1602,1.1602,1.1602,1.1602,1.1602,1.1602,1.1602,1.1602,1.1602,1.1602,1.1602,1.1602,1.1599,1.1597,1.1628,1.2405,1.3109,1.3673,1.4311,1.5686,1.7458,1.8878,2.4599,2.4599,2.4599,2.4599,2.4599,2.4599,2.4599,2.4599,2.4599,2.4599,2.4546,2.4337,2.4217,2.4168,2.4249,2.4137,2.3937,2.4044,2.4088,2.3861,2.4044,2.3892,2.3772,2.391,2.4102,2.4031,2.4011,2.4129,2.3686,2.2797,2.1742,2.1029,1.7843,1.5578,1.4792,1.3606,1.2852,1.2695,1.2511,1.2511,1.2511,1.2511,1.2504,1.2466,1.2364,1.2224,1.2025,1.1773,1.1466,1.1293,1.1155,1.1084,1.1099,1.114,1.1191,1.1232,1.1282,1.1355,1.1434,1.1488,1.1543,1.1588,1.1595,1.1583,1.1574,1.1581,1.1595,1.1602,1.1602,1.1602,1.1602,1.1602,1.1602,1.1602,1.1602,1.1602,1.1602,1.1602,1.1602,1.1602,1.1602,1.1602,1.1602,1.1602,1.1602,1.1602,1.1602,1.1602,1.1602,1.1602,1.1602,1.1602,1.1602,1.1602,1.1602,1.1602,1.1602,1.1602,1.1602,1.1602,1.1602,1.1602,1.1602,1.1602,1.1602,1.1602,1.1604,1.1628,1.1656,1.1997,1.2363,1.216,1.3408,1.5444,1.6772,2.4599,2.4599,2.4599,2.4599,2.4599,2.4599,2.4599,2.4599,2.4599,2.4599,2.4595,2.4515,2.4391,2.4253,2.4404,2.4333,2.4195,2.4209,2.4275,2.4253,2.4306,2.4159,2.4039,2.4244,2.4293,2.4257,2.4155,2.3614,2.2577,2.1536,1.9788,1.735,1.5329,1.4734,1.3577,1.255,1.253,1.2511,1.2491,1.2484,1.2474,1.2474,1.2451,1.2348,1.2215,1.2043,1.1819,1.1524,1.1334,1.1193,1.1033,1.1034,1.1137,1.1277,1.1345,1.1359,1.14,1.1459,1.1525,1.1559,1.1588,1.1602,1.1602,1.1602,1.1602,1.1602,1.1602,1.1602,1.1602,1.1602,1.1602,1.1602,1.1602,1.1602,1.1602,1.1602,1.1602,1.1602,1.1602,1.1602,1.1602,1.1602,1.1602,1.1602,1.1602,1.1602,1.1602,1.1602,1.1602,1.1602,1.1602,1.1602,1.1602,1.1602,1.1602,1.1602,1.1602,1.1602,1.1602,1.1602,1.1602,1.1602,1.1602,1.1602,1.1602,1.1602,1.1593,1.1599,1.1633,1.1714,1.1888,1.2049,1.2176,1.3744,1.4739,2.4599,2.4599,2.4599,2.4599,2.4599,2.4599,2.4599,2.4599,2.4599,2.4599,2.4599,2.4586,2.4502,2.4368,2.4542,2.4555,2.4377,2.4386,2.4457,2.4497,2.4457,2.4311,2.4364,2.4471,2.436,2.426,2.3381,2.2468,2.1263,1.9214,1.7122,1.5444,1.4792,1.3722,1.2511,1.2511,1.2511,1.2511,1.2457,1.2413,1.2406,1.2383,1.2341,1.2208,1.2049,1.187,1.1622,1.1339,1.1196,1.1128,1.1041,1.1212,1.1339,1.145,1.1491,1.1482,1.1486,1.1507,1.1574,1.1602,1.1602,1.1602,1.1602,1.1602,1.1602,1.1602,1.1602,1.1602,1.1602,1.1602,1.1602,1.1602,1.1602,1.1602,1.1602,1.1602,1.1602,1.1602,1.1602,1.1602,1.1602,1.1602,1.1602,1.1602,1.1602,1.1602,1.1602,1.1602,1.1602,1.1602,1.1602,1.1602,1.1602,1.1602,1.1602,1.1602,1.1602,1.1602,1.1602,1.1602,1.1602,1.1602,1.1602,1.1602,1.1602,1.1602,1.1593,1.162,1.168,1.1771,1.1986,1.2218,1.2321,1.2406,1.3297,2.4599,2.4599,2.4599,2.4599,2.4599,2.4599,2.4599,2.4599,2.4599,2.4599,2.4599,2.4599,2.4599,2.4599,2.4599,2.4599,2.4582,2.4528,2.4595,2.4595,2.4595,2.4462,2.4422,2.4475,2.4133,2.3161,2.2005,2.1053,2.0014,1.7767,1.5989,1.4945,1.377,1.2511,1.2511,1.2494,1.2488,1.2443,1.2382,1.2298,1.2277,1.2257,1.2181,1.2043,1.1868,1.1656,1.145,1.1262,1.1104,1.1118,1.1167,1.133,1.147,1.1547,1.1561,1.1568,1.1561,1.1574,1.1602,1.1602,1.1602,1.1602,1.1602,1.1602,1.1602,1.1602,1.1602,1.1602,1.1602,1.1602,1.1602,1.1602,1.1602,1.1602,1.1602,1.1602,1.1602,1.1602,1.1602,1.1602,1.1602,1.1602,1.1602,1.1602,1.1602,1.1602,1.1602,1.1602,1.1602,1.1602,1.1602,1.1602,1.1602,1.1602,1.1602,1.1602,1.1602,1.1602,1.1602,1.1602,1.1602,1.1602,1.1602,1.1602,1.1602,1.1608,1.1649,1.168,1.1757,1.1861,1.2054,1.2276,1.2362,1.244,1.2484,2.4599,2.4599,2.4599,2.4599,2.4599,2.4599,2.4599,2.4599,2.4599,2.4599,2.4599,2.4599,2.4599,2.4599,2.4599,2.4599,2.4599,2.4599,2.4599,2.4599,2.4599,2.4555,2.416,2.3482,2.3301,2.1948,2.0094,1.842,1.7891,1.6275,1.4619,1.3257,1.3112,1.2511,1.2511,1.2481,1.244,1.2375,1.2294,1.2212,1.2133,1.2093,1.2013,1.1884,1.1726,1.1629,1.1509,1.1318,1.1286,1.1313,1.1345,1.1443,1.1529,1.1602,1.1602,1.1602,1.1602,1.1602,1.1602,1.1602,1.1602,1.1602,1.1602,1.1602,1.1602,1.1602,1.1602,1.1602,1.1602,1.1602,1.1602,1.1602,1.1602,1.1602,1.1602,1.1602,1.1602,1.1602,1.1602,1.1602,1.1602,1.1602,1.1602,1.1602,1.1602,1.1602,1.1602,1.1602,1.1602,1.1602,1.1602,1.1602,1.1602,1.1602,1.1602,1.1602,1.1602,1.1602,1.1602,1.1602,1.1602,1.1602,1.1602,1.1602,1.1615,1.1622,1.1676,1.1814,1.1904,1.2022,1.2165,1.2314,1.2409,1.247,1.2497]}]]